<?xml version="1.0" encoding="UTF-8" standalone="no" ?>
<gpx xmlns="http://www.topografix.com/GPX/1/1" xmlns:xsi="http://www.w3.org/2001/XMLSchema-instance" xsi:schemaLocation="http://www.topografix.com/GPX/1/1 http://www.topografix.com/GPX/1/1/gpx.xsd" version="1.1" creator="VisuGPX - https://www.visugpx.com">
  <metadata>
    <name>montreuil juigné par bouchemaine</name>
    <desc><![CDATA[bon tracé mais beaucoup de route a revoir pour les chemins]]></desc>
  </metadata>
  <trk>
    <name><![CDATA[21-FEV-15 17:00:57]]></name>
    <trkseg>
      <trkpt lat="47.53867" lon="-0.62013">
        <ele>51.09</ele>
        <time>2015-02-21T13:10:01Z</time>
      </trkpt>
      <trkpt lat="47.53866" lon="-0.62013">
        <ele>50.61</ele>
        <time>2015-02-21T13:10:12Z</time>
      </trkpt>
      <trkpt lat="47.53853" lon="-0.61997">
        <ele>50.61</ele>
        <time>2015-02-21T13:10:23Z</time>
      </trkpt>
      <trkpt lat="47.53849" lon="-0.6199">
        <ele>50.61</ele>
        <time>2015-02-21T13:10:26Z</time>
      </trkpt>
      <trkpt lat="47.53847" lon="-0.61988">
        <ele>50.13</ele>
        <time>2015-02-21T13:10:27Z</time>
      </trkpt>
      <trkpt lat="47.53845" lon="-0.61985">
        <ele>50.61</ele>
        <time>2015-02-21T13:10:28Z</time>
      </trkpt>
      <trkpt lat="47.53843" lon="-0.61983">
        <ele>50.61</ele>
        <time>2015-02-21T13:10:29Z</time>
      </trkpt>
      <trkpt lat="47.53841" lon="-0.6198">
        <ele>51.09</ele>
        <time>2015-02-21T13:10:30Z</time>
      </trkpt>
      <trkpt lat="47.53838" lon="-0.61977">
        <ele>51.09</ele>
        <time>2015-02-21T13:10:31Z</time>
      </trkpt>
      <trkpt lat="47.53836" lon="-0.61974">
        <ele>51.09</ele>
        <time>2015-02-21T13:10:32Z</time>
      </trkpt>
      <trkpt lat="47.53833" lon="-0.61966">
        <ele>50.13</ele>
        <time>2015-02-21T13:10:34Z</time>
      </trkpt>
      <trkpt lat="47.53833" lon="-0.6196">
        <ele>50.13</ele>
        <time>2015-02-21T13:10:35Z</time>
      </trkpt>
      <trkpt lat="47.53835" lon="-0.61954">
        <ele>50.13</ele>
        <time>2015-02-21T13:10:36Z</time>
      </trkpt>
      <trkpt lat="47.53837" lon="-0.61949">
        <ele>49.65</ele>
        <time>2015-02-21T13:10:37Z</time>
      </trkpt>
      <trkpt lat="47.53839" lon="-0.61943">
        <ele>49.65</ele>
        <time>2015-02-21T13:10:38Z</time>
      </trkpt>
      <trkpt lat="47.53863" lon="-0.61873">
        <ele>46.76</ele>
        <time>2015-02-21T13:10:49Z</time>
      </trkpt>
      <trkpt lat="47.53876" lon="-0.61842">
        <ele>46.76</ele>
        <time>2015-02-21T13:10:53Z</time>
      </trkpt>
      <trkpt lat="47.53881" lon="-0.61835">
        <ele>46.76</ele>
        <time>2015-02-21T13:10:54Z</time>
      </trkpt>
      <trkpt lat="47.53886" lon="-0.61829">
        <ele>46.76</ele>
        <time>2015-02-21T13:10:55Z</time>
      </trkpt>
      <trkpt lat="47.53891" lon="-0.61825">
        <ele>46.76</ele>
        <time>2015-02-21T13:10:56Z</time>
      </trkpt>
      <trkpt lat="47.53897" lon="-0.61823">
        <ele>47.24</ele>
        <time>2015-02-21T13:10:57Z</time>
      </trkpt>
      <trkpt lat="47.53902" lon="-0.61822">
        <ele>47.72</ele>
        <time>2015-02-21T13:10:58Z</time>
      </trkpt>
      <trkpt lat="47.53911" lon="-0.6182">
        <ele>48.2</ele>
        <time>2015-02-21T13:11:00Z</time>
      </trkpt>
      <trkpt lat="47.53915" lon="-0.6182">
        <ele>47.72</ele>
        <time>2015-02-21T13:11:01Z</time>
      </trkpt>
      <trkpt lat="47.53919" lon="-0.6182">
        <ele>48.2</ele>
        <time>2015-02-21T13:11:02Z</time>
      </trkpt>
      <trkpt lat="47.53922" lon="-0.61819">
        <ele>48.2</ele>
        <time>2015-02-21T13:11:03Z</time>
      </trkpt>
      <trkpt lat="47.53925" lon="-0.61818">
        <ele>48.2</ele>
        <time>2015-02-21T13:11:04Z</time>
      </trkpt>
      <trkpt lat="47.53928" lon="-0.61818">
        <ele>48.68</ele>
        <time>2015-02-21T13:11:05Z</time>
      </trkpt>
      <trkpt lat="47.5393" lon="-0.61817">
        <ele>48.2</ele>
        <time>2015-02-21T13:11:06Z</time>
      </trkpt>
      <trkpt lat="47.53933" lon="-0.61815">
        <ele>48.2</ele>
        <time>2015-02-21T13:11:07Z</time>
      </trkpt>
      <trkpt lat="47.53935" lon="-0.61814">
        <ele>48.2</ele>
        <time>2015-02-21T13:11:08Z</time>
      </trkpt>
      <trkpt lat="47.53936" lon="-0.61811">
        <ele>48.2</ele>
        <time>2015-02-21T13:11:09Z</time>
      </trkpt>
      <trkpt lat="47.53937" lon="-0.61807">
        <ele>47.72</ele>
        <time>2015-02-21T13:11:10Z</time>
      </trkpt>
      <trkpt lat="47.53937" lon="-0.61802">
        <ele>48.2</ele>
        <time>2015-02-21T13:11:11Z</time>
      </trkpt>
      <trkpt lat="47.53936" lon="-0.61796">
        <ele>47.72</ele>
        <time>2015-02-21T13:11:12Z</time>
      </trkpt>
      <trkpt lat="47.53934" lon="-0.61785">
        <ele>47.24</ele>
        <time>2015-02-21T13:11:14Z</time>
      </trkpt>
      <trkpt lat="47.53932" lon="-0.61778">
        <ele>46.76</ele>
        <time>2015-02-21T13:11:15Z</time>
      </trkpt>
      <trkpt lat="47.5393" lon="-0.61771">
        <ele>46.76</ele>
        <time>2015-02-21T13:11:16Z</time>
      </trkpt>
      <trkpt lat="47.5392" lon="-0.61741">
        <ele>44.84</ele>
        <time>2015-02-21T13:11:20Z</time>
      </trkpt>
      <trkpt lat="47.53915" lon="-0.61736">
        <ele>43.4</ele>
        <time>2015-02-21T13:11:21Z</time>
      </trkpt>
      <trkpt lat="47.53909" lon="-0.61734">
        <ele>42.44</ele>
        <time>2015-02-21T13:11:22Z</time>
      </trkpt>
      <trkpt lat="47.53903" lon="-0.61734">
        <ele>41.95</ele>
        <time>2015-02-21T13:11:23Z</time>
      </trkpt>
      <trkpt lat="47.53896" lon="-0.61736">
        <ele>41.47</ele>
        <time>2015-02-21T13:11:24Z</time>
      </trkpt>
      <trkpt lat="47.53889" lon="-0.61739">
        <ele>41.47</ele>
        <time>2015-02-21T13:11:25Z</time>
      </trkpt>
      <trkpt lat="47.53844" lon="-0.61755">
        <ele>38.59</ele>
        <time>2015-02-21T13:11:31Z</time>
      </trkpt>
      <trkpt lat="47.53836" lon="-0.61754">
        <ele>37.63</ele>
        <time>2015-02-21T13:11:32Z</time>
      </trkpt>
      <trkpt lat="47.53828" lon="-0.61752">
        <ele>37.15</ele>
        <time>2015-02-21T13:11:33Z</time>
      </trkpt>
      <trkpt lat="47.5382" lon="-0.61748">
        <ele>36.19</ele>
        <time>2015-02-21T13:11:34Z</time>
      </trkpt>
      <trkpt lat="47.53812" lon="-0.61741">
        <ele>35.71</ele>
        <time>2015-02-21T13:11:35Z</time>
      </trkpt>
      <trkpt lat="47.53805" lon="-0.61732">
        <ele>35.23</ele>
        <time>2015-02-21T13:11:36Z</time>
      </trkpt>
      <trkpt lat="47.538" lon="-0.61722">
        <ele>34.26</ele>
        <time>2015-02-21T13:11:37Z</time>
      </trkpt>
      <trkpt lat="47.53796" lon="-0.61712">
        <ele>33.3</ele>
        <time>2015-02-21T13:11:38Z</time>
      </trkpt>
      <trkpt lat="47.53794" lon="-0.61702">
        <ele>32.82</ele>
        <time>2015-02-21T13:11:39Z</time>
      </trkpt>
      <trkpt lat="47.53792" lon="-0.61693">
        <ele>31.38</ele>
        <time>2015-02-21T13:11:40Z</time>
      </trkpt>
      <trkpt lat="47.53791" lon="-0.61677">
        <ele>28.5</ele>
        <time>2015-02-21T13:11:43Z</time>
      </trkpt>
      <trkpt lat="47.53792" lon="-0.61673">
        <ele>28.5</ele>
        <time>2015-02-21T13:11:44Z</time>
      </trkpt>
      <trkpt lat="47.53793" lon="-0.6167">
        <ele>27.53</ele>
        <time>2015-02-21T13:11:45Z</time>
      </trkpt>
      <trkpt lat="47.53795" lon="-0.61666">
        <ele>28.02</ele>
        <time>2015-02-21T13:11:46Z</time>
      </trkpt>
      <trkpt lat="47.53798" lon="-0.61663">
        <ele>27.53</ele>
        <time>2015-02-21T13:11:47Z</time>
      </trkpt>
      <trkpt lat="47.53802" lon="-0.6166">
        <ele>28.02</ele>
        <time>2015-02-21T13:11:48Z</time>
      </trkpt>
      <trkpt lat="47.53807" lon="-0.61658">
        <ele>28.02</ele>
        <time>2015-02-21T13:11:49Z</time>
      </trkpt>
      <trkpt lat="47.53813" lon="-0.61656">
        <ele>27.53</ele>
        <time>2015-02-21T13:11:50Z</time>
      </trkpt>
      <trkpt lat="47.53863" lon="-0.6164">
        <ele>25.61</ele>
        <time>2015-02-21T13:11:59Z</time>
      </trkpt>
      <trkpt lat="47.53868" lon="-0.61636">
        <ele>25.61</ele>
        <time>2015-02-21T13:12:00Z</time>
      </trkpt>
      <trkpt lat="47.53873" lon="-0.61632">
        <ele>25.61</ele>
        <time>2015-02-21T13:12:01Z</time>
      </trkpt>
      <trkpt lat="47.53876" lon="-0.61627">
        <ele>25.13</ele>
        <time>2015-02-21T13:12:02Z</time>
      </trkpt>
      <trkpt lat="47.53879" lon="-0.61624">
        <ele>25.13</ele>
        <time>2015-02-21T13:12:03Z</time>
      </trkpt>
      <trkpt lat="47.53891" lon="-0.61601">
        <ele>24.17</ele>
        <time>2015-02-21T13:12:09Z</time>
      </trkpt>
      <trkpt lat="47.5389" lon="-0.61595">
        <ele>23.69</ele>
        <time>2015-02-21T13:12:10Z</time>
      </trkpt>
      <trkpt lat="47.53887" lon="-0.61589">
        <ele>23.69</ele>
        <time>2015-02-21T13:12:11Z</time>
      </trkpt>
      <trkpt lat="47.53884" lon="-0.61583">
        <ele>23.21</ele>
        <time>2015-02-21T13:12:12Z</time>
      </trkpt>
      <trkpt lat="47.53881" lon="-0.61578">
        <ele>23.21</ele>
        <time>2015-02-21T13:12:13Z</time>
      </trkpt>
      <trkpt lat="47.53878" lon="-0.61571">
        <ele>22.73</ele>
        <time>2015-02-21T13:12:14Z</time>
      </trkpt>
      <trkpt lat="47.53876" lon="-0.61565">
        <ele>23.21</ele>
        <time>2015-02-21T13:12:15Z</time>
      </trkpt>
      <trkpt lat="47.53875" lon="-0.61558">
        <ele>22.73</ele>
        <time>2015-02-21T13:12:16Z</time>
      </trkpt>
      <trkpt lat="47.53875" lon="-0.61551">
        <ele>22.25</ele>
        <time>2015-02-21T13:12:17Z</time>
      </trkpt>
      <trkpt lat="47.53875" lon="-0.61545">
        <ele>21.77</ele>
        <time>2015-02-21T13:12:18Z</time>
      </trkpt>
      <trkpt lat="47.53875" lon="-0.61541">
        <ele>21.77</ele>
        <time>2015-02-21T13:12:19Z</time>
      </trkpt>
      <trkpt lat="47.53874" lon="-0.61538">
        <ele>21.29</ele>
        <time>2015-02-21T13:12:20Z</time>
      </trkpt>
      <trkpt lat="47.53871" lon="-0.61536">
        <ele>21.77</ele>
        <time>2015-02-21T13:12:21Z</time>
      </trkpt>
      <trkpt lat="47.53868" lon="-0.61536">
        <ele>21.29</ele>
        <time>2015-02-21T13:12:22Z</time>
      </trkpt>
      <trkpt lat="47.53865" lon="-0.61536">
        <ele>21.29</ele>
        <time>2015-02-21T13:12:23Z</time>
      </trkpt>
      <trkpt lat="47.53861" lon="-0.61537">
        <ele>20.81</ele>
        <time>2015-02-21T13:12:24Z</time>
      </trkpt>
      <trkpt lat="47.53858" lon="-0.61538">
        <ele>20.81</ele>
        <time>2015-02-21T13:12:25Z</time>
      </trkpt>
      <trkpt lat="47.53854" lon="-0.61541">
        <ele>21.29</ele>
        <time>2015-02-21T13:12:26Z</time>
      </trkpt>
      <trkpt lat="47.5385" lon="-0.61543">
        <ele>20.81</ele>
        <time>2015-02-21T13:12:27Z</time>
      </trkpt>
      <trkpt lat="47.53778" lon="-0.61571">
        <ele>20.81</ele>
        <time>2015-02-21T13:12:43Z</time>
      </trkpt>
      <trkpt lat="47.53697" lon="-0.61595">
        <ele>20.81</ele>
        <time>2015-02-21T13:13:01Z</time>
      </trkpt>
      <trkpt lat="47.53629" lon="-0.61602">
        <ele>21.29</ele>
        <time>2015-02-21T13:13:16Z</time>
      </trkpt>
      <trkpt lat="47.53557" lon="-0.61601">
        <ele>20.32</ele>
        <time>2015-02-21T13:13:32Z</time>
      </trkpt>
      <trkpt lat="47.5353" lon="-0.61595">
        <ele>20.81</ele>
        <time>2015-02-21T13:13:39Z</time>
      </trkpt>
      <trkpt lat="47.53526" lon="-0.61592">
        <ele>20.32</ele>
        <time>2015-02-21T13:13:40Z</time>
      </trkpt>
      <trkpt lat="47.53523" lon="-0.6159">
        <ele>20.81</ele>
        <time>2015-02-21T13:13:41Z</time>
      </trkpt>
      <trkpt lat="47.53518" lon="-0.61588">
        <ele>20.81</ele>
        <time>2015-02-21T13:13:42Z</time>
      </trkpt>
      <trkpt lat="47.53515" lon="-0.61586">
        <ele>20.81</ele>
        <time>2015-02-21T13:13:43Z</time>
      </trkpt>
      <trkpt lat="47.53511" lon="-0.61586">
        <ele>20.81</ele>
        <time>2015-02-21T13:13:44Z</time>
      </trkpt>
      <trkpt lat="47.53508" lon="-0.61586">
        <ele>20.81</ele>
        <time>2015-02-21T13:13:45Z</time>
      </trkpt>
      <trkpt lat="47.53477" lon="-0.61575">
        <ele>22.25</ele>
        <time>2015-02-21T13:13:55Z</time>
      </trkpt>
      <trkpt lat="47.53463" lon="-0.61569">
        <ele>25.61</ele>
        <time>2015-02-21T13:14:04Z</time>
      </trkpt>
      <trkpt lat="47.53461" lon="-0.61567">
        <ele>26.57</ele>
        <time>2015-02-21T13:14:05Z</time>
      </trkpt>
      <trkpt lat="47.53459" lon="-0.61566">
        <ele>26.57</ele>
        <time>2015-02-21T13:14:06Z</time>
      </trkpt>
      <trkpt lat="47.53437" lon="-0.6155">
        <ele>29.94</ele>
        <time>2015-02-21T13:14:15Z</time>
      </trkpt>
      <trkpt lat="47.53412" lon="-0.61535">
        <ele>32.82</ele>
        <time>2015-02-21T13:14:27Z</time>
      </trkpt>
      <trkpt lat="47.53397" lon="-0.61524">
        <ele>36.67</ele>
        <time>2015-02-21T13:14:36Z</time>
      </trkpt>
      <trkpt lat="47.53396" lon="-0.61523">
        <ele>36.67</ele>
        <time>2015-02-21T13:14:37Z</time>
      </trkpt>
      <trkpt lat="47.5338" lon="-0.61513">
        <ele>38.59</ele>
        <time>2015-02-21T13:14:48Z</time>
      </trkpt>
      <trkpt lat="47.5335" lon="-0.61496">
        <ele>37.15</ele>
        <time>2015-02-21T13:15:01Z</time>
      </trkpt>
      <trkpt lat="47.53347" lon="-0.61493">
        <ele>36.67</ele>
        <time>2015-02-21T13:15:02Z</time>
      </trkpt>
      <trkpt lat="47.53331" lon="-0.61479">
        <ele>40.03</ele>
        <time>2015-02-21T13:15:10Z</time>
      </trkpt>
      <trkpt lat="47.53319" lon="-0.61468">
        <ele>41.95</ele>
        <time>2015-02-21T13:15:17Z</time>
      </trkpt>
      <trkpt lat="47.533" lon="-0.61449">
        <ele>43.88</ele>
        <time>2015-02-21T13:15:26Z</time>
      </trkpt>
      <trkpt lat="47.53295" lon="-0.61442">
        <ele>44.84</ele>
        <time>2015-02-21T13:15:29Z</time>
      </trkpt>
      <trkpt lat="47.53286" lon="-0.61428">
        <ele>46.76</ele>
        <time>2015-02-21T13:15:38Z</time>
      </trkpt>
      <trkpt lat="47.53278" lon="-0.61412">
        <ele>47.24</ele>
        <time>2015-02-21T13:15:48Z</time>
      </trkpt>
      <trkpt lat="47.53251" lon="-0.61373">
        <ele>46.76</ele>
        <time>2015-02-21T13:16:02Z</time>
      </trkpt>
      <trkpt lat="47.53228" lon="-0.61352">
        <ele>48.2</ele>
        <time>2015-02-21T13:16:12Z</time>
      </trkpt>
      <trkpt lat="47.53209" lon="-0.61338">
        <ele>51.57</ele>
        <time>2015-02-21T13:16:22Z</time>
      </trkpt>
      <trkpt lat="47.53198" lon="-0.61315">
        <ele>50.61</ele>
        <time>2015-02-21T13:16:34Z</time>
      </trkpt>
      <trkpt lat="47.53197" lon="-0.61306">
        <ele>49.65</ele>
        <time>2015-02-21T13:16:37Z</time>
      </trkpt>
      <trkpt lat="47.53196" lon="-0.61302">
        <ele>49.16</ele>
        <time>2015-02-21T13:16:38Z</time>
      </trkpt>
      <trkpt lat="47.53168" lon="-0.61253">
        <ele>50.61</ele>
        <time>2015-02-21T13:16:49Z</time>
      </trkpt>
      <trkpt lat="47.53151" lon="-0.61233">
        <ele>51.57</ele>
        <time>2015-02-21T13:16:58Z</time>
      </trkpt>
      <trkpt lat="47.53111" lon="-0.61192">
        <ele>50.13</ele>
        <time>2015-02-21T13:17:09Z</time>
      </trkpt>
      <trkpt lat="47.53095" lon="-0.61167">
        <ele>53.49</ele>
        <time>2015-02-21T13:17:19Z</time>
      </trkpt>
      <trkpt lat="47.53088" lon="-0.61153">
        <ele>53.49</ele>
        <time>2015-02-21T13:17:34Z</time>
      </trkpt>
      <trkpt lat="47.53086" lon="-0.61146">
        <ele>52.53</ele>
        <time>2015-02-21T13:17:36Z</time>
      </trkpt>
      <trkpt lat="47.53077" lon="-0.61104">
        <ele>53.01</ele>
        <time>2015-02-21T13:17:49Z</time>
      </trkpt>
      <trkpt lat="47.53075" lon="-0.61101">
        <ele>53.01</ele>
        <time>2015-02-21T13:17:50Z</time>
      </trkpt>
      <trkpt lat="47.53072" lon="-0.61095">
        <ele>53.01</ele>
        <time>2015-02-21T13:17:52Z</time>
      </trkpt>
      <trkpt lat="47.53071" lon="-0.61092">
        <ele>52.53</ele>
        <time>2015-02-21T13:17:53Z</time>
      </trkpt>
      <trkpt lat="47.5307" lon="-0.61088">
        <ele>52.53</ele>
        <time>2015-02-21T13:17:54Z</time>
      </trkpt>
      <trkpt lat="47.53068" lon="-0.61085">
        <ele>53.01</ele>
        <time>2015-02-21T13:17:55Z</time>
      </trkpt>
      <trkpt lat="47.53067" lon="-0.61083">
        <ele>52.53</ele>
        <time>2015-02-21T13:17:56Z</time>
      </trkpt>
      <trkpt lat="47.53065" lon="-0.61082">
        <ele>52.05</ele>
        <time>2015-02-21T13:17:57Z</time>
      </trkpt>
      <trkpt lat="47.53054" lon="-0.61074">
        <ele>54.93</ele>
        <time>2015-02-21T13:18:02Z</time>
      </trkpt>
      <trkpt lat="47.53047" lon="-0.61072">
        <ele>56.86</ele>
        <time>2015-02-21T13:18:07Z</time>
      </trkpt>
      <trkpt lat="47.53037" lon="-0.61068">
        <ele>58.3</ele>
        <time>2015-02-21T13:18:12Z</time>
      </trkpt>
      <trkpt lat="47.5303" lon="-0.61057">
        <ele>58.3</ele>
        <time>2015-02-21T13:18:17Z</time>
      </trkpt>
      <trkpt lat="47.5303" lon="-0.61055">
        <ele>58.3</ele>
        <time>2015-02-21T13:18:18Z</time>
      </trkpt>
      <trkpt lat="47.53028" lon="-0.6105">
        <ele>57.82</ele>
        <time>2015-02-21T13:18:21Z</time>
      </trkpt>
      <trkpt lat="47.53028" lon="-0.61047">
        <ele>58.3</ele>
        <time>2015-02-21T13:18:22Z</time>
      </trkpt>
      <trkpt lat="47.53027" lon="-0.61015">
        <ele>60.22</ele>
        <time>2015-02-21T13:18:33Z</time>
      </trkpt>
      <trkpt lat="47.53023" lon="-0.61011">
        <ele>60.22</ele>
        <time>2015-02-21T13:18:35Z</time>
      </trkpt>
      <trkpt lat="47.53014" lon="-0.6101">
        <ele>60.7</ele>
        <time>2015-02-21T13:18:41Z</time>
      </trkpt>
      <trkpt lat="47.5301" lon="-0.61012">
        <ele>61.18</ele>
        <time>2015-02-21T13:18:44Z</time>
      </trkpt>
      <trkpt lat="47.53008" lon="-0.61012">
        <ele>62.14</ele>
        <time>2015-02-21T13:18:46Z</time>
      </trkpt>
      <trkpt lat="47.53004" lon="-0.60999">
        <ele>63.1</ele>
        <time>2015-02-21T13:18:52Z</time>
      </trkpt>
      <trkpt lat="47.53002" lon="-0.60997">
        <ele>62.62</ele>
        <time>2015-02-21T13:18:53Z</time>
      </trkpt>
      <trkpt lat="47.53" lon="-0.60997">
        <ele>63.1</ele>
        <time>2015-02-21T13:18:54Z</time>
      </trkpt>
      <trkpt lat="47.52997" lon="-0.60997">
        <ele>63.1</ele>
        <time>2015-02-21T13:18:55Z</time>
      </trkpt>
      <trkpt lat="47.52996" lon="-0.60997">
        <ele>63.1</ele>
        <time>2015-02-21T13:18:56Z</time>
      </trkpt>
      <trkpt lat="47.52995" lon="-0.60998">
        <ele>63.1</ele>
        <time>2015-02-21T13:18:57Z</time>
      </trkpt>
      <trkpt lat="47.52993" lon="-0.60998">
        <ele>62.62</ele>
        <time>2015-02-21T13:18:58Z</time>
      </trkpt>
      <trkpt lat="47.5299" lon="-0.60998">
        <ele>63.1</ele>
        <time>2015-02-21T13:18:59Z</time>
      </trkpt>
      <trkpt lat="47.52988" lon="-0.61">
        <ele>63.1</ele>
        <time>2015-02-21T13:19:00Z</time>
      </trkpt>
      <trkpt lat="47.52986" lon="-0.61001">
        <ele>63.1</ele>
        <time>2015-02-21T13:19:01Z</time>
      </trkpt>
      <trkpt lat="47.52984" lon="-0.61">
        <ele>63.1</ele>
        <time>2015-02-21T13:19:02Z</time>
      </trkpt>
      <trkpt lat="47.52981" lon="-0.60999">
        <ele>63.1</ele>
        <time>2015-02-21T13:19:03Z</time>
      </trkpt>
      <trkpt lat="47.5298" lon="-0.60997">
        <ele>63.58</ele>
        <time>2015-02-21T13:19:04Z</time>
      </trkpt>
      <trkpt lat="47.52976" lon="-0.60961">
        <ele>64.07</ele>
        <time>2015-02-21T13:19:14Z</time>
      </trkpt>
      <trkpt lat="47.52952" lon="-0.60925">
        <ele>65.03</ele>
        <time>2015-02-21T13:19:27Z</time>
      </trkpt>
      <trkpt lat="47.5294" lon="-0.60914">
        <ele>65.03</ele>
        <time>2015-02-21T13:19:32Z</time>
      </trkpt>
      <trkpt lat="47.52939" lon="-0.6091">
        <ele>65.03</ele>
        <time>2015-02-21T13:19:33Z</time>
      </trkpt>
      <trkpt lat="47.52939" lon="-0.60907">
        <ele>64.55</ele>
        <time>2015-02-21T13:19:34Z</time>
      </trkpt>
      <trkpt lat="47.5294" lon="-0.60902">
        <ele>64.55</ele>
        <time>2015-02-21T13:19:35Z</time>
      </trkpt>
      <trkpt lat="47.52941" lon="-0.60898">
        <ele>65.03</ele>
        <time>2015-02-21T13:19:36Z</time>
      </trkpt>
      <trkpt lat="47.52941" lon="-0.60893">
        <ele>64.55</ele>
        <time>2015-02-21T13:19:37Z</time>
      </trkpt>
      <trkpt lat="47.52941" lon="-0.60888">
        <ele>64.55</ele>
        <time>2015-02-21T13:19:38Z</time>
      </trkpt>
      <trkpt lat="47.52939" lon="-0.60883">
        <ele>64.55</ele>
        <time>2015-02-21T13:19:39Z</time>
      </trkpt>
      <trkpt lat="47.52937" lon="-0.60878">
        <ele>65.03</ele>
        <time>2015-02-21T13:19:40Z</time>
      </trkpt>
      <trkpt lat="47.52933" lon="-0.60874">
        <ele>64.55</ele>
        <time>2015-02-21T13:19:41Z</time>
      </trkpt>
      <trkpt lat="47.52928" lon="-0.6087">
        <ele>64.55</ele>
        <time>2015-02-21T13:19:42Z</time>
      </trkpt>
      <trkpt lat="47.52923" lon="-0.60867">
        <ele>64.07</ele>
        <time>2015-02-21T13:19:43Z</time>
      </trkpt>
      <trkpt lat="47.52905" lon="-0.60857">
        <ele>63.58</ele>
        <time>2015-02-21T13:19:47Z</time>
      </trkpt>
      <trkpt lat="47.52869" lon="-0.6084">
        <ele>63.1</ele>
        <time>2015-02-21T13:19:54Z</time>
      </trkpt>
      <trkpt lat="47.52864" lon="-0.6084">
        <ele>62.14</ele>
        <time>2015-02-21T13:19:55Z</time>
      </trkpt>
      <trkpt lat="47.52857" lon="-0.60839">
        <ele>62.14</ele>
        <time>2015-02-21T13:19:56Z</time>
      </trkpt>
      <trkpt lat="47.52851" lon="-0.60838">
        <ele>61.66</ele>
        <time>2015-02-21T13:19:57Z</time>
      </trkpt>
      <trkpt lat="47.52844" lon="-0.60836">
        <ele>61.18</ele>
        <time>2015-02-21T13:19:58Z</time>
      </trkpt>
      <trkpt lat="47.52838" lon="-0.60834">
        <ele>60.7</ele>
        <time>2015-02-21T13:19:59Z</time>
      </trkpt>
      <trkpt lat="47.52804" lon="-0.60822">
        <ele>59.74</ele>
        <time>2015-02-21T13:20:05Z</time>
      </trkpt>
      <trkpt lat="47.52799" lon="-0.6082">
        <ele>59.74</ele>
        <time>2015-02-21T13:20:06Z</time>
      </trkpt>
      <trkpt lat="47.5273" lon="-0.60793">
        <ele>57.82</ele>
        <time>2015-02-21T13:20:20Z</time>
      </trkpt>
      <trkpt lat="47.52697" lon="-0.60783">
        <ele>56.86</ele>
        <time>2015-02-21T13:20:26Z</time>
      </trkpt>
      <trkpt lat="47.52686" lon="-0.60779">
        <ele>56.37</ele>
        <time>2015-02-21T13:20:28Z</time>
      </trkpt>
      <trkpt lat="47.52681" lon="-0.60778">
        <ele>56.86</ele>
        <time>2015-02-21T13:20:29Z</time>
      </trkpt>
      <trkpt lat="47.52666" lon="-0.60774">
        <ele>56.37</ele>
        <time>2015-02-21T13:20:32Z</time>
      </trkpt>
      <trkpt lat="47.52598" lon="-0.60754">
        <ele>55.41</ele>
        <time>2015-02-21T13:20:47Z</time>
      </trkpt>
      <trkpt lat="47.52581" lon="-0.60753">
        <ele>55.41</ele>
        <time>2015-02-21T13:20:51Z</time>
      </trkpt>
      <trkpt lat="47.52536" lon="-0.60747">
        <ele>55.41</ele>
        <time>2015-02-21T13:21:02Z</time>
      </trkpt>
      <trkpt lat="47.52534" lon="-0.60743">
        <ele>55.41</ele>
        <time>2015-02-21T13:21:03Z</time>
      </trkpt>
      <trkpt lat="47.52532" lon="-0.60738">
        <ele>54.93</ele>
        <time>2015-02-21T13:21:04Z</time>
      </trkpt>
      <trkpt lat="47.5253" lon="-0.60733">
        <ele>55.41</ele>
        <time>2015-02-21T13:21:05Z</time>
      </trkpt>
      <trkpt lat="47.52529" lon="-0.60727">
        <ele>54.45</ele>
        <time>2015-02-21T13:21:06Z</time>
      </trkpt>
      <trkpt lat="47.52529" lon="-0.6072">
        <ele>54.45</ele>
        <time>2015-02-21T13:21:07Z</time>
      </trkpt>
      <trkpt lat="47.52527" lon="-0.60714">
        <ele>54.45</ele>
        <time>2015-02-21T13:21:08Z</time>
      </trkpt>
      <trkpt lat="47.5252" lon="-0.60684">
        <ele>54.45</ele>
        <time>2015-02-21T13:21:12Z</time>
      </trkpt>
      <trkpt lat="47.52514" lon="-0.60644">
        <ele>54.93</ele>
        <time>2015-02-21T13:21:17Z</time>
      </trkpt>
      <trkpt lat="47.52514" lon="-0.60636">
        <ele>54.45</ele>
        <time>2015-02-21T13:21:18Z</time>
      </trkpt>
      <trkpt lat="47.52513" lon="-0.60627">
        <ele>54.45</ele>
        <time>2015-02-21T13:21:19Z</time>
      </trkpt>
      <trkpt lat="47.52509" lon="-0.60578">
        <ele>54.93</ele>
        <time>2015-02-21T13:21:25Z</time>
      </trkpt>
      <trkpt lat="47.52507" lon="-0.60572">
        <ele>54.45</ele>
        <time>2015-02-21T13:21:26Z</time>
      </trkpt>
      <trkpt lat="47.52505" lon="-0.60565">
        <ele>54.93</ele>
        <time>2015-02-21T13:21:27Z</time>
      </trkpt>
      <trkpt lat="47.52504" lon="-0.60557">
        <ele>54.45</ele>
        <time>2015-02-21T13:21:28Z</time>
      </trkpt>
      <trkpt lat="47.52503" lon="-0.60549">
        <ele>54.45</ele>
        <time>2015-02-21T13:21:29Z</time>
      </trkpt>
      <trkpt lat="47.52502" lon="-0.60542">
        <ele>54.45</ele>
        <time>2015-02-21T13:21:30Z</time>
      </trkpt>
      <trkpt lat="47.52501" lon="-0.60534">
        <ele>54.45</ele>
        <time>2015-02-21T13:21:31Z</time>
      </trkpt>
      <trkpt lat="47.525" lon="-0.60526">
        <ele>54.45</ele>
        <time>2015-02-21T13:21:32Z</time>
      </trkpt>
      <trkpt lat="47.5246" lon="-0.60427">
        <ele>53.97</ele>
        <time>2015-02-21T13:21:46Z</time>
      </trkpt>
      <trkpt lat="47.52448" lon="-0.6041">
        <ele>53.49</ele>
        <time>2015-02-21T13:21:49Z</time>
      </trkpt>
      <trkpt lat="47.52443" lon="-0.60405">
        <ele>53.97</ele>
        <time>2015-02-21T13:21:50Z</time>
      </trkpt>
      <trkpt lat="47.52439" lon="-0.60399">
        <ele>53.49</ele>
        <time>2015-02-21T13:21:51Z</time>
      </trkpt>
      <trkpt lat="47.52436" lon="-0.60392">
        <ele>53.49</ele>
        <time>2015-02-21T13:21:52Z</time>
      </trkpt>
      <trkpt lat="47.52433" lon="-0.60385">
        <ele>53.01</ele>
        <time>2015-02-21T13:21:53Z</time>
      </trkpt>
      <trkpt lat="47.52429" lon="-0.60378">
        <ele>53.49</ele>
        <time>2015-02-21T13:21:54Z</time>
      </trkpt>
      <trkpt lat="47.52424" lon="-0.60371">
        <ele>53.01</ele>
        <time>2015-02-21T13:21:55Z</time>
      </trkpt>
      <trkpt lat="47.52379" lon="-0.60309">
        <ele>51.09</ele>
        <time>2015-02-21T13:22:04Z</time>
      </trkpt>
      <trkpt lat="47.52376" lon="-0.60303">
        <ele>50.61</ele>
        <time>2015-02-21T13:22:05Z</time>
      </trkpt>
      <trkpt lat="47.52373" lon="-0.60296">
        <ele>51.09</ele>
        <time>2015-02-21T13:22:06Z</time>
      </trkpt>
      <trkpt lat="47.5237" lon="-0.60288">
        <ele>50.61</ele>
        <time>2015-02-21T13:22:07Z</time>
      </trkpt>
      <trkpt lat="47.52366" lon="-0.60281">
        <ele>50.61</ele>
        <time>2015-02-21T13:22:08Z</time>
      </trkpt>
      <trkpt lat="47.52362" lon="-0.60275">
        <ele>50.61</ele>
        <time>2015-02-21T13:22:09Z</time>
      </trkpt>
      <trkpt lat="47.52357" lon="-0.60269">
        <ele>50.61</ele>
        <time>2015-02-21T13:22:10Z</time>
      </trkpt>
      <trkpt lat="47.52323" lon="-0.60216">
        <ele>48.68</ele>
        <time>2015-02-21T13:22:17Z</time>
      </trkpt>
      <trkpt lat="47.5232" lon="-0.60206">
        <ele>48.68</ele>
        <time>2015-02-21T13:22:18Z</time>
      </trkpt>
      <trkpt lat="47.523" lon="-0.6014">
        <ele>47.72</ele>
        <time>2015-02-21T13:22:25Z</time>
      </trkpt>
      <trkpt lat="47.52295" lon="-0.60133">
        <ele>48.2</ele>
        <time>2015-02-21T13:22:26Z</time>
      </trkpt>
      <trkpt lat="47.52291" lon="-0.60126">
        <ele>48.68</ele>
        <time>2015-02-21T13:22:27Z</time>
      </trkpt>
      <trkpt lat="47.52288" lon="-0.60118">
        <ele>48.2</ele>
        <time>2015-02-21T13:22:28Z</time>
      </trkpt>
      <trkpt lat="47.52285" lon="-0.60109">
        <ele>47.72</ele>
        <time>2015-02-21T13:22:29Z</time>
      </trkpt>
      <trkpt lat="47.52281" lon="-0.60101">
        <ele>48.68</ele>
        <time>2015-02-21T13:22:30Z</time>
      </trkpt>
      <trkpt lat="47.52278" lon="-0.60092">
        <ele>47.72</ele>
        <time>2015-02-21T13:22:31Z</time>
      </trkpt>
      <trkpt lat="47.52242" lon="-0.59977">
        <ele>47.24</ele>
        <time>2015-02-21T13:22:44Z</time>
      </trkpt>
      <trkpt lat="47.52239" lon="-0.59971">
        <ele>47.24</ele>
        <time>2015-02-21T13:22:45Z</time>
      </trkpt>
      <trkpt lat="47.52236" lon="-0.59964">
        <ele>46.76</ele>
        <time>2015-02-21T13:22:46Z</time>
      </trkpt>
      <trkpt lat="47.52232" lon="-0.59958">
        <ele>47.24</ele>
        <time>2015-02-21T13:22:47Z</time>
      </trkpt>
      <trkpt lat="47.52228" lon="-0.59952">
        <ele>47.24</ele>
        <time>2015-02-21T13:22:48Z</time>
      </trkpt>
      <trkpt lat="47.52188" lon="-0.59868">
        <ele>45.8</ele>
        <time>2015-02-21T13:23:00Z</time>
      </trkpt>
      <trkpt lat="47.52185" lon="-0.59858">
        <ele>45.8</ele>
        <time>2015-02-21T13:23:01Z</time>
      </trkpt>
      <trkpt lat="47.52183" lon="-0.59848">
        <ele>45.32</ele>
        <time>2015-02-21T13:23:02Z</time>
      </trkpt>
      <trkpt lat="47.5217" lon="-0.59812">
        <ele>43.88</ele>
        <time>2015-02-21T13:23:06Z</time>
      </trkpt>
      <trkpt lat="47.52165" lon="-0.59804">
        <ele>43.4</ele>
        <time>2015-02-21T13:23:07Z</time>
      </trkpt>
      <trkpt lat="47.52153" lon="-0.59788">
        <ele>42.44</ele>
        <time>2015-02-21T13:23:09Z</time>
      </trkpt>
      <trkpt lat="47.5214" lon="-0.59772">
        <ele>41.47</ele>
        <time>2015-02-21T13:23:11Z</time>
      </trkpt>
      <trkpt lat="47.5212" lon="-0.59748">
        <ele>40.03</ele>
        <time>2015-02-21T13:23:14Z</time>
      </trkpt>
      <trkpt lat="47.52063" lon="-0.59692">
        <ele>37.15</ele>
        <time>2015-02-21T13:23:22Z</time>
      </trkpt>
      <trkpt lat="47.52048" lon="-0.59676">
        <ele>36.19</ele>
        <time>2015-02-21T13:23:25Z</time>
      </trkpt>
      <trkpt lat="47.52031" lon="-0.59651">
        <ele>36.19</ele>
        <time>2015-02-21T13:23:29Z</time>
      </trkpt>
      <trkpt lat="47.52027" lon="-0.59643">
        <ele>36.19</ele>
        <time>2015-02-21T13:23:30Z</time>
      </trkpt>
      <trkpt lat="47.51993" lon="-0.59572">
        <ele>35.71</ele>
        <time>2015-02-21T13:23:40Z</time>
      </trkpt>
      <trkpt lat="47.51972" lon="-0.59547">
        <ele>34.74</ele>
        <time>2015-02-21T13:23:44Z</time>
      </trkpt>
      <trkpt lat="47.51968" lon="-0.59539">
        <ele>35.23</ele>
        <time>2015-02-21T13:23:45Z</time>
      </trkpt>
      <trkpt lat="47.51965" lon="-0.59531">
        <ele>35.23</ele>
        <time>2015-02-21T13:23:46Z</time>
      </trkpt>
      <trkpt lat="47.51959" lon="-0.59514">
        <ele>34.26</ele>
        <time>2015-02-21T13:23:48Z</time>
      </trkpt>
      <trkpt lat="47.51955" lon="-0.59506">
        <ele>34.74</ele>
        <time>2015-02-21T13:23:49Z</time>
      </trkpt>
      <trkpt lat="47.5195" lon="-0.59499">
        <ele>35.23</ele>
        <time>2015-02-21T13:23:50Z</time>
      </trkpt>
      <trkpt lat="47.51946" lon="-0.59493">
        <ele>35.23</ele>
        <time>2015-02-21T13:23:51Z</time>
      </trkpt>
      <trkpt lat="47.51941" lon="-0.59487">
        <ele>35.23</ele>
        <time>2015-02-21T13:23:52Z</time>
      </trkpt>
      <trkpt lat="47.51936" lon="-0.59481">
        <ele>35.23</ele>
        <time>2015-02-21T13:23:53Z</time>
      </trkpt>
      <trkpt lat="47.51877" lon="-0.59414">
        <ele>37.63</ele>
        <time>2015-02-21T13:24:07Z</time>
      </trkpt>
      <trkpt lat="47.51833" lon="-0.59352">
        <ele>39.55</ele>
        <time>2015-02-21T13:24:22Z</time>
      </trkpt>
      <trkpt lat="47.51806" lon="-0.5932">
        <ele>41.47</ele>
        <time>2015-02-21T13:24:32Z</time>
      </trkpt>
      <trkpt lat="47.51762" lon="-0.59271">
        <ele>44.84</ele>
        <time>2015-02-21T13:24:49Z</time>
      </trkpt>
      <trkpt lat="47.5172" lon="-0.59214">
        <ele>47.72</ele>
        <time>2015-02-21T13:25:06Z</time>
      </trkpt>
      <trkpt lat="47.51691" lon="-0.59167">
        <ele>49.65</ele>
        <time>2015-02-21T13:25:22Z</time>
      </trkpt>
      <trkpt lat="47.51663" lon="-0.59127">
        <ele>51.57</ele>
        <time>2015-02-21T13:25:36Z</time>
      </trkpt>
      <trkpt lat="47.51651" lon="-0.59073">
        <ele>52.05</ele>
        <time>2015-02-21T13:25:48Z</time>
      </trkpt>
      <trkpt lat="47.51641" lon="-0.59021">
        <ele>51.09</ele>
        <time>2015-02-21T13:25:57Z</time>
      </trkpt>
      <trkpt lat="47.5163" lon="-0.58984">
        <ele>51.09</ele>
        <time>2015-02-21T13:26:03Z</time>
      </trkpt>
      <trkpt lat="47.51628" lon="-0.58977">
        <ele>50.61</ele>
        <time>2015-02-21T13:26:04Z</time>
      </trkpt>
      <trkpt lat="47.51626" lon="-0.58962">
        <ele>50.61</ele>
        <time>2015-02-21T13:26:06Z</time>
      </trkpt>
      <trkpt lat="47.51621" lon="-0.5889">
        <ele>49.16</ele>
        <time>2015-02-21T13:26:15Z</time>
      </trkpt>
      <trkpt lat="47.51617" lon="-0.5886">
        <ele>48.68</ele>
        <time>2015-02-21T13:26:19Z</time>
      </trkpt>
      <trkpt lat="47.51616" lon="-0.58846">
        <ele>48.68</ele>
        <time>2015-02-21T13:26:21Z</time>
      </trkpt>
      <trkpt lat="47.51616" lon="-0.5881">
        <ele>48.2</ele>
        <time>2015-02-21T13:26:26Z</time>
      </trkpt>
      <trkpt lat="47.51614" lon="-0.58797">
        <ele>47.72</ele>
        <time>2015-02-21T13:26:28Z</time>
      </trkpt>
      <trkpt lat="47.51614" lon="-0.58791">
        <ele>47.72</ele>
        <time>2015-02-21T13:26:29Z</time>
      </trkpt>
      <trkpt lat="47.51614" lon="-0.58785">
        <ele>47.24</ele>
        <time>2015-02-21T13:26:30Z</time>
      </trkpt>
      <trkpt lat="47.51613" lon="-0.58772">
        <ele>47.24</ele>
        <time>2015-02-21T13:26:32Z</time>
      </trkpt>
      <trkpt lat="47.51613" lon="-0.58766">
        <ele>46.76</ele>
        <time>2015-02-21T13:26:33Z</time>
      </trkpt>
      <trkpt lat="47.51614" lon="-0.58758">
        <ele>46.28</ele>
        <time>2015-02-21T13:26:34Z</time>
      </trkpt>
      <trkpt lat="47.51613" lon="-0.5875">
        <ele>46.28</ele>
        <time>2015-02-21T13:26:35Z</time>
      </trkpt>
      <trkpt lat="47.51611" lon="-0.58744">
        <ele>45.8</ele>
        <time>2015-02-21T13:26:36Z</time>
      </trkpt>
      <trkpt lat="47.51608" lon="-0.58737">
        <ele>45.8</ele>
        <time>2015-02-21T13:26:37Z</time>
      </trkpt>
      <trkpt lat="47.51603" lon="-0.58731">
        <ele>45.8</ele>
        <time>2015-02-21T13:26:38Z</time>
      </trkpt>
      <trkpt lat="47.51599" lon="-0.58726">
        <ele>45.32</ele>
        <time>2015-02-21T13:26:39Z</time>
      </trkpt>
      <trkpt lat="47.51594" lon="-0.58722">
        <ele>46.28</ele>
        <time>2015-02-21T13:26:40Z</time>
      </trkpt>
      <trkpt lat="47.51589" lon="-0.58718">
        <ele>45.8</ele>
        <time>2015-02-21T13:26:41Z</time>
      </trkpt>
      <trkpt lat="47.51532" lon="-0.58676">
        <ele>44.84</ele>
        <time>2015-02-21T13:26:54Z</time>
      </trkpt>
      <trkpt lat="47.51527" lon="-0.58672">
        <ele>44.36</ele>
        <time>2015-02-21T13:26:55Z</time>
      </trkpt>
      <trkpt lat="47.5145" lon="-0.58622">
        <ele>42.92</ele>
        <time>2015-02-21T13:27:11Z</time>
      </trkpt>
      <trkpt lat="47.51446" lon="-0.58618">
        <ele>41.95</ele>
        <time>2015-02-21T13:27:12Z</time>
      </trkpt>
      <trkpt lat="47.51441" lon="-0.58612">
        <ele>42.44</ele>
        <time>2015-02-21T13:27:13Z</time>
      </trkpt>
      <trkpt lat="47.51438" lon="-0.58607">
        <ele>42.92</ele>
        <time>2015-02-21T13:27:14Z</time>
      </trkpt>
      <trkpt lat="47.51435" lon="-0.586">
        <ele>42.44</ele>
        <time>2015-02-21T13:27:15Z</time>
      </trkpt>
      <trkpt lat="47.514" lon="-0.58519">
        <ele>42.44</ele>
        <time>2015-02-21T13:27:29Z</time>
      </trkpt>
      <trkpt lat="47.51396" lon="-0.58489">
        <ele>42.44</ele>
        <time>2015-02-21T13:27:36Z</time>
      </trkpt>
      <trkpt lat="47.51365" lon="-0.58404">
        <ele>44.36</ele>
        <time>2015-02-21T13:27:50Z</time>
      </trkpt>
      <trkpt lat="47.51336" lon="-0.58351">
        <ele>47.72</ele>
        <time>2015-02-21T13:28:01Z</time>
      </trkpt>
      <trkpt lat="47.51301" lon="-0.58317">
        <ele>50.61</ele>
        <time>2015-02-21T13:28:14Z</time>
      </trkpt>
      <trkpt lat="47.51298" lon="-0.58315">
        <ele>51.09</ele>
        <time>2015-02-21T13:28:15Z</time>
      </trkpt>
      <trkpt lat="47.5126" lon="-0.58301">
        <ele>53.49</ele>
        <time>2015-02-21T13:28:30Z</time>
      </trkpt>
      <trkpt lat="47.51238" lon="-0.58294">
        <ele>55.89</ele>
        <time>2015-02-21T13:28:41Z</time>
      </trkpt>
      <trkpt lat="47.51236" lon="-0.58294">
        <ele>55.89</ele>
        <time>2015-02-21T13:28:42Z</time>
      </trkpt>
      <trkpt lat="47.51233" lon="-0.58293">
        <ele>55.89</ele>
        <time>2015-02-21T13:28:43Z</time>
      </trkpt>
      <trkpt lat="47.51231" lon="-0.58291">
        <ele>55.89</ele>
        <time>2015-02-21T13:28:44Z</time>
      </trkpt>
      <trkpt lat="47.51229" lon="-0.58289">
        <ele>56.37</ele>
        <time>2015-02-21T13:28:45Z</time>
      </trkpt>
      <trkpt lat="47.51226" lon="-0.58287">
        <ele>55.41</ele>
        <time>2015-02-21T13:28:46Z</time>
      </trkpt>
      <trkpt lat="47.51224" lon="-0.58285">
        <ele>56.37</ele>
        <time>2015-02-21T13:28:47Z</time>
      </trkpt>
      <trkpt lat="47.51222" lon="-0.58283">
        <ele>56.37</ele>
        <time>2015-02-21T13:28:48Z</time>
      </trkpt>
      <trkpt lat="47.5122" lon="-0.58282">
        <ele>56.37</ele>
        <time>2015-02-21T13:28:49Z</time>
      </trkpt>
      <trkpt lat="47.51185" lon="-0.58263">
        <ele>57.82</ele>
        <time>2015-02-21T13:29:03Z</time>
      </trkpt>
      <trkpt lat="47.51145" lon="-0.5826">
        <ele>60.22</ele>
        <time>2015-02-21T13:29:19Z</time>
      </trkpt>
      <trkpt lat="47.51106" lon="-0.58224">
        <ele>57.34</ele>
        <time>2015-02-21T13:29:29Z</time>
      </trkpt>
      <trkpt lat="47.51072" lon="-0.58203">
        <ele>56.37</ele>
        <time>2015-02-21T13:29:39Z</time>
      </trkpt>
      <trkpt lat="47.5107" lon="-0.58203">
        <ele>56.37</ele>
        <time>2015-02-21T13:29:41Z</time>
      </trkpt>
      <trkpt lat="47.51069" lon="-0.58202">
        <ele>56.37</ele>
        <time>2015-02-21T13:29:42Z</time>
      </trkpt>
      <trkpt lat="47.51067" lon="-0.58201">
        <ele>56.37</ele>
        <time>2015-02-21T13:29:43Z</time>
      </trkpt>
      <trkpt lat="47.51066" lon="-0.582">
        <ele>55.89</ele>
        <time>2015-02-21T13:29:44Z</time>
      </trkpt>
      <trkpt lat="47.51062" lon="-0.58197">
        <ele>55.89</ele>
        <time>2015-02-21T13:29:45Z</time>
      </trkpt>
      <trkpt lat="47.51058" lon="-0.58193">
        <ele>56.37</ele>
        <time>2015-02-21T13:29:46Z</time>
      </trkpt>
      <trkpt lat="47.51031" lon="-0.58169">
        <ele>54.93</ele>
        <time>2015-02-21T13:29:52Z</time>
      </trkpt>
      <trkpt lat="47.51026" lon="-0.58165">
        <ele>53.97</ele>
        <time>2015-02-21T13:29:53Z</time>
      </trkpt>
      <trkpt lat="47.51021" lon="-0.58163">
        <ele>53.97</ele>
        <time>2015-02-21T13:29:54Z</time>
      </trkpt>
      <trkpt lat="47.51017" lon="-0.58161">
        <ele>53.01</ele>
        <time>2015-02-21T13:29:55Z</time>
      </trkpt>
      <trkpt lat="47.51013" lon="-0.58159">
        <ele>52.53</ele>
        <time>2015-02-21T13:29:56Z</time>
      </trkpt>
      <trkpt lat="47.50967" lon="-0.58125">
        <ele>52.53</ele>
        <time>2015-02-21T13:30:09Z</time>
      </trkpt>
      <trkpt lat="47.50932" lon="-0.5811">
        <ele>51.09</ele>
        <time>2015-02-21T13:30:19Z</time>
      </trkpt>
      <trkpt lat="47.50894" lon="-0.58101">
        <ele>50.61</ele>
        <time>2015-02-21T13:30:29Z</time>
      </trkpt>
      <trkpt lat="47.50874" lon="-0.58124">
        <ele>53.01</ele>
        <time>2015-02-21T13:30:38Z</time>
      </trkpt>
      <trkpt lat="47.50854" lon="-0.58102">
        <ele>53.01</ele>
        <time>2015-02-21T13:30:46Z</time>
      </trkpt>
      <trkpt lat="47.50851" lon="-0.5808">
        <ele>52.05</ele>
        <time>2015-02-21T13:30:51Z</time>
      </trkpt>
      <trkpt lat="47.50852" lon="-0.58075">
        <ele>51.57</ele>
        <time>2015-02-21T13:30:52Z</time>
      </trkpt>
      <trkpt lat="47.50854" lon="-0.5807">
        <ele>51.09</ele>
        <time>2015-02-21T13:30:53Z</time>
      </trkpt>
      <trkpt lat="47.50857" lon="-0.58065">
        <ele>50.61</ele>
        <time>2015-02-21T13:30:54Z</time>
      </trkpt>
      <trkpt lat="47.50859" lon="-0.5806">
        <ele>50.13</ele>
        <time>2015-02-21T13:30:55Z</time>
      </trkpt>
      <trkpt lat="47.50861" lon="-0.58056">
        <ele>50.13</ele>
        <time>2015-02-21T13:30:56Z</time>
      </trkpt>
      <trkpt lat="47.50852" lon="-0.58042">
        <ele>48.68</ele>
        <time>2015-02-21T13:31:00Z</time>
      </trkpt>
      <trkpt lat="47.50848" lon="-0.58039">
        <ele>48.2</ele>
        <time>2015-02-21T13:31:02Z</time>
      </trkpt>
      <trkpt lat="47.50848" lon="-0.58035">
        <ele>48.2</ele>
        <time>2015-02-21T13:31:03Z</time>
      </trkpt>
      <trkpt lat="47.50849" lon="-0.5803">
        <ele>47.72</ele>
        <time>2015-02-21T13:31:04Z</time>
      </trkpt>
      <trkpt lat="47.5085" lon="-0.58024">
        <ele>47.24</ele>
        <time>2015-02-21T13:31:05Z</time>
      </trkpt>
      <trkpt lat="47.50853" lon="-0.58018">
        <ele>47.24</ele>
        <time>2015-02-21T13:31:06Z</time>
      </trkpt>
      <trkpt lat="47.50856" lon="-0.58011">
        <ele>46.76</ele>
        <time>2015-02-21T13:31:07Z</time>
      </trkpt>
      <trkpt lat="47.50871" lon="-0.57978">
        <ele>43.4</ele>
        <time>2015-02-21T13:31:11Z</time>
      </trkpt>
      <trkpt lat="47.50882" lon="-0.57953">
        <ele>41.47</ele>
        <time>2015-02-21T13:31:14Z</time>
      </trkpt>
      <trkpt lat="47.50883" lon="-0.57946">
        <ele>40.99</ele>
        <time>2015-02-21T13:31:15Z</time>
      </trkpt>
      <trkpt lat="47.50882" lon="-0.57939">
        <ele>40.03</ele>
        <time>2015-02-21T13:31:16Z</time>
      </trkpt>
      <trkpt lat="47.5088" lon="-0.57932">
        <ele>39.55</ele>
        <time>2015-02-21T13:31:17Z</time>
      </trkpt>
      <trkpt lat="47.50876" lon="-0.57926">
        <ele>39.07</ele>
        <time>2015-02-21T13:31:18Z</time>
      </trkpt>
      <trkpt lat="47.50871" lon="-0.5792">
        <ele>38.59</ele>
        <time>2015-02-21T13:31:19Z</time>
      </trkpt>
      <trkpt lat="47.50868" lon="-0.57913">
        <ele>38.59</ele>
        <time>2015-02-21T13:31:20Z</time>
      </trkpt>
      <trkpt lat="47.50865" lon="-0.57905">
        <ele>38.11</ele>
        <time>2015-02-21T13:31:21Z</time>
      </trkpt>
      <trkpt lat="47.50862" lon="-0.57896">
        <ele>38.11</ele>
        <time>2015-02-21T13:31:22Z</time>
      </trkpt>
      <trkpt lat="47.50856" lon="-0.57878">
        <ele>36.67</ele>
        <time>2015-02-21T13:31:24Z</time>
      </trkpt>
      <trkpt lat="47.50852" lon="-0.5787">
        <ele>36.19</ele>
        <time>2015-02-21T13:31:25Z</time>
      </trkpt>
      <trkpt lat="47.50834" lon="-0.57838">
        <ele>35.23</ele>
        <time>2015-02-21T13:31:29Z</time>
      </trkpt>
      <trkpt lat="47.5083" lon="-0.5783">
        <ele>35.23</ele>
        <time>2015-02-21T13:31:30Z</time>
      </trkpt>
      <trkpt lat="47.50767" lon="-0.57695">
        <ele>33.3</ele>
        <time>2015-02-21T13:31:45Z</time>
      </trkpt>
      <trkpt lat="47.50745" lon="-0.57645">
        <ele>33.78</ele>
        <time>2015-02-21T13:31:51Z</time>
      </trkpt>
      <trkpt lat="47.50742" lon="-0.57637">
        <ele>33.78</ele>
        <time>2015-02-21T13:31:52Z</time>
      </trkpt>
      <trkpt lat="47.50696" lon="-0.57542">
        <ele>33.3</ele>
        <time>2015-02-21T13:32:05Z</time>
      </trkpt>
      <trkpt lat="47.50675" lon="-0.575">
        <ele>33.3</ele>
        <time>2015-02-21T13:32:11Z</time>
      </trkpt>
      <trkpt lat="47.50671" lon="-0.57492">
        <ele>32.82</ele>
        <time>2015-02-21T13:32:12Z</time>
      </trkpt>
      <trkpt lat="47.50617" lon="-0.57374">
        <ele>31.86</ele>
        <time>2015-02-21T13:32:27Z</time>
      </trkpt>
      <trkpt lat="47.50552" lon="-0.57234">
        <ele>31.38</ele>
        <time>2015-02-21T13:32:45Z</time>
      </trkpt>
      <trkpt lat="47.5053" lon="-0.57188">
        <ele>32.34</ele>
        <time>2015-02-21T13:32:52Z</time>
      </trkpt>
      <trkpt lat="47.50527" lon="-0.57182">
        <ele>32.34</ele>
        <time>2015-02-21T13:32:53Z</time>
      </trkpt>
      <trkpt lat="47.50518" lon="-0.57167">
        <ele>32.82</ele>
        <time>2015-02-21T13:32:56Z</time>
      </trkpt>
      <trkpt lat="47.50514" lon="-0.57161">
        <ele>32.82</ele>
        <time>2015-02-21T13:32:57Z</time>
      </trkpt>
      <trkpt lat="47.5047" lon="-0.57064">
        <ele>32.82</ele>
        <time>2015-02-21T13:33:12Z</time>
      </trkpt>
      <trkpt lat="47.5046" lon="-0.57023">
        <ele>32.34</ele>
        <time>2015-02-21T13:33:22Z</time>
      </trkpt>
      <trkpt lat="47.50463" lon="-0.57018">
        <ele>31.86</ele>
        <time>2015-02-21T13:33:23Z</time>
      </trkpt>
      <trkpt lat="47.50467" lon="-0.57012">
        <ele>31.38</ele>
        <time>2015-02-21T13:33:24Z</time>
      </trkpt>
      <trkpt lat="47.5047" lon="-0.57007">
        <ele>31.38</ele>
        <time>2015-02-21T13:33:25Z</time>
      </trkpt>
      <trkpt lat="47.50473" lon="-0.56999">
        <ele>30.9</ele>
        <time>2015-02-21T13:33:26Z</time>
      </trkpt>
      <trkpt lat="47.50473" lon="-0.56993">
        <ele>30.42</ele>
        <time>2015-02-21T13:33:27Z</time>
      </trkpt>
      <trkpt lat="47.5047" lon="-0.56988">
        <ele>30.42</ele>
        <time>2015-02-21T13:33:28Z</time>
      </trkpt>
      <trkpt lat="47.50466" lon="-0.56985">
        <ele>30.42</ele>
        <time>2015-02-21T13:33:29Z</time>
      </trkpt>
      <trkpt lat="47.50462" lon="-0.56983">
        <ele>30.42</ele>
        <time>2015-02-21T13:33:30Z</time>
      </trkpt>
      <trkpt lat="47.50458" lon="-0.56982">
        <ele>30.42</ele>
        <time>2015-02-21T13:33:31Z</time>
      </trkpt>
      <trkpt lat="47.50454" lon="-0.5698">
        <ele>30.9</ele>
        <time>2015-02-21T13:33:32Z</time>
      </trkpt>
      <trkpt lat="47.5045" lon="-0.56977">
        <ele>31.38</ele>
        <time>2015-02-21T13:33:33Z</time>
      </trkpt>
      <trkpt lat="47.50411" lon="-0.56929">
        <ele>32.82</ele>
        <time>2015-02-21T13:33:46Z</time>
      </trkpt>
      <trkpt lat="47.5041" lon="-0.56922">
        <ele>32.82</ele>
        <time>2015-02-21T13:33:47Z</time>
      </trkpt>
      <trkpt lat="47.50408" lon="-0.56887">
        <ele>30.9</ele>
        <time>2015-02-21T13:33:51Z</time>
      </trkpt>
      <trkpt lat="47.50411" lon="-0.56869">
        <ele>29.94</ele>
        <time>2015-02-21T13:33:53Z</time>
      </trkpt>
      <trkpt lat="47.50422" lon="-0.56844">
        <ele>27.05</ele>
        <time>2015-02-21T13:33:56Z</time>
      </trkpt>
      <trkpt lat="47.50435" lon="-0.56821">
        <ele>27.05</ele>
        <time>2015-02-21T13:33:59Z</time>
      </trkpt>
      <trkpt lat="47.50461" lon="-0.56826">
        <ele>27.53</ele>
        <time>2015-02-21T13:34:05Z</time>
      </trkpt>
      <trkpt lat="47.50467" lon="-0.56838">
        <ele>27.53</ele>
        <time>2015-02-21T13:34:07Z</time>
      </trkpt>
      <trkpt lat="47.50498" lon="-0.56876">
        <ele>28.02</ele>
        <time>2015-02-21T13:34:15Z</time>
      </trkpt>
      <trkpt lat="47.50522" lon="-0.5689">
        <ele>28.02</ele>
        <time>2015-02-21T13:34:20Z</time>
      </trkpt>
      <trkpt lat="47.50546" lon="-0.56888">
        <ele>28.98</ele>
        <time>2015-02-21T13:34:26Z</time>
      </trkpt>
      <trkpt lat="47.5055" lon="-0.56883">
        <ele>28.5</ele>
        <time>2015-02-21T13:34:27Z</time>
      </trkpt>
      <trkpt lat="47.5057" lon="-0.56857">
        <ele>27.05</ele>
        <time>2015-02-21T13:34:31Z</time>
      </trkpt>
      <trkpt lat="47.5064" lon="-0.56764">
        <ele>24.65</ele>
        <time>2015-02-21T13:34:44Z</time>
      </trkpt>
      <trkpt lat="47.50643" lon="-0.56754">
        <ele>24.17</ele>
        <time>2015-02-21T13:34:45Z</time>
      </trkpt>
      <trkpt lat="47.50643" lon="-0.56744">
        <ele>24.17</ele>
        <time>2015-02-21T13:34:46Z</time>
      </trkpt>
      <trkpt lat="47.50642" lon="-0.56733">
        <ele>23.69</ele>
        <time>2015-02-21T13:34:47Z</time>
      </trkpt>
      <trkpt lat="47.50639" lon="-0.56723">
        <ele>24.17</ele>
        <time>2015-02-21T13:34:48Z</time>
      </trkpt>
      <trkpt lat="47.50636" lon="-0.56712">
        <ele>23.21</ele>
        <time>2015-02-21T13:34:49Z</time>
      </trkpt>
      <trkpt lat="47.50621" lon="-0.56654">
        <ele>23.21</ele>
        <time>2015-02-21T13:34:55Z</time>
      </trkpt>
      <trkpt lat="47.50621" lon="-0.56644">
        <ele>23.21</ele>
        <time>2015-02-21T13:34:56Z</time>
      </trkpt>
      <trkpt lat="47.50622" lon="-0.56635">
        <ele>22.73</ele>
        <time>2015-02-21T13:34:57Z</time>
      </trkpt>
      <trkpt lat="47.50624" lon="-0.56626">
        <ele>22.73</ele>
        <time>2015-02-21T13:34:58Z</time>
      </trkpt>
      <trkpt lat="47.50625" lon="-0.56618">
        <ele>23.21</ele>
        <time>2015-02-21T13:34:59Z</time>
      </trkpt>
      <trkpt lat="47.50627" lon="-0.56611">
        <ele>22.73</ele>
        <time>2015-02-21T13:35:00Z</time>
      </trkpt>
      <trkpt lat="47.50627" lon="-0.56603">
        <ele>22.73</ele>
        <time>2015-02-21T13:35:01Z</time>
      </trkpt>
      <trkpt lat="47.50627" lon="-0.56595">
        <ele>22.25</ele>
        <time>2015-02-21T13:35:02Z</time>
      </trkpt>
      <trkpt lat="47.50626" lon="-0.56588">
        <ele>21.77</ele>
        <time>2015-02-21T13:35:03Z</time>
      </trkpt>
      <trkpt lat="47.50624" lon="-0.56582">
        <ele>21.77</ele>
        <time>2015-02-21T13:35:04Z</time>
      </trkpt>
      <trkpt lat="47.50621" lon="-0.5656">
        <ele>21.77</ele>
        <time>2015-02-21T13:35:07Z</time>
      </trkpt>
      <trkpt lat="47.50619" lon="-0.56553">
        <ele>21.77</ele>
        <time>2015-02-21T13:35:08Z</time>
      </trkpt>
      <trkpt lat="47.50617" lon="-0.56545">
        <ele>21.29</ele>
        <time>2015-02-21T13:35:09Z</time>
      </trkpt>
      <trkpt lat="47.50613" lon="-0.56538">
        <ele>22.25</ele>
        <time>2015-02-21T13:35:10Z</time>
      </trkpt>
      <trkpt lat="47.50609" lon="-0.56531">
        <ele>21.77</ele>
        <time>2015-02-21T13:35:11Z</time>
      </trkpt>
      <trkpt lat="47.50605" lon="-0.56525">
        <ele>21.77</ele>
        <time>2015-02-21T13:35:12Z</time>
      </trkpt>
      <trkpt lat="47.50601" lon="-0.56519">
        <ele>21.29</ele>
        <time>2015-02-21T13:35:13Z</time>
      </trkpt>
      <trkpt lat="47.50596" lon="-0.56514">
        <ele>21.77</ele>
        <time>2015-02-21T13:35:14Z</time>
      </trkpt>
      <trkpt lat="47.50502" lon="-0.56407">
        <ele>21.29</ele>
        <time>2015-02-21T13:35:33Z</time>
      </trkpt>
      <trkpt lat="47.50429" lon="-0.5633">
        <ele>21.29</ele>
        <time>2015-02-21T13:35:49Z</time>
      </trkpt>
      <trkpt lat="47.50427" lon="-0.56324">
        <ele>21.29</ele>
        <time>2015-02-21T13:35:50Z</time>
      </trkpt>
      <trkpt lat="47.50427" lon="-0.56318">
        <ele>21.29</ele>
        <time>2015-02-21T13:35:51Z</time>
      </trkpt>
      <trkpt lat="47.50429" lon="-0.56313">
        <ele>21.77</ele>
        <time>2015-02-21T13:35:52Z</time>
      </trkpt>
      <trkpt lat="47.50433" lon="-0.5631">
        <ele>20.81</ele>
        <time>2015-02-21T13:35:53Z</time>
      </trkpt>
      <trkpt lat="47.50437" lon="-0.56308">
        <ele>21.29</ele>
        <time>2015-02-21T13:35:54Z</time>
      </trkpt>
      <trkpt lat="47.5044" lon="-0.56304">
        <ele>21.29</ele>
        <time>2015-02-21T13:35:55Z</time>
      </trkpt>
      <trkpt lat="47.50443" lon="-0.563">
        <ele>21.29</ele>
        <time>2015-02-21T13:35:56Z</time>
      </trkpt>
      <trkpt lat="47.50446" lon="-0.56296">
        <ele>21.77</ele>
        <time>2015-02-21T13:35:57Z</time>
      </trkpt>
      <trkpt lat="47.50465" lon="-0.56272">
        <ele>21.29</ele>
        <time>2015-02-21T13:36:03Z</time>
      </trkpt>
      <trkpt lat="47.50473" lon="-0.56262">
        <ele>21.29</ele>
        <time>2015-02-21T13:36:06Z</time>
      </trkpt>
      <trkpt lat="47.50475" lon="-0.56259">
        <ele>20.81</ele>
        <time>2015-02-21T13:36:07Z</time>
      </trkpt>
      <trkpt lat="47.50475" lon="-0.56255">
        <ele>21.29</ele>
        <time>2015-02-21T13:36:08Z</time>
      </trkpt>
      <trkpt lat="47.50474" lon="-0.56252">
        <ele>21.29</ele>
        <time>2015-02-21T13:36:09Z</time>
      </trkpt>
      <trkpt lat="47.50473" lon="-0.56248">
        <ele>21.29</ele>
        <time>2015-02-21T13:36:10Z</time>
      </trkpt>
      <trkpt lat="47.5047" lon="-0.56245">
        <ele>21.29</ele>
        <time>2015-02-21T13:36:11Z</time>
      </trkpt>
      <trkpt lat="47.50468" lon="-0.56242">
        <ele>21.29</ele>
        <time>2015-02-21T13:36:12Z</time>
      </trkpt>
      <trkpt lat="47.50465" lon="-0.56239">
        <ele>21.77</ele>
        <time>2015-02-21T13:36:13Z</time>
      </trkpt>
      <trkpt lat="47.50462" lon="-0.56235">
        <ele>21.29</ele>
        <time>2015-02-21T13:36:14Z</time>
      </trkpt>
      <trkpt lat="47.50459" lon="-0.56232">
        <ele>21.77</ele>
        <time>2015-02-21T13:36:15Z</time>
      </trkpt>
      <trkpt lat="47.50448" lon="-0.56221">
        <ele>22.25</ele>
        <time>2015-02-21T13:36:18Z</time>
      </trkpt>
      <trkpt lat="47.5038" lon="-0.56137">
        <ele>21.29</ele>
        <time>2015-02-21T13:36:36Z</time>
      </trkpt>
      <trkpt lat="47.5037" lon="-0.56121">
        <ele>21.77</ele>
        <time>2015-02-21T13:36:39Z</time>
      </trkpt>
      <trkpt lat="47.50367" lon="-0.56114">
        <ele>21.77</ele>
        <time>2015-02-21T13:36:40Z</time>
      </trkpt>
      <trkpt lat="47.50366" lon="-0.56107">
        <ele>21.77</ele>
        <time>2015-02-21T13:36:41Z</time>
      </trkpt>
      <trkpt lat="47.50363" lon="-0.56093">
        <ele>21.77</ele>
        <time>2015-02-21T13:36:43Z</time>
      </trkpt>
      <trkpt lat="47.50358" lon="-0.56081">
        <ele>21.29</ele>
        <time>2015-02-21T13:36:45Z</time>
      </trkpt>
      <trkpt lat="47.50343" lon="-0.56052">
        <ele>21.29</ele>
        <time>2015-02-21T13:36:50Z</time>
      </trkpt>
      <trkpt lat="47.5034" lon="-0.56047">
        <ele>21.29</ele>
        <time>2015-02-21T13:36:51Z</time>
      </trkpt>
      <trkpt lat="47.50332" lon="-0.56038">
        <ele>20.81</ele>
        <time>2015-02-21T13:36:53Z</time>
      </trkpt>
      <trkpt lat="47.50328" lon="-0.56035">
        <ele>21.29</ele>
        <time>2015-02-21T13:36:54Z</time>
      </trkpt>
      <trkpt lat="47.50324" lon="-0.56034">
        <ele>21.29</ele>
        <time>2015-02-21T13:36:55Z</time>
      </trkpt>
      <trkpt lat="47.5032" lon="-0.56036">
        <ele>21.29</ele>
        <time>2015-02-21T13:36:56Z</time>
      </trkpt>
      <trkpt lat="47.50316" lon="-0.56039">
        <ele>21.29</ele>
        <time>2015-02-21T13:36:57Z</time>
      </trkpt>
      <trkpt lat="47.50314" lon="-0.56043">
        <ele>21.77</ele>
        <time>2015-02-21T13:36:58Z</time>
      </trkpt>
      <trkpt lat="47.50311" lon="-0.56047">
        <ele>21.77</ele>
        <time>2015-02-21T13:36:59Z</time>
      </trkpt>
      <trkpt lat="47.50308" lon="-0.56051">
        <ele>21.77</ele>
        <time>2015-02-21T13:37:00Z</time>
      </trkpt>
      <trkpt lat="47.50304" lon="-0.56052">
        <ele>21.77</ele>
        <time>2015-02-21T13:37:01Z</time>
      </trkpt>
      <trkpt lat="47.503" lon="-0.5605">
        <ele>21.29</ele>
        <time>2015-02-21T13:37:02Z</time>
      </trkpt>
      <trkpt lat="47.50296" lon="-0.56047">
        <ele>21.29</ele>
        <time>2015-02-21T13:37:03Z</time>
      </trkpt>
      <trkpt lat="47.50294" lon="-0.56041">
        <ele>21.29</ele>
        <time>2015-02-21T13:37:04Z</time>
      </trkpt>
      <trkpt lat="47.50293" lon="-0.56034">
        <ele>21.29</ele>
        <time>2015-02-21T13:37:05Z</time>
      </trkpt>
      <trkpt lat="47.50291" lon="-0.56028">
        <ele>21.29</ele>
        <time>2015-02-21T13:37:06Z</time>
      </trkpt>
      <trkpt lat="47.5029" lon="-0.56021">
        <ele>21.29</ele>
        <time>2015-02-21T13:37:07Z</time>
      </trkpt>
      <trkpt lat="47.50287" lon="-0.56016">
        <ele>21.29</ele>
        <time>2015-02-21T13:37:08Z</time>
      </trkpt>
      <trkpt lat="47.50284" lon="-0.56011">
        <ele>21.29</ele>
        <time>2015-02-21T13:37:09Z</time>
      </trkpt>
      <trkpt lat="47.5028" lon="-0.56007">
        <ele>21.29</ele>
        <time>2015-02-21T13:37:10Z</time>
      </trkpt>
      <trkpt lat="47.50277" lon="-0.56004">
        <ele>21.29</ele>
        <time>2015-02-21T13:37:11Z</time>
      </trkpt>
      <trkpt lat="47.50273" lon="-0.55999">
        <ele>21.77</ele>
        <time>2015-02-21T13:37:12Z</time>
      </trkpt>
      <trkpt lat="47.50269" lon="-0.55996">
        <ele>22.25</ele>
        <time>2015-02-21T13:37:13Z</time>
      </trkpt>
      <trkpt lat="47.50265" lon="-0.55992">
        <ele>22.25</ele>
        <time>2015-02-21T13:37:14Z</time>
      </trkpt>
      <trkpt lat="47.50185" lon="-0.55908">
        <ele>21.77</ele>
        <time>2015-02-21T13:37:32Z</time>
      </trkpt>
      <trkpt lat="47.50175" lon="-0.55889">
        <ele>21.77</ele>
        <time>2015-02-21T13:37:35Z</time>
      </trkpt>
      <trkpt lat="47.50162" lon="-0.55854">
        <ele>21.29</ele>
        <time>2015-02-21T13:37:40Z</time>
      </trkpt>
      <trkpt lat="47.5016" lon="-0.55847">
        <ele>21.77</ele>
        <time>2015-02-21T13:37:41Z</time>
      </trkpt>
      <trkpt lat="47.5014" lon="-0.55718">
        <ele>21.29</ele>
        <time>2015-02-21T13:37:57Z</time>
      </trkpt>
      <trkpt lat="47.50139" lon="-0.55702">
        <ele>21.29</ele>
        <time>2015-02-21T13:37:59Z</time>
      </trkpt>
      <trkpt lat="47.5014" lon="-0.55694">
        <ele>21.77</ele>
        <time>2015-02-21T13:38:00Z</time>
      </trkpt>
      <trkpt lat="47.50141" lon="-0.55686">
        <ele>21.77</ele>
        <time>2015-02-21T13:38:01Z</time>
      </trkpt>
      <trkpt lat="47.50147" lon="-0.55663">
        <ele>21.77</ele>
        <time>2015-02-21T13:38:04Z</time>
      </trkpt>
      <trkpt lat="47.50161" lon="-0.55628">
        <ele>21.77</ele>
        <time>2015-02-21T13:38:09Z</time>
      </trkpt>
      <trkpt lat="47.50165" lon="-0.55622">
        <ele>21.77</ele>
        <time>2015-02-21T13:38:10Z</time>
      </trkpt>
      <trkpt lat="47.50195" lon="-0.55572">
        <ele>21.29</ele>
        <time>2015-02-21T13:38:19Z</time>
      </trkpt>
      <trkpt lat="47.50198" lon="-0.55565">
        <ele>21.29</ele>
        <time>2015-02-21T13:38:20Z</time>
      </trkpt>
      <trkpt lat="47.50199" lon="-0.55557">
        <ele>21.77</ele>
        <time>2015-02-21T13:38:21Z</time>
      </trkpt>
      <trkpt lat="47.50199" lon="-0.55549">
        <ele>21.29</ele>
        <time>2015-02-21T13:38:22Z</time>
      </trkpt>
      <trkpt lat="47.50199" lon="-0.55541">
        <ele>21.29</ele>
        <time>2015-02-21T13:38:23Z</time>
      </trkpt>
      <trkpt lat="47.50199" lon="-0.55534">
        <ele>21.29</ele>
        <time>2015-02-21T13:38:24Z</time>
      </trkpt>
      <trkpt lat="47.50199" lon="-0.55527">
        <ele>20.81</ele>
        <time>2015-02-21T13:38:25Z</time>
      </trkpt>
      <trkpt lat="47.50198" lon="-0.5552">
        <ele>21.29</ele>
        <time>2015-02-21T13:38:26Z</time>
      </trkpt>
      <trkpt lat="47.50196" lon="-0.55513">
        <ele>21.29</ele>
        <time>2015-02-21T13:38:27Z</time>
      </trkpt>
      <trkpt lat="47.50192" lon="-0.55508">
        <ele>20.81</ele>
        <time>2015-02-21T13:38:28Z</time>
      </trkpt>
      <trkpt lat="47.50187" lon="-0.55503">
        <ele>21.77</ele>
        <time>2015-02-21T13:38:29Z</time>
      </trkpt>
      <trkpt lat="47.50182" lon="-0.555">
        <ele>21.29</ele>
        <time>2015-02-21T13:38:30Z</time>
      </trkpt>
      <trkpt lat="47.50177" lon="-0.55497">
        <ele>21.29</ele>
        <time>2015-02-21T13:38:31Z</time>
      </trkpt>
      <trkpt lat="47.50171" lon="-0.55494">
        <ele>21.29</ele>
        <time>2015-02-21T13:38:32Z</time>
      </trkpt>
      <trkpt lat="47.50166" lon="-0.55491">
        <ele>20.81</ele>
        <time>2015-02-21T13:38:33Z</time>
      </trkpt>
      <trkpt lat="47.50077" lon="-0.55428">
        <ele>20.81</ele>
        <time>2015-02-21T13:38:51Z</time>
      </trkpt>
      <trkpt lat="47.50054" lon="-0.55406">
        <ele>21.29</ele>
        <time>2015-02-21T13:38:56Z</time>
      </trkpt>
      <trkpt lat="47.5005" lon="-0.554">
        <ele>21.77</ele>
        <time>2015-02-21T13:38:57Z</time>
      </trkpt>
      <trkpt lat="47.50047" lon="-0.55394">
        <ele>21.77</ele>
        <time>2015-02-21T13:38:58Z</time>
      </trkpt>
      <trkpt lat="47.50044" lon="-0.55388">
        <ele>21.29</ele>
        <time>2015-02-21T13:38:59Z</time>
      </trkpt>
      <trkpt lat="47.50042" lon="-0.55381">
        <ele>22.25</ele>
        <time>2015-02-21T13:39:00Z</time>
      </trkpt>
      <trkpt lat="47.50026" lon="-0.55314">
        <ele>21.77</ele>
        <time>2015-02-21T13:39:09Z</time>
      </trkpt>
      <trkpt lat="47.50023" lon="-0.55307">
        <ele>21.29</ele>
        <time>2015-02-21T13:39:10Z</time>
      </trkpt>
      <trkpt lat="47.5002" lon="-0.55301">
        <ele>21.29</ele>
        <time>2015-02-21T13:39:11Z</time>
      </trkpt>
      <trkpt lat="47.49986" lon="-0.55217">
        <ele>21.77</ele>
        <time>2015-02-21T13:39:24Z</time>
      </trkpt>
      <trkpt lat="47.4997" lon="-0.55108">
        <ele>21.29</ele>
        <time>2015-02-21T13:39:38Z</time>
      </trkpt>
      <trkpt lat="47.49968" lon="-0.551">
        <ele>21.29</ele>
        <time>2015-02-21T13:39:39Z</time>
      </trkpt>
      <trkpt lat="47.49965" lon="-0.55093">
        <ele>20.81</ele>
        <time>2015-02-21T13:39:40Z</time>
      </trkpt>
      <trkpt lat="47.49951" lon="-0.55058">
        <ele>21.29</ele>
        <time>2015-02-21T13:39:45Z</time>
      </trkpt>
      <trkpt lat="47.49948" lon="-0.55051">
        <ele>20.81</ele>
        <time>2015-02-21T13:39:46Z</time>
      </trkpt>
      <trkpt lat="47.49913" lon="-0.54998">
        <ele>21.29</ele>
        <time>2015-02-21T13:39:55Z</time>
      </trkpt>
      <trkpt lat="47.49909" lon="-0.54993">
        <ele>21.29</ele>
        <time>2015-02-21T13:39:56Z</time>
      </trkpt>
      <trkpt lat="47.49853" lon="-0.54904">
        <ele>21.29</ele>
        <time>2015-02-21T13:40:11Z</time>
      </trkpt>
      <trkpt lat="47.49813" lon="-0.54809">
        <ele>20.32</ele>
        <time>2015-02-21T13:40:25Z</time>
      </trkpt>
      <trkpt lat="47.49805" lon="-0.54788">
        <ele>21.29</ele>
        <time>2015-02-21T13:40:28Z</time>
      </trkpt>
      <trkpt lat="47.49801" lon="-0.54782">
        <ele>21.29</ele>
        <time>2015-02-21T13:40:29Z</time>
      </trkpt>
      <trkpt lat="47.49774" lon="-0.54745">
        <ele>21.29</ele>
        <time>2015-02-21T13:40:36Z</time>
      </trkpt>
      <trkpt lat="47.49769" lon="-0.54741">
        <ele>21.77</ele>
        <time>2015-02-21T13:40:37Z</time>
      </trkpt>
      <trkpt lat="47.49765" lon="-0.54738">
        <ele>21.29</ele>
        <time>2015-02-21T13:40:38Z</time>
      </trkpt>
      <trkpt lat="47.49711" lon="-0.54703">
        <ele>20.32</ele>
        <time>2015-02-21T13:40:49Z</time>
      </trkpt>
      <trkpt lat="47.49642" lon="-0.54631">
        <ele>20.81</ele>
        <time>2015-02-21T13:41:05Z</time>
      </trkpt>
      <trkpt lat="47.49585" lon="-0.54552">
        <ele>21.77</ele>
        <time>2015-02-21T13:41:20Z</time>
      </trkpt>
      <trkpt lat="47.49569" lon="-0.5453">
        <ele>21.29</ele>
        <time>2015-02-21T13:41:24Z</time>
      </trkpt>
      <trkpt lat="47.49501" lon="-0.54467">
        <ele>20.32</ele>
        <time>2015-02-21T13:41:39Z</time>
      </trkpt>
      <trkpt lat="47.49493" lon="-0.54458">
        <ele>20.32</ele>
        <time>2015-02-21T13:41:41Z</time>
      </trkpt>
      <trkpt lat="47.49489" lon="-0.54454">
        <ele>20.32</ele>
        <time>2015-02-21T13:41:42Z</time>
      </trkpt>
      <trkpt lat="47.49485" lon="-0.54451">
        <ele>20.32</ele>
        <time>2015-02-21T13:41:43Z</time>
      </trkpt>
      <trkpt lat="47.4948" lon="-0.54447">
        <ele>20.81</ele>
        <time>2015-02-21T13:41:44Z</time>
      </trkpt>
      <trkpt lat="47.49476" lon="-0.54442">
        <ele>20.81</ele>
        <time>2015-02-21T13:41:45Z</time>
      </trkpt>
      <trkpt lat="47.49382" lon="-0.54367">
        <ele>19.84</ele>
        <time>2015-02-21T13:42:05Z</time>
      </trkpt>
      <trkpt lat="47.49367" lon="-0.54359">
        <ele>20.81</ele>
        <time>2015-02-21T13:42:08Z</time>
      </trkpt>
      <trkpt lat="47.49362" lon="-0.54356">
        <ele>20.32</ele>
        <time>2015-02-21T13:42:09Z</time>
      </trkpt>
      <trkpt lat="47.49354" lon="-0.54351">
        <ele>19.84</ele>
        <time>2015-02-21T13:42:11Z</time>
      </trkpt>
      <trkpt lat="47.4935" lon="-0.5435">
        <ele>20.32</ele>
        <time>2015-02-21T13:42:12Z</time>
      </trkpt>
      <trkpt lat="47.49346" lon="-0.54348">
        <ele>19.84</ele>
        <time>2015-02-21T13:42:13Z</time>
      </trkpt>
      <trkpt lat="47.49309" lon="-0.54346">
        <ele>20.32</ele>
        <time>2015-02-21T13:42:23Z</time>
      </trkpt>
      <trkpt lat="47.49269" lon="-0.54365">
        <ele>21.29</ele>
        <time>2015-02-21T13:42:34Z</time>
      </trkpt>
      <trkpt lat="47.49246" lon="-0.54405">
        <ele>21.77</ele>
        <time>2015-02-21T13:42:44Z</time>
      </trkpt>
      <trkpt lat="47.492" lon="-0.54471">
        <ele>20.81</ele>
        <time>2015-02-21T13:42:58Z</time>
      </trkpt>
      <trkpt lat="47.49196" lon="-0.54476">
        <ele>20.81</ele>
        <time>2015-02-21T13:42:59Z</time>
      </trkpt>
      <trkpt lat="47.49193" lon="-0.54481">
        <ele>20.81</ele>
        <time>2015-02-21T13:43:00Z</time>
      </trkpt>
      <trkpt lat="47.49154" lon="-0.54526">
        <ele>20.32</ele>
        <time>2015-02-21T13:43:12Z</time>
      </trkpt>
      <trkpt lat="47.49148" lon="-0.54534">
        <ele>20.32</ele>
        <time>2015-02-21T13:43:14Z</time>
      </trkpt>
      <trkpt lat="47.49098" lon="-0.54603">
        <ele>20.32</ele>
        <time>2015-02-21T13:43:29Z</time>
      </trkpt>
      <trkpt lat="47.49058" lon="-0.54663">
        <ele>19.84</ele>
        <time>2015-02-21T13:43:42Z</time>
      </trkpt>
      <trkpt lat="47.49053" lon="-0.54672">
        <ele>20.81</ele>
        <time>2015-02-21T13:43:44Z</time>
      </trkpt>
      <trkpt lat="47.49018" lon="-0.54714">
        <ele>20.32</ele>
        <time>2015-02-21T13:43:54Z</time>
      </trkpt>
      <trkpt lat="47.49014" lon="-0.54716">
        <ele>20.81</ele>
        <time>2015-02-21T13:43:55Z</time>
      </trkpt>
      <trkpt lat="47.49009" lon="-0.54718">
        <ele>21.29</ele>
        <time>2015-02-21T13:43:56Z</time>
      </trkpt>
      <trkpt lat="47.49001" lon="-0.54724">
        <ele>21.29</ele>
        <time>2015-02-21T13:43:58Z</time>
      </trkpt>
      <trkpt lat="47.48961" lon="-0.54753">
        <ele>21.29</ele>
        <time>2015-02-21T13:44:09Z</time>
      </trkpt>
      <trkpt lat="47.48945" lon="-0.54764">
        <ele>21.77</ele>
        <time>2015-02-21T13:44:13Z</time>
      </trkpt>
      <trkpt lat="47.48941" lon="-0.54767">
        <ele>21.77</ele>
        <time>2015-02-21T13:44:14Z</time>
      </trkpt>
      <trkpt lat="47.48885" lon="-0.54807">
        <ele>23.21</ele>
        <time>2015-02-21T13:44:29Z</time>
      </trkpt>
      <trkpt lat="47.48882" lon="-0.5481">
        <ele>22.73</ele>
        <time>2015-02-21T13:44:30Z</time>
      </trkpt>
      <trkpt lat="47.48878" lon="-0.54812">
        <ele>22.73</ele>
        <time>2015-02-21T13:44:31Z</time>
      </trkpt>
      <trkpt lat="47.4884" lon="-0.54836">
        <ele>22.73</ele>
        <time>2015-02-21T13:44:42Z</time>
      </trkpt>
      <trkpt lat="47.48833" lon="-0.54842">
        <ele>23.69</ele>
        <time>2015-02-21T13:44:44Z</time>
      </trkpt>
      <trkpt lat="47.48784" lon="-0.54884">
        <ele>23.21</ele>
        <time>2015-02-21T13:44:58Z</time>
      </trkpt>
      <trkpt lat="47.48732" lon="-0.54933">
        <ele>22.73</ele>
        <time>2015-02-21T13:45:12Z</time>
      </trkpt>
      <trkpt lat="47.48671" lon="-0.54982">
        <ele>22.73</ele>
        <time>2015-02-21T13:45:27Z</time>
      </trkpt>
      <trkpt lat="47.48664" lon="-0.54988">
        <ele>22.73</ele>
        <time>2015-02-21T13:45:29Z</time>
      </trkpt>
      <trkpt lat="47.4866" lon="-0.54991">
        <ele>22.73</ele>
        <time>2015-02-21T13:45:30Z</time>
      </trkpt>
      <trkpt lat="47.48657" lon="-0.54993">
        <ele>22.73</ele>
        <time>2015-02-21T13:45:31Z</time>
      </trkpt>
      <trkpt lat="47.4862" lon="-0.55026">
        <ele>22.73</ele>
        <time>2015-02-21T13:45:41Z</time>
      </trkpt>
      <trkpt lat="47.48616" lon="-0.5503">
        <ele>22.25</ele>
        <time>2015-02-21T13:45:42Z</time>
      </trkpt>
      <trkpt lat="47.486" lon="-0.55043">
        <ele>22.73</ele>
        <time>2015-02-21T13:45:46Z</time>
      </trkpt>
      <trkpt lat="47.48596" lon="-0.55047">
        <ele>22.73</ele>
        <time>2015-02-21T13:45:47Z</time>
      </trkpt>
      <trkpt lat="47.48592" lon="-0.55051">
        <ele>22.25</ele>
        <time>2015-02-21T13:45:48Z</time>
      </trkpt>
      <trkpt lat="47.48588" lon="-0.55054">
        <ele>22.25</ele>
        <time>2015-02-21T13:45:49Z</time>
      </trkpt>
      <trkpt lat="47.48584" lon="-0.55057">
        <ele>22.73</ele>
        <time>2015-02-21T13:45:50Z</time>
      </trkpt>
      <trkpt lat="47.4858" lon="-0.5506">
        <ele>22.25</ele>
        <time>2015-02-21T13:45:51Z</time>
      </trkpt>
      <trkpt lat="47.48568" lon="-0.55071">
        <ele>22.25</ele>
        <time>2015-02-21T13:45:54Z</time>
      </trkpt>
      <trkpt lat="47.48518" lon="-0.55112">
        <ele>22.25</ele>
        <time>2015-02-21T13:46:08Z</time>
      </trkpt>
      <trkpt lat="47.48457" lon="-0.55151">
        <ele>23.21</ele>
        <time>2015-02-21T13:46:24Z</time>
      </trkpt>
      <trkpt lat="47.48429" lon="-0.5517">
        <ele>24.17</ele>
        <time>2015-02-21T13:46:31Z</time>
      </trkpt>
      <trkpt lat="47.48374" lon="-0.55212">
        <ele>24.17</ele>
        <time>2015-02-21T13:46:44Z</time>
      </trkpt>
      <trkpt lat="47.48323" lon="-0.55243">
        <ele>23.69</ele>
        <time>2015-02-21T13:46:55Z</time>
      </trkpt>
      <trkpt lat="47.48255" lon="-0.55283">
        <ele>24.65</ele>
        <time>2015-02-21T13:47:11Z</time>
      </trkpt>
      <trkpt lat="47.48209" lon="-0.55317">
        <ele>24.65</ele>
        <time>2015-02-21T13:47:25Z</time>
      </trkpt>
      <trkpt lat="47.48157" lon="-0.55363">
        <ele>25.61</ele>
        <time>2015-02-21T13:47:40Z</time>
      </trkpt>
      <trkpt lat="47.48138" lon="-0.55376">
        <ele>26.09</ele>
        <time>2015-02-21T13:47:46Z</time>
      </trkpt>
      <trkpt lat="47.48135" lon="-0.55376">
        <ele>25.61</ele>
        <time>2015-02-21T13:47:47Z</time>
      </trkpt>
      <trkpt lat="47.48133" lon="-0.55377">
        <ele>25.61</ele>
        <time>2015-02-21T13:47:48Z</time>
      </trkpt>
      <trkpt lat="47.4813" lon="-0.5538">
        <ele>26.09</ele>
        <time>2015-02-21T13:47:49Z</time>
      </trkpt>
      <trkpt lat="47.48128" lon="-0.55383">
        <ele>26.57</ele>
        <time>2015-02-21T13:47:50Z</time>
      </trkpt>
      <trkpt lat="47.48125" lon="-0.55387">
        <ele>26.57</ele>
        <time>2015-02-21T13:47:51Z</time>
      </trkpt>
      <trkpt lat="47.48122" lon="-0.55389">
        <ele>25.61</ele>
        <time>2015-02-21T13:47:52Z</time>
      </trkpt>
      <trkpt lat="47.48118" lon="-0.55392">
        <ele>26.09</ele>
        <time>2015-02-21T13:47:53Z</time>
      </trkpt>
      <trkpt lat="47.48115" lon="-0.55393">
        <ele>26.09</ele>
        <time>2015-02-21T13:47:54Z</time>
      </trkpt>
      <trkpt lat="47.48111" lon="-0.55393">
        <ele>26.09</ele>
        <time>2015-02-21T13:47:55Z</time>
      </trkpt>
      <trkpt lat="47.48107" lon="-0.55392">
        <ele>26.09</ele>
        <time>2015-02-21T13:47:56Z</time>
      </trkpt>
      <trkpt lat="47.48077" lon="-0.55403">
        <ele>26.57</ele>
        <time>2015-02-21T13:48:08Z</time>
      </trkpt>
      <trkpt lat="47.4807" lon="-0.55409">
        <ele>26.09</ele>
        <time>2015-02-21T13:48:10Z</time>
      </trkpt>
      <trkpt lat="47.48067" lon="-0.55413">
        <ele>26.57</ele>
        <time>2015-02-21T13:48:11Z</time>
      </trkpt>
      <trkpt lat="47.48063" lon="-0.55425">
        <ele>26.09</ele>
        <time>2015-02-21T13:48:13Z</time>
      </trkpt>
      <trkpt lat="47.48061" lon="-0.5543">
        <ele>26.57</ele>
        <time>2015-02-21T13:48:14Z</time>
      </trkpt>
      <trkpt lat="47.48058" lon="-0.55435">
        <ele>25.61</ele>
        <time>2015-02-21T13:48:15Z</time>
      </trkpt>
      <trkpt lat="47.48054" lon="-0.55438">
        <ele>26.09</ele>
        <time>2015-02-21T13:48:16Z</time>
      </trkpt>
      <trkpt lat="47.4805" lon="-0.55441">
        <ele>26.09</ele>
        <time>2015-02-21T13:48:17Z</time>
      </trkpt>
      <trkpt lat="47.48046" lon="-0.55443">
        <ele>26.09</ele>
        <time>2015-02-21T13:48:18Z</time>
      </trkpt>
      <trkpt lat="47.4803" lon="-0.55456">
        <ele>26.09</ele>
        <time>2015-02-21T13:48:22Z</time>
      </trkpt>
      <trkpt lat="47.48028" lon="-0.55461">
        <ele>25.13</ele>
        <time>2015-02-21T13:48:23Z</time>
      </trkpt>
      <trkpt lat="47.48025" lon="-0.55466">
        <ele>26.09</ele>
        <time>2015-02-21T13:48:24Z</time>
      </trkpt>
      <trkpt lat="47.48022" lon="-0.55469">
        <ele>25.61</ele>
        <time>2015-02-21T13:48:25Z</time>
      </trkpt>
      <trkpt lat="47.48018" lon="-0.55472">
        <ele>25.61</ele>
        <time>2015-02-21T13:48:26Z</time>
      </trkpt>
      <trkpt lat="47.48014" lon="-0.55476">
        <ele>24.65</ele>
        <time>2015-02-21T13:48:27Z</time>
      </trkpt>
      <trkpt lat="47.47965" lon="-0.55526">
        <ele>25.61</ele>
        <time>2015-02-21T13:48:41Z</time>
      </trkpt>
      <trkpt lat="47.47946" lon="-0.55542">
        <ele>25.61</ele>
        <time>2015-02-21T13:48:47Z</time>
      </trkpt>
      <trkpt lat="47.47943" lon="-0.5554">
        <ele>25.61</ele>
        <time>2015-02-21T13:48:48Z</time>
      </trkpt>
      <trkpt lat="47.47941" lon="-0.55536">
        <ele>25.13</ele>
        <time>2015-02-21T13:48:49Z</time>
      </trkpt>
      <trkpt lat="47.47939" lon="-0.55531">
        <ele>25.13</ele>
        <time>2015-02-21T13:48:50Z</time>
      </trkpt>
      <trkpt lat="47.47936" lon="-0.55526">
        <ele>25.13</ele>
        <time>2015-02-21T13:48:51Z</time>
      </trkpt>
      <trkpt lat="47.47932" lon="-0.55522">
        <ele>25.13</ele>
        <time>2015-02-21T13:48:52Z</time>
      </trkpt>
      <trkpt lat="47.47928" lon="-0.55519">
        <ele>24.65</ele>
        <time>2015-02-21T13:48:53Z</time>
      </trkpt>
      <trkpt lat="47.47924" lon="-0.55516">
        <ele>24.65</ele>
        <time>2015-02-21T13:48:54Z</time>
      </trkpt>
      <trkpt lat="47.4792" lon="-0.55514">
        <ele>24.65</ele>
        <time>2015-02-21T13:48:55Z</time>
      </trkpt>
      <trkpt lat="47.47915" lon="-0.55512">
        <ele>24.65</ele>
        <time>2015-02-21T13:48:56Z</time>
      </trkpt>
      <trkpt lat="47.47906" lon="-0.55509">
        <ele>24.65</ele>
        <time>2015-02-21T13:48:58Z</time>
      </trkpt>
      <trkpt lat="47.47902" lon="-0.55509">
        <ele>24.65</ele>
        <time>2015-02-21T13:48:59Z</time>
      </trkpt>
      <trkpt lat="47.47851" lon="-0.55529">
        <ele>25.13</ele>
        <time>2015-02-21T13:49:10Z</time>
      </trkpt>
      <trkpt lat="47.47846" lon="-0.55529">
        <ele>25.13</ele>
        <time>2015-02-21T13:49:11Z</time>
      </trkpt>
      <trkpt lat="47.47841" lon="-0.55529">
        <ele>25.61</ele>
        <time>2015-02-21T13:49:12Z</time>
      </trkpt>
      <trkpt lat="47.47837" lon="-0.5553">
        <ele>26.09</ele>
        <time>2015-02-21T13:49:13Z</time>
      </trkpt>
      <trkpt lat="47.47833" lon="-0.55532">
        <ele>26.09</ele>
        <time>2015-02-21T13:49:14Z</time>
      </trkpt>
      <trkpt lat="47.47829" lon="-0.55539">
        <ele>27.53</ele>
        <time>2015-02-21T13:49:21Z</time>
      </trkpt>
      <trkpt lat="47.47825" lon="-0.55544">
        <ele>28.02</ele>
        <time>2015-02-21T13:49:34Z</time>
      </trkpt>
      <trkpt lat="47.47824" lon="-0.55552">
        <ele>28.02</ele>
        <time>2015-02-21T13:49:44Z</time>
      </trkpt>
      <trkpt lat="47.47821" lon="-0.55554">
        <ele>28.5</ele>
        <time>2015-02-21T13:49:47Z</time>
      </trkpt>
      <trkpt lat="47.47819" lon="-0.55553">
        <ele>28.02</ele>
        <time>2015-02-21T13:49:48Z</time>
      </trkpt>
      <trkpt lat="47.47816" lon="-0.55552">
        <ele>27.53</ele>
        <time>2015-02-21T13:49:49Z</time>
      </trkpt>
      <trkpt lat="47.47813" lon="-0.55553">
        <ele>27.53</ele>
        <time>2015-02-21T13:49:50Z</time>
      </trkpt>
      <trkpt lat="47.4781" lon="-0.55554">
        <ele>28.02</ele>
        <time>2015-02-21T13:49:51Z</time>
      </trkpt>
      <trkpt lat="47.47806" lon="-0.55556">
        <ele>27.53</ele>
        <time>2015-02-21T13:49:52Z</time>
      </trkpt>
      <trkpt lat="47.47803" lon="-0.55559">
        <ele>27.53</ele>
        <time>2015-02-21T13:49:53Z</time>
      </trkpt>
      <trkpt lat="47.47752" lon="-0.55591">
        <ele>24.17</ele>
        <time>2015-02-21T13:50:03Z</time>
      </trkpt>
      <trkpt lat="47.4772" lon="-0.55603">
        <ele>23.21</ele>
        <time>2015-02-21T13:50:08Z</time>
      </trkpt>
      <trkpt lat="47.47688" lon="-0.55618">
        <ele>22.73</ele>
        <time>2015-02-21T13:50:13Z</time>
      </trkpt>
      <trkpt lat="47.47577" lon="-0.55697">
        <ele>22.25</ele>
        <time>2015-02-21T13:50:34Z</time>
      </trkpt>
      <trkpt lat="47.47492" lon="-0.55754">
        <ele>22.25</ele>
        <time>2015-02-21T13:50:51Z</time>
      </trkpt>
      <trkpt lat="47.47475" lon="-0.5578">
        <ele>22.73</ele>
        <time>2015-02-21T13:50:56Z</time>
      </trkpt>
      <trkpt lat="47.47472" lon="-0.55784">
        <ele>22.73</ele>
        <time>2015-02-21T13:50:57Z</time>
      </trkpt>
      <trkpt lat="47.47469" lon="-0.55788">
        <ele>23.21</ele>
        <time>2015-02-21T13:50:58Z</time>
      </trkpt>
      <trkpt lat="47.47465" lon="-0.5579">
        <ele>23.21</ele>
        <time>2015-02-21T13:50:59Z</time>
      </trkpt>
      <trkpt lat="47.47462" lon="-0.55793">
        <ele>23.69</ele>
        <time>2015-02-21T13:51:00Z</time>
      </trkpt>
      <trkpt lat="47.47426" lon="-0.5582">
        <ele>26.09</ele>
        <time>2015-02-21T13:51:12Z</time>
      </trkpt>
      <trkpt lat="47.47401" lon="-0.55845">
        <ele>27.05</ele>
        <time>2015-02-21T13:51:21Z</time>
      </trkpt>
      <trkpt lat="47.47399" lon="-0.55849">
        <ele>26.57</ele>
        <time>2015-02-21T13:51:22Z</time>
      </trkpt>
      <trkpt lat="47.47397" lon="-0.55853">
        <ele>26.57</ele>
        <time>2015-02-21T13:51:23Z</time>
      </trkpt>
      <trkpt lat="47.47394" lon="-0.55857">
        <ele>27.05</ele>
        <time>2015-02-21T13:51:24Z</time>
      </trkpt>
      <trkpt lat="47.47391" lon="-0.5586">
        <ele>27.05</ele>
        <time>2015-02-21T13:51:25Z</time>
      </trkpt>
      <trkpt lat="47.47359" lon="-0.559">
        <ele>26.57</ele>
        <time>2015-02-21T13:51:39Z</time>
      </trkpt>
      <trkpt lat="47.47354" lon="-0.55907">
        <ele>26.57</ele>
        <time>2015-02-21T13:51:41Z</time>
      </trkpt>
      <trkpt lat="47.47303" lon="-0.55989">
        <ele>26.09</ele>
        <time>2015-02-21T13:51:59Z</time>
      </trkpt>
      <trkpt lat="47.47256" lon="-0.56073">
        <ele>25.61</ele>
        <time>2015-02-21T13:52:15Z</time>
      </trkpt>
      <trkpt lat="47.47246" lon="-0.56088">
        <ele>25.61</ele>
        <time>2015-02-21T13:52:18Z</time>
      </trkpt>
      <trkpt lat="47.47243" lon="-0.56128">
        <ele>25.61</ele>
        <time>2015-02-21T13:52:25Z</time>
      </trkpt>
      <trkpt lat="47.47243" lon="-0.56136">
        <ele>25.61</ele>
        <time>2015-02-21T13:52:27Z</time>
      </trkpt>
      <trkpt lat="47.47278" lon="-0.56189">
        <ele>25.61</ele>
        <time>2015-02-21T13:52:40Z</time>
      </trkpt>
      <trkpt lat="47.4728" lon="-0.56194">
        <ele>25.13</ele>
        <time>2015-02-21T13:52:41Z</time>
      </trkpt>
      <trkpt lat="47.4728" lon="-0.562">
        <ele>25.13</ele>
        <time>2015-02-21T13:52:42Z</time>
      </trkpt>
      <trkpt lat="47.47278" lon="-0.56205">
        <ele>24.65</ele>
        <time>2015-02-21T13:52:43Z</time>
      </trkpt>
      <trkpt lat="47.47275" lon="-0.5621">
        <ele>24.65</ele>
        <time>2015-02-21T13:52:44Z</time>
      </trkpt>
      <trkpt lat="47.47272" lon="-0.56216">
        <ele>24.65</ele>
        <time>2015-02-21T13:52:45Z</time>
      </trkpt>
      <trkpt lat="47.47266" lon="-0.56228">
        <ele>24.17</ele>
        <time>2015-02-21T13:52:47Z</time>
      </trkpt>
      <trkpt lat="47.47262" lon="-0.56232">
        <ele>24.17</ele>
        <time>2015-02-21T13:52:48Z</time>
      </trkpt>
      <trkpt lat="47.47198" lon="-0.56317">
        <ele>24.17</ele>
        <time>2015-02-21T13:53:05Z</time>
      </trkpt>
      <trkpt lat="47.47144" lon="-0.56386">
        <ele>24.17</ele>
        <time>2015-02-21T13:53:20Z</time>
      </trkpt>
      <trkpt lat="47.47141" lon="-0.56384">
        <ele>24.17</ele>
        <time>2015-02-21T13:53:21Z</time>
      </trkpt>
      <trkpt lat="47.47134" lon="-0.56375">
        <ele>23.69</ele>
        <time>2015-02-21T13:53:23Z</time>
      </trkpt>
      <trkpt lat="47.4713" lon="-0.56373">
        <ele>23.69</ele>
        <time>2015-02-21T13:53:24Z</time>
      </trkpt>
      <trkpt lat="47.47125" lon="-0.56374">
        <ele>24.17</ele>
        <time>2015-02-21T13:53:25Z</time>
      </trkpt>
      <trkpt lat="47.47122" lon="-0.56378">
        <ele>23.69</ele>
        <time>2015-02-21T13:53:26Z</time>
      </trkpt>
      <trkpt lat="47.4712" lon="-0.56381">
        <ele>23.69</ele>
        <time>2015-02-21T13:53:27Z</time>
      </trkpt>
      <trkpt lat="47.47118" lon="-0.56384">
        <ele>23.21</ele>
        <time>2015-02-21T13:53:28Z</time>
      </trkpt>
      <trkpt lat="47.47116" lon="-0.56385">
        <ele>23.21</ele>
        <time>2015-02-21T13:53:29Z</time>
      </trkpt>
      <trkpt lat="47.47114" lon="-0.56384">
        <ele>22.73</ele>
        <time>2015-02-21T13:53:30Z</time>
      </trkpt>
      <trkpt lat="47.47112" lon="-0.56382">
        <ele>22.73</ele>
        <time>2015-02-21T13:53:31Z</time>
      </trkpt>
      <trkpt lat="47.47108" lon="-0.56374">
        <ele>22.25</ele>
        <time>2015-02-21T13:53:42Z</time>
      </trkpt>
      <trkpt lat="47.47109" lon="-0.56371">
        <ele>22.25</ele>
        <time>2015-02-21T13:53:51Z</time>
      </trkpt>
      <trkpt lat="47.47135" lon="-0.56373">
        <ele>22.73</ele>
        <time>2015-02-21T13:54:02Z</time>
      </trkpt>
      <trkpt lat="47.47148" lon="-0.56382">
        <ele>23.21</ele>
        <time>2015-02-21T13:54:08Z</time>
      </trkpt>
      <trkpt lat="47.4715" lon="-0.5638">
        <ele>23.21</ele>
        <time>2015-02-21T13:54:09Z</time>
      </trkpt>
      <trkpt lat="47.47164" lon="-0.56364">
        <ele>23.21</ele>
        <time>2015-02-21T13:54:17Z</time>
      </trkpt>
      <trkpt lat="47.47168" lon="-0.56367">
        <ele>24.17</ele>
        <time>2015-02-21T13:54:26Z</time>
      </trkpt>
      <trkpt lat="47.47171" lon="-0.5637">
        <ele>25.61</ele>
        <time>2015-02-21T13:54:31Z</time>
      </trkpt>
      <trkpt lat="47.47177" lon="-0.56386">
        <ele>27.53</ele>
        <time>2015-02-21T13:54:44Z</time>
      </trkpt>
      <trkpt lat="47.47161" lon="-0.5642">
        <ele>27.53</ele>
        <time>2015-02-21T13:54:56Z</time>
      </trkpt>
      <trkpt lat="47.47154" lon="-0.56451">
        <ele>27.05</ele>
        <time>2015-02-21T13:55:03Z</time>
      </trkpt>
      <trkpt lat="47.47152" lon="-0.56458">
        <ele>27.05</ele>
        <time>2015-02-21T13:55:05Z</time>
      </trkpt>
      <trkpt lat="47.47121" lon="-0.56502">
        <ele>27.53</ele>
        <time>2015-02-21T13:55:16Z</time>
      </trkpt>
      <trkpt lat="47.47079" lon="-0.56561">
        <ele>27.05</ele>
        <time>2015-02-21T13:55:31Z</time>
      </trkpt>
      <trkpt lat="47.47056" lon="-0.56578">
        <ele>27.53</ele>
        <time>2015-02-21T13:55:39Z</time>
      </trkpt>
      <trkpt lat="47.47019" lon="-0.56629">
        <ele>28.02</ele>
        <time>2015-02-21T13:55:53Z</time>
      </trkpt>
      <trkpt lat="47.4699" lon="-0.56708">
        <ele>28.5</ele>
        <time>2015-02-21T13:56:08Z</time>
      </trkpt>
      <trkpt lat="47.46986" lon="-0.56731">
        <ele>28.5</ele>
        <time>2015-02-21T13:56:12Z</time>
      </trkpt>
      <trkpt lat="47.46984" lon="-0.56756">
        <ele>28.02</ele>
        <time>2015-02-21T13:56:16Z</time>
      </trkpt>
      <trkpt lat="47.46996" lon="-0.56855">
        <ele>28.98</ele>
        <time>2015-02-21T13:56:32Z</time>
      </trkpt>
      <trkpt lat="47.47002" lon="-0.56883">
        <ele>28.02</ele>
        <time>2015-02-21T13:56:37Z</time>
      </trkpt>
      <trkpt lat="47.47003" lon="-0.56889">
        <ele>28.02</ele>
        <time>2015-02-21T13:56:38Z</time>
      </trkpt>
      <trkpt lat="47.47003" lon="-0.56895">
        <ele>28.02</ele>
        <time>2015-02-21T13:56:39Z</time>
      </trkpt>
      <trkpt lat="47.4698" lon="-0.56917">
        <ele>27.53</ele>
        <time>2015-02-21T13:56:45Z</time>
      </trkpt>
      <trkpt lat="47.46951" lon="-0.56945">
        <ele>25.13</ele>
        <time>2015-02-21T13:56:51Z</time>
      </trkpt>
      <trkpt lat="47.46883" lon="-0.57028">
        <ele>24.17</ele>
        <time>2015-02-21T13:57:05Z</time>
      </trkpt>
      <trkpt lat="47.46811" lon="-0.57119">
        <ele>24.17</ele>
        <time>2015-02-21T13:57:20Z</time>
      </trkpt>
      <trkpt lat="47.46744" lon="-0.57211">
        <ele>23.69</ele>
        <time>2015-02-21T13:57:36Z</time>
      </trkpt>
      <trkpt lat="47.46707" lon="-0.57269">
        <ele>23.69</ele>
        <time>2015-02-21T13:57:46Z</time>
      </trkpt>
      <trkpt lat="47.46703" lon="-0.57275">
        <ele>23.69</ele>
        <time>2015-02-21T13:57:47Z</time>
      </trkpt>
      <trkpt lat="47.467" lon="-0.5728">
        <ele>23.69</ele>
        <time>2015-02-21T13:57:48Z</time>
      </trkpt>
      <trkpt lat="47.46676" lon="-0.57309">
        <ele>23.69</ele>
        <time>2015-02-21T13:57:54Z</time>
      </trkpt>
      <trkpt lat="47.46661" lon="-0.57329">
        <ele>23.21</ele>
        <time>2015-02-21T13:57:58Z</time>
      </trkpt>
      <trkpt lat="47.46657" lon="-0.57334">
        <ele>23.21</ele>
        <time>2015-02-21T13:57:59Z</time>
      </trkpt>
      <trkpt lat="47.46626" lon="-0.57373">
        <ele>22.73</ele>
        <time>2015-02-21T13:58:07Z</time>
      </trkpt>
      <trkpt lat="47.46612" lon="-0.57387">
        <ele>23.21</ele>
        <time>2015-02-21T13:58:11Z</time>
      </trkpt>
      <trkpt lat="47.46573" lon="-0.57433">
        <ele>22.73</ele>
        <time>2015-02-21T13:58:22Z</time>
      </trkpt>
      <trkpt lat="47.46537" lon="-0.57476">
        <ele>22.73</ele>
        <time>2015-02-21T13:58:32Z</time>
      </trkpt>
      <trkpt lat="47.46533" lon="-0.57482">
        <ele>23.21</ele>
        <time>2015-02-21T13:58:33Z</time>
      </trkpt>
      <trkpt lat="47.46529" lon="-0.57486">
        <ele>23.21</ele>
        <time>2015-02-21T13:58:34Z</time>
      </trkpt>
      <trkpt lat="47.46525" lon="-0.57489">
        <ele>23.69</ele>
        <time>2015-02-21T13:58:35Z</time>
      </trkpt>
      <trkpt lat="47.46521" lon="-0.57493">
        <ele>24.17</ele>
        <time>2015-02-21T13:58:36Z</time>
      </trkpt>
      <trkpt lat="47.46518" lon="-0.57497">
        <ele>24.17</ele>
        <time>2015-02-21T13:58:37Z</time>
      </trkpt>
      <trkpt lat="47.46515" lon="-0.57501">
        <ele>23.21</ele>
        <time>2015-02-21T13:58:38Z</time>
      </trkpt>
      <trkpt lat="47.46512" lon="-0.57505">
        <ele>23.69</ele>
        <time>2015-02-21T13:58:39Z</time>
      </trkpt>
      <trkpt lat="47.46508" lon="-0.57509">
        <ele>23.69</ele>
        <time>2015-02-21T13:58:40Z</time>
      </trkpt>
      <trkpt lat="47.46505" lon="-0.57513">
        <ele>24.17</ele>
        <time>2015-02-21T13:58:41Z</time>
      </trkpt>
      <trkpt lat="47.46479" lon="-0.57533">
        <ele>24.17</ele>
        <time>2015-02-21T13:58:47Z</time>
      </trkpt>
      <trkpt lat="47.46451" lon="-0.57561">
        <ele>24.65</ele>
        <time>2015-02-21T13:58:53Z</time>
      </trkpt>
      <trkpt lat="47.46401" lon="-0.57611">
        <ele>23.21</ele>
        <time>2015-02-21T13:59:06Z</time>
      </trkpt>
      <trkpt lat="47.46323" lon="-0.57672">
        <ele>23.69</ele>
        <time>2015-02-21T13:59:23Z</time>
      </trkpt>
      <trkpt lat="47.46289" lon="-0.57695">
        <ele>23.21</ele>
        <time>2015-02-21T13:59:30Z</time>
      </trkpt>
      <trkpt lat="47.46279" lon="-0.577">
        <ele>23.69</ele>
        <time>2015-02-21T13:59:32Z</time>
      </trkpt>
      <trkpt lat="47.46274" lon="-0.57703">
        <ele>23.21</ele>
        <time>2015-02-21T13:59:33Z</time>
      </trkpt>
      <trkpt lat="47.4627" lon="-0.57707">
        <ele>23.21</ele>
        <time>2015-02-21T13:59:34Z</time>
      </trkpt>
      <trkpt lat="47.46266" lon="-0.57713">
        <ele>23.69</ele>
        <time>2015-02-21T13:59:35Z</time>
      </trkpt>
      <trkpt lat="47.46261" lon="-0.57718">
        <ele>23.69</ele>
        <time>2015-02-21T13:59:36Z</time>
      </trkpt>
      <trkpt lat="47.46256" lon="-0.57723">
        <ele>23.69</ele>
        <time>2015-02-21T13:59:37Z</time>
      </trkpt>
      <trkpt lat="47.4625" lon="-0.57726">
        <ele>23.69</ele>
        <time>2015-02-21T13:59:38Z</time>
      </trkpt>
      <trkpt lat="47.46244" lon="-0.57729">
        <ele>23.21</ele>
        <time>2015-02-21T13:59:39Z</time>
      </trkpt>
      <trkpt lat="47.46238" lon="-0.57729">
        <ele>22.73</ele>
        <time>2015-02-21T13:59:40Z</time>
      </trkpt>
      <trkpt lat="47.46232" lon="-0.57729">
        <ele>23.21</ele>
        <time>2015-02-21T13:59:41Z</time>
      </trkpt>
      <trkpt lat="47.46226" lon="-0.5773">
        <ele>23.69</ele>
        <time>2015-02-21T13:59:42Z</time>
      </trkpt>
      <trkpt lat="47.46221" lon="-0.57731">
        <ele>23.21</ele>
        <time>2015-02-21T13:59:43Z</time>
      </trkpt>
      <trkpt lat="47.46145" lon="-0.57764">
        <ele>23.69</ele>
        <time>2015-02-21T13:59:57Z</time>
      </trkpt>
      <trkpt lat="47.46102" lon="-0.57784">
        <ele>23.21</ele>
        <time>2015-02-21T14:00:05Z</time>
      </trkpt>
      <trkpt lat="47.46097" lon="-0.57786">
        <ele>23.21</ele>
        <time>2015-02-21T14:00:06Z</time>
      </trkpt>
      <trkpt lat="47.4603" lon="-0.57826">
        <ele>24.17</ele>
        <time>2015-02-21T14:00:19Z</time>
      </trkpt>
      <trkpt lat="47.45994" lon="-0.57852">
        <ele>23.21</ele>
        <time>2015-02-21T14:00:27Z</time>
      </trkpt>
      <trkpt lat="47.45991" lon="-0.57855">
        <ele>23.69</ele>
        <time>2015-02-21T14:00:28Z</time>
      </trkpt>
      <trkpt lat="47.45987" lon="-0.57857">
        <ele>23.69</ele>
        <time>2015-02-21T14:00:29Z</time>
      </trkpt>
      <trkpt lat="47.45984" lon="-0.57858">
        <ele>23.69</ele>
        <time>2015-02-21T14:00:30Z</time>
      </trkpt>
      <trkpt lat="47.4598" lon="-0.5786">
        <ele>23.69</ele>
        <time>2015-02-21T14:00:31Z</time>
      </trkpt>
      <trkpt lat="47.45975" lon="-0.57862">
        <ele>23.69</ele>
        <time>2015-02-21T14:00:32Z</time>
      </trkpt>
      <trkpt lat="47.45971" lon="-0.57865">
        <ele>23.69</ele>
        <time>2015-02-21T14:00:33Z</time>
      </trkpt>
      <trkpt lat="47.45967" lon="-0.57867">
        <ele>23.69</ele>
        <time>2015-02-21T14:00:34Z</time>
      </trkpt>
      <trkpt lat="47.45962" lon="-0.57871">
        <ele>23.69</ele>
        <time>2015-02-21T14:00:35Z</time>
      </trkpt>
      <trkpt lat="47.45905" lon="-0.57911">
        <ele>23.69</ele>
        <time>2015-02-21T14:00:47Z</time>
      </trkpt>
      <trkpt lat="47.4583" lon="-0.57963">
        <ele>24.17</ele>
        <time>2015-02-21T14:01:01Z</time>
      </trkpt>
      <trkpt lat="47.45817" lon="-0.57971">
        <ele>23.69</ele>
        <time>2015-02-21T14:01:03Z</time>
      </trkpt>
      <trkpt lat="47.45742" lon="-0.58023">
        <ele>23.69</ele>
        <time>2015-02-21T14:01:17Z</time>
      </trkpt>
      <trkpt lat="47.45724" lon="-0.58038">
        <ele>23.69</ele>
        <time>2015-02-21T14:01:21Z</time>
      </trkpt>
      <trkpt lat="47.45703" lon="-0.58053">
        <ele>23.69</ele>
        <time>2015-02-21T14:01:25Z</time>
      </trkpt>
      <trkpt lat="47.45693" lon="-0.58059">
        <ele>23.69</ele>
        <time>2015-02-21T14:01:27Z</time>
      </trkpt>
      <trkpt lat="47.45617" lon="-0.58121">
        <ele>23.69</ele>
        <time>2015-02-21T14:01:42Z</time>
      </trkpt>
      <trkpt lat="47.45587" lon="-0.58148">
        <ele>23.69</ele>
        <time>2015-02-21T14:01:48Z</time>
      </trkpt>
      <trkpt lat="47.45528" lon="-0.5821">
        <ele>23.21</ele>
        <time>2015-02-21T14:02:00Z</time>
      </trkpt>
      <trkpt lat="47.45471" lon="-0.58287">
        <ele>24.65</ele>
        <time>2015-02-21T14:02:14Z</time>
      </trkpt>
      <trkpt lat="47.45427" lon="-0.58355">
        <ele>24.65</ele>
        <time>2015-02-21T14:02:26Z</time>
      </trkpt>
      <trkpt lat="47.45392" lon="-0.58418">
        <ele>24.17</ele>
        <time>2015-02-21T14:02:37Z</time>
      </trkpt>
      <trkpt lat="47.4536" lon="-0.58483">
        <ele>24.17</ele>
        <time>2015-02-21T14:02:48Z</time>
      </trkpt>
      <trkpt lat="47.45354" lon="-0.58495">
        <ele>24.17</ele>
        <time>2015-02-21T14:02:50Z</time>
      </trkpt>
      <trkpt lat="47.45339" lon="-0.58527">
        <ele>24.17</ele>
        <time>2015-02-21T14:02:55Z</time>
      </trkpt>
      <trkpt lat="47.45305" lon="-0.58597">
        <ele>24.17</ele>
        <time>2015-02-21T14:03:07Z</time>
      </trkpt>
      <trkpt lat="47.45268" lon="-0.58695">
        <ele>24.17</ele>
        <time>2015-02-21T14:03:21Z</time>
      </trkpt>
      <trkpt lat="47.45265" lon="-0.58702">
        <ele>24.65</ele>
        <time>2015-02-21T14:03:22Z</time>
      </trkpt>
      <trkpt lat="47.45249" lon="-0.58743">
        <ele>24.65</ele>
        <time>2015-02-21T14:03:28Z</time>
      </trkpt>
      <trkpt lat="47.45241" lon="-0.5877">
        <ele>24.65</ele>
        <time>2015-02-21T14:03:32Z</time>
      </trkpt>
      <trkpt lat="47.45228" lon="-0.58806">
        <ele>24.17</ele>
        <time>2015-02-21T14:03:37Z</time>
      </trkpt>
      <trkpt lat="47.45223" lon="-0.5882">
        <ele>24.65</ele>
        <time>2015-02-21T14:03:39Z</time>
      </trkpt>
      <trkpt lat="47.45221" lon="-0.58827">
        <ele>24.17</ele>
        <time>2015-02-21T14:03:40Z</time>
      </trkpt>
      <trkpt lat="47.45202" lon="-0.58872">
        <ele>24.17</ele>
        <time>2015-02-21T14:03:47Z</time>
      </trkpt>
      <trkpt lat="47.452" lon="-0.58879">
        <ele>24.17</ele>
        <time>2015-02-21T14:03:48Z</time>
      </trkpt>
      <trkpt lat="47.45196" lon="-0.58892">
        <ele>23.69</ele>
        <time>2015-02-21T14:03:50Z</time>
      </trkpt>
      <trkpt lat="47.45194" lon="-0.58898">
        <ele>24.65</ele>
        <time>2015-02-21T14:03:51Z</time>
      </trkpt>
      <trkpt lat="47.45188" lon="-0.58912">
        <ele>24.65</ele>
        <time>2015-02-21T14:03:53Z</time>
      </trkpt>
      <trkpt lat="47.45156" lon="-0.59002">
        <ele>24.65</ele>
        <time>2015-02-21T14:04:06Z</time>
      </trkpt>
      <trkpt lat="47.45144" lon="-0.59038">
        <ele>25.13</ele>
        <time>2015-02-21T14:04:11Z</time>
      </trkpt>
      <trkpt lat="47.45111" lon="-0.59113">
        <ele>23.69</ele>
        <time>2015-02-21T14:04:23Z</time>
      </trkpt>
      <trkpt lat="47.45075" lon="-0.59187">
        <ele>24.65</ele>
        <time>2015-02-21T14:04:35Z</time>
      </trkpt>
      <trkpt lat="47.45044" lon="-0.59249">
        <ele>24.65</ele>
        <time>2015-02-21T14:04:46Z</time>
      </trkpt>
      <trkpt lat="47.4501" lon="-0.5931">
        <ele>26.09</ele>
        <time>2015-02-21T14:04:58Z</time>
      </trkpt>
      <trkpt lat="47.44999" lon="-0.59333">
        <ele>25.13</ele>
        <time>2015-02-21T14:05:02Z</time>
      </trkpt>
      <trkpt lat="47.44983" lon="-0.59365">
        <ele>25.13</ele>
        <time>2015-02-21T14:05:07Z</time>
      </trkpt>
      <trkpt lat="47.44981" lon="-0.59372">
        <ele>25.13</ele>
        <time>2015-02-21T14:05:08Z</time>
      </trkpt>
      <trkpt lat="47.44979" lon="-0.59379">
        <ele>25.13</ele>
        <time>2015-02-21T14:05:09Z</time>
      </trkpt>
      <trkpt lat="47.44978" lon="-0.59386">
        <ele>24.65</ele>
        <time>2015-02-21T14:05:10Z</time>
      </trkpt>
      <trkpt lat="47.44977" lon="-0.59392">
        <ele>25.13</ele>
        <time>2015-02-21T14:05:11Z</time>
      </trkpt>
      <trkpt lat="47.44974" lon="-0.59397">
        <ele>25.13</ele>
        <time>2015-02-21T14:05:12Z</time>
      </trkpt>
      <trkpt lat="47.44971" lon="-0.59402">
        <ele>25.61</ele>
        <time>2015-02-21T14:05:13Z</time>
      </trkpt>
      <trkpt lat="47.44968" lon="-0.59407">
        <ele>25.61</ele>
        <time>2015-02-21T14:05:14Z</time>
      </trkpt>
      <trkpt lat="47.44965" lon="-0.59413">
        <ele>25.61</ele>
        <time>2015-02-21T14:05:15Z</time>
      </trkpt>
      <trkpt lat="47.44949" lon="-0.59437">
        <ele>26.09</ele>
        <time>2015-02-21T14:05:19Z</time>
      </trkpt>
      <trkpt lat="47.44943" lon="-0.59441">
        <ele>26.09</ele>
        <time>2015-02-21T14:05:20Z</time>
      </trkpt>
      <trkpt lat="47.44936" lon="-0.59446">
        <ele>26.09</ele>
        <time>2015-02-21T14:05:21Z</time>
      </trkpt>
      <trkpt lat="47.4493" lon="-0.59452">
        <ele>25.61</ele>
        <time>2015-02-21T14:05:22Z</time>
      </trkpt>
      <trkpt lat="47.44924" lon="-0.59459">
        <ele>26.09</ele>
        <time>2015-02-21T14:05:23Z</time>
      </trkpt>
      <trkpt lat="47.44918" lon="-0.59465">
        <ele>25.61</ele>
        <time>2015-02-21T14:05:24Z</time>
      </trkpt>
      <trkpt lat="47.44897" lon="-0.59484">
        <ele>26.09</ele>
        <time>2015-02-21T14:05:28Z</time>
      </trkpt>
      <trkpt lat="47.44879" lon="-0.59494">
        <ele>26.09</ele>
        <time>2015-02-21T14:05:31Z</time>
      </trkpt>
      <trkpt lat="47.44803" lon="-0.59523">
        <ele>25.61</ele>
        <time>2015-02-21T14:05:43Z</time>
      </trkpt>
      <trkpt lat="47.44698" lon="-0.59564">
        <ele>26.57</ele>
        <time>2015-02-21T14:06:00Z</time>
      </trkpt>
      <trkpt lat="47.44622" lon="-0.5959">
        <ele>25.13</ele>
        <time>2015-02-21T14:06:12Z</time>
      </trkpt>
      <trkpt lat="47.44616" lon="-0.59591">
        <ele>25.13</ele>
        <time>2015-02-21T14:06:13Z</time>
      </trkpt>
      <trkpt lat="47.44611" lon="-0.59593">
        <ele>25.13</ele>
        <time>2015-02-21T14:06:14Z</time>
      </trkpt>
      <trkpt lat="47.44553" lon="-0.59632">
        <ele>26.09</ele>
        <time>2015-02-21T14:06:26Z</time>
      </trkpt>
      <trkpt lat="47.44525" lon="-0.59656">
        <ele>25.61</ele>
        <time>2015-02-21T14:06:32Z</time>
      </trkpt>
      <trkpt lat="47.4452" lon="-0.59659">
        <ele>25.61</ele>
        <time>2015-02-21T14:06:33Z</time>
      </trkpt>
      <trkpt lat="47.44475" lon="-0.59698">
        <ele>25.13</ele>
        <time>2015-02-21T14:06:46Z</time>
      </trkpt>
      <trkpt lat="47.44473" lon="-0.59699">
        <ele>24.65</ele>
        <time>2015-02-21T14:06:47Z</time>
      </trkpt>
      <trkpt lat="47.44472" lon="-0.59701">
        <ele>25.13</ele>
        <time>2015-02-21T14:06:48Z</time>
      </trkpt>
      <trkpt lat="47.4447" lon="-0.59704">
        <ele>25.13</ele>
        <time>2015-02-21T14:06:49Z</time>
      </trkpt>
      <trkpt lat="47.44467" lon="-0.59705">
        <ele>25.61</ele>
        <time>2015-02-21T14:06:50Z</time>
      </trkpt>
      <trkpt lat="47.44463" lon="-0.59706">
        <ele>25.13</ele>
        <time>2015-02-21T14:06:51Z</time>
      </trkpt>
      <trkpt lat="47.44458" lon="-0.59706">
        <ele>24.65</ele>
        <time>2015-02-21T14:06:52Z</time>
      </trkpt>
      <trkpt lat="47.44454" lon="-0.59707">
        <ele>25.13</ele>
        <time>2015-02-21T14:06:53Z</time>
      </trkpt>
      <trkpt lat="47.4445" lon="-0.5971">
        <ele>25.13</ele>
        <time>2015-02-21T14:06:54Z</time>
      </trkpt>
      <trkpt lat="47.44446" lon="-0.59715">
        <ele>25.13</ele>
        <time>2015-02-21T14:06:55Z</time>
      </trkpt>
      <trkpt lat="47.44443" lon="-0.5972">
        <ele>25.61</ele>
        <time>2015-02-21T14:06:56Z</time>
      </trkpt>
      <trkpt lat="47.4444" lon="-0.59725">
        <ele>25.61</ele>
        <time>2015-02-21T14:06:57Z</time>
      </trkpt>
      <trkpt lat="47.44438" lon="-0.59727">
        <ele>25.13</ele>
        <time>2015-02-21T14:06:58Z</time>
      </trkpt>
      <trkpt lat="47.44436" lon="-0.59729">
        <ele>25.13</ele>
        <time>2015-02-21T14:06:59Z</time>
      </trkpt>
      <trkpt lat="47.44434" lon="-0.59731">
        <ele>25.13</ele>
        <time>2015-02-21T14:07:00Z</time>
      </trkpt>
      <trkpt lat="47.44432" lon="-0.59734">
        <ele>25.13</ele>
        <time>2015-02-21T14:07:01Z</time>
      </trkpt>
      <trkpt lat="47.4443" lon="-0.59737">
        <ele>25.13</ele>
        <time>2015-02-21T14:07:02Z</time>
      </trkpt>
      <trkpt lat="47.44428" lon="-0.5974">
        <ele>25.13</ele>
        <time>2015-02-21T14:07:03Z</time>
      </trkpt>
      <trkpt lat="47.44424" lon="-0.59743">
        <ele>24.65</ele>
        <time>2015-02-21T14:07:04Z</time>
      </trkpt>
      <trkpt lat="47.44371" lon="-0.59789">
        <ele>24.65</ele>
        <time>2015-02-21T14:07:13Z</time>
      </trkpt>
      <trkpt lat="47.44365" lon="-0.59793">
        <ele>24.65</ele>
        <time>2015-02-21T14:07:15Z</time>
      </trkpt>
      <trkpt lat="47.44293" lon="-0.5986">
        <ele>24.65</ele>
        <time>2015-02-21T14:07:26Z</time>
      </trkpt>
      <trkpt lat="47.44238" lon="-0.59914">
        <ele>24.65</ele>
        <time>2015-02-21T14:07:36Z</time>
      </trkpt>
      <trkpt lat="47.44216" lon="-0.59935">
        <ele>24.65</ele>
        <time>2015-02-21T14:07:40Z</time>
      </trkpt>
      <trkpt lat="47.44155" lon="-0.59994">
        <ele>24.17</ele>
        <time>2015-02-21T14:07:52Z</time>
      </trkpt>
      <trkpt lat="47.4409" lon="-0.60057">
        <ele>24.17</ele>
        <time>2015-02-21T14:08:05Z</time>
      </trkpt>
      <trkpt lat="47.44011" lon="-0.60131">
        <ele>24.65</ele>
        <time>2015-02-21T14:08:20Z</time>
      </trkpt>
      <trkpt lat="47.43939" lon="-0.60188">
        <ele>24.17</ele>
        <time>2015-02-21T14:08:33Z</time>
      </trkpt>
      <trkpt lat="47.43906" lon="-0.60214">
        <ele>24.17</ele>
        <time>2015-02-21T14:08:39Z</time>
      </trkpt>
      <trkpt lat="47.439" lon="-0.60218">
        <ele>24.17</ele>
        <time>2015-02-21T14:08:40Z</time>
      </trkpt>
      <trkpt lat="47.43868" lon="-0.60241">
        <ele>24.17</ele>
        <time>2015-02-21T14:08:46Z</time>
      </trkpt>
      <trkpt lat="47.43863" lon="-0.60244">
        <ele>24.17</ele>
        <time>2015-02-21T14:08:47Z</time>
      </trkpt>
      <trkpt lat="47.43799" lon="-0.60293">
        <ele>23.69</ele>
        <time>2015-02-21T14:08:59Z</time>
      </trkpt>
      <trkpt lat="47.43757" lon="-0.60324">
        <ele>24.17</ele>
        <time>2015-02-21T14:09:07Z</time>
      </trkpt>
      <trkpt lat="47.43678" lon="-0.60382">
        <ele>25.13</ele>
        <time>2015-02-21T14:09:21Z</time>
      </trkpt>
      <trkpt lat="47.43618" lon="-0.60399">
        <ele>25.61</ele>
        <time>2015-02-21T14:09:31Z</time>
      </trkpt>
      <trkpt lat="47.43612" lon="-0.60401">
        <ele>25.13</ele>
        <time>2015-02-21T14:09:32Z</time>
      </trkpt>
      <trkpt lat="47.43607" lon="-0.60405">
        <ele>25.13</ele>
        <time>2015-02-21T14:09:33Z</time>
      </trkpt>
      <trkpt lat="47.43543" lon="-0.60455">
        <ele>25.13</ele>
        <time>2015-02-21T14:09:45Z</time>
      </trkpt>
      <trkpt lat="47.43518" lon="-0.60467">
        <ele>26.09</ele>
        <time>2015-02-21T14:09:50Z</time>
      </trkpt>
      <trkpt lat="47.43439" lon="-0.605">
        <ele>25.13</ele>
        <time>2015-02-21T14:10:03Z</time>
      </trkpt>
      <trkpt lat="47.43416" lon="-0.60512">
        <ele>25.61</ele>
        <time>2015-02-21T14:10:07Z</time>
      </trkpt>
      <trkpt lat="47.4341" lon="-0.60513">
        <ele>26.09</ele>
        <time>2015-02-21T14:10:08Z</time>
      </trkpt>
      <trkpt lat="47.43391" lon="-0.60514">
        <ele>26.57</ele>
        <time>2015-02-21T14:10:11Z</time>
      </trkpt>
      <trkpt lat="47.43385" lon="-0.60513">
        <ele>26.09</ele>
        <time>2015-02-21T14:10:12Z</time>
      </trkpt>
      <trkpt lat="47.43299" lon="-0.60509">
        <ele>25.61</ele>
        <time>2015-02-21T14:10:22Z</time>
      </trkpt>
      <trkpt lat="47.43235" lon="-0.60497">
        <ele>25.13</ele>
        <time>2015-02-21T14:10:30Z</time>
      </trkpt>
      <trkpt lat="47.43159" lon="-0.60488">
        <ele>24.65</ele>
        <time>2015-02-21T14:10:41Z</time>
      </trkpt>
      <trkpt lat="47.43072" lon="-0.60504">
        <ele>25.13</ele>
        <time>2015-02-21T14:10:55Z</time>
      </trkpt>
      <trkpt lat="47.43036" lon="-0.60511">
        <ele>24.17</ele>
        <time>2015-02-21T14:11:01Z</time>
      </trkpt>
      <trkpt lat="47.43013" lon="-0.60515">
        <ele>24.17</ele>
        <time>2015-02-21T14:11:05Z</time>
      </trkpt>
      <trkpt lat="47.42927" lon="-0.60508">
        <ele>24.17</ele>
        <time>2015-02-21T14:11:19Z</time>
      </trkpt>
      <trkpt lat="47.42848" lon="-0.6048">
        <ele>24.17</ele>
        <time>2015-02-21T14:11:30Z</time>
      </trkpt>
      <trkpt lat="47.42795" lon="-0.6046">
        <ele>24.65</ele>
        <time>2015-02-21T14:11:37Z</time>
      </trkpt>
      <trkpt lat="47.42783" lon="-0.60458">
        <ele>25.13</ele>
        <time>2015-02-21T14:11:39Z</time>
      </trkpt>
      <trkpt lat="47.42778" lon="-0.60459">
        <ele>24.65</ele>
        <time>2015-02-21T14:11:40Z</time>
      </trkpt>
      <trkpt lat="47.42767" lon="-0.60461">
        <ele>25.13</ele>
        <time>2015-02-21T14:11:42Z</time>
      </trkpt>
      <trkpt lat="47.42686" lon="-0.6046">
        <ele>24.65</ele>
        <time>2015-02-21T14:11:56Z</time>
      </trkpt>
      <trkpt lat="47.42676" lon="-0.60461">
        <ele>24.65</ele>
        <time>2015-02-21T14:11:58Z</time>
      </trkpt>
      <trkpt lat="47.42671" lon="-0.60462">
        <ele>24.17</ele>
        <time>2015-02-21T14:11:59Z</time>
      </trkpt>
      <trkpt lat="47.42667" lon="-0.60462">
        <ele>24.65</ele>
        <time>2015-02-21T14:12:00Z</time>
      </trkpt>
      <trkpt lat="47.42657" lon="-0.60463">
        <ele>24.17</ele>
        <time>2015-02-21T14:12:02Z</time>
      </trkpt>
      <trkpt lat="47.42647" lon="-0.60464">
        <ele>24.65</ele>
        <time>2015-02-21T14:12:04Z</time>
      </trkpt>
      <trkpt lat="47.42642" lon="-0.60465">
        <ele>24.17</ele>
        <time>2015-02-21T14:12:05Z</time>
      </trkpt>
      <trkpt lat="47.42595" lon="-0.60494">
        <ele>26.09</ele>
        <time>2015-02-21T14:12:20Z</time>
      </trkpt>
      <trkpt lat="47.42579" lon="-0.60515">
        <ele>27.53</ele>
        <time>2015-02-21T14:12:29Z</time>
      </trkpt>
      <trkpt lat="47.42577" lon="-0.60515">
        <ele>27.53</ele>
        <time>2015-02-21T14:12:30Z</time>
      </trkpt>
      <trkpt lat="47.42575" lon="-0.60515">
        <ele>28.02</ele>
        <time>2015-02-21T14:12:31Z</time>
      </trkpt>
      <trkpt lat="47.42574" lon="-0.60516">
        <ele>28.5</ele>
        <time>2015-02-21T14:12:32Z</time>
      </trkpt>
      <trkpt lat="47.42571" lon="-0.60516">
        <ele>28.5</ele>
        <time>2015-02-21T14:12:33Z</time>
      </trkpt>
      <trkpt lat="47.42569" lon="-0.60516">
        <ele>28.02</ele>
        <time>2015-02-21T14:12:34Z</time>
      </trkpt>
      <trkpt lat="47.42527" lon="-0.60526">
        <ele>26.57</ele>
        <time>2015-02-21T14:12:44Z</time>
      </trkpt>
      <trkpt lat="47.42485" lon="-0.60547">
        <ele>26.09</ele>
        <time>2015-02-21T14:12:54Z</time>
      </trkpt>
      <trkpt lat="47.42477" lon="-0.60551">
        <ele>25.61</ele>
        <time>2015-02-21T14:12:56Z</time>
      </trkpt>
      <trkpt lat="47.42468" lon="-0.60553">
        <ele>26.09</ele>
        <time>2015-02-21T14:12:58Z</time>
      </trkpt>
      <trkpt lat="47.42454" lon="-0.60559">
        <ele>26.57</ele>
        <time>2015-02-21T14:13:01Z</time>
      </trkpt>
      <trkpt lat="47.4245" lon="-0.60562">
        <ele>27.05</ele>
        <time>2015-02-21T14:13:02Z</time>
      </trkpt>
      <trkpt lat="47.42416" lon="-0.60593">
        <ele>26.09</ele>
        <time>2015-02-21T14:13:10Z</time>
      </trkpt>
      <trkpt lat="47.42394" lon="-0.60619">
        <ele>26.57</ele>
        <time>2015-02-21T14:13:16Z</time>
      </trkpt>
      <trkpt lat="47.42374" lon="-0.60644">
        <ele>26.57</ele>
        <time>2015-02-21T14:13:22Z</time>
      </trkpt>
      <trkpt lat="47.42363" lon="-0.60653">
        <ele>26.09</ele>
        <time>2015-02-21T14:13:25Z</time>
      </trkpt>
      <trkpt lat="47.42359" lon="-0.60656">
        <ele>26.09</ele>
        <time>2015-02-21T14:13:26Z</time>
      </trkpt>
      <trkpt lat="47.42355" lon="-0.60658">
        <ele>26.09</ele>
        <time>2015-02-21T14:13:27Z</time>
      </trkpt>
      <trkpt lat="47.42351" lon="-0.60661">
        <ele>26.09</ele>
        <time>2015-02-21T14:13:28Z</time>
      </trkpt>
      <trkpt lat="47.42347" lon="-0.60663">
        <ele>25.61</ele>
        <time>2015-02-21T14:13:29Z</time>
      </trkpt>
      <trkpt lat="47.42319" lon="-0.60679">
        <ele>26.09</ele>
        <time>2015-02-21T14:13:35Z</time>
      </trkpt>
      <trkpt lat="47.4224" lon="-0.6074">
        <ele>26.09</ele>
        <time>2015-02-21T14:13:53Z</time>
      </trkpt>
      <trkpt lat="47.42212" lon="-0.60771">
        <ele>26.09</ele>
        <time>2015-02-21T14:14:00Z</time>
      </trkpt>
      <trkpt lat="47.42208" lon="-0.60776">
        <ele>26.09</ele>
        <time>2015-02-21T14:14:01Z</time>
      </trkpt>
      <trkpt lat="47.42186" lon="-0.60824">
        <ele>26.09</ele>
        <time>2015-02-21T14:14:09Z</time>
      </trkpt>
      <trkpt lat="47.42182" lon="-0.60828">
        <ele>26.09</ele>
        <time>2015-02-21T14:14:10Z</time>
      </trkpt>
      <trkpt lat="47.42178" lon="-0.6083">
        <ele>26.09</ele>
        <time>2015-02-21T14:14:11Z</time>
      </trkpt>
      <trkpt lat="47.42174" lon="-0.60832">
        <ele>25.61</ele>
        <time>2015-02-21T14:14:12Z</time>
      </trkpt>
      <trkpt lat="47.4217" lon="-0.60835">
        <ele>25.13</ele>
        <time>2015-02-21T14:14:13Z</time>
      </trkpt>
      <trkpt lat="47.42166" lon="-0.6084">
        <ele>24.65</ele>
        <time>2015-02-21T14:14:14Z</time>
      </trkpt>
      <trkpt lat="47.42162" lon="-0.60846">
        <ele>24.17</ele>
        <time>2015-02-21T14:14:15Z</time>
      </trkpt>
      <trkpt lat="47.42158" lon="-0.60852">
        <ele>24.17</ele>
        <time>2015-02-21T14:14:16Z</time>
      </trkpt>
      <trkpt lat="47.42111" lon="-0.60918">
        <ele>24.17</ele>
        <time>2015-02-21T14:14:29Z</time>
      </trkpt>
      <trkpt lat="47.42107" lon="-0.60923">
        <ele>23.21</ele>
        <time>2015-02-21T14:14:30Z</time>
      </trkpt>
      <trkpt lat="47.42103" lon="-0.60926">
        <ele>23.21</ele>
        <time>2015-02-21T14:14:31Z</time>
      </trkpt>
      <trkpt lat="47.42099" lon="-0.60928">
        <ele>23.21</ele>
        <time>2015-02-21T14:14:32Z</time>
      </trkpt>
      <trkpt lat="47.42094" lon="-0.60929">
        <ele>23.21</ele>
        <time>2015-02-21T14:14:33Z</time>
      </trkpt>
      <trkpt lat="47.4209" lon="-0.6093">
        <ele>23.21</ele>
        <time>2015-02-21T14:14:34Z</time>
      </trkpt>
      <trkpt lat="47.42086" lon="-0.6093">
        <ele>23.69</ele>
        <time>2015-02-21T14:14:35Z</time>
      </trkpt>
      <trkpt lat="47.42082" lon="-0.60931">
        <ele>23.69</ele>
        <time>2015-02-21T14:14:36Z</time>
      </trkpt>
      <trkpt lat="47.42078" lon="-0.60932">
        <ele>23.21</ele>
        <time>2015-02-21T14:14:37Z</time>
      </trkpt>
      <trkpt lat="47.42018" lon="-0.60973">
        <ele>23.21</ele>
        <time>2015-02-21T14:14:52Z</time>
      </trkpt>
      <trkpt lat="47.41986" lon="-0.60985">
        <ele>22.73</ele>
        <time>2015-02-21T14:15:02Z</time>
      </trkpt>
      <trkpt lat="47.41937" lon="-0.61014">
        <ele>23.69</ele>
        <time>2015-02-21T14:15:15Z</time>
      </trkpt>
      <trkpt lat="47.41917" lon="-0.61028">
        <ele>23.69</ele>
        <time>2015-02-21T14:15:20Z</time>
      </trkpt>
      <trkpt lat="47.41894" lon="-0.61044">
        <ele>23.69</ele>
        <time>2015-02-21T14:15:25Z</time>
      </trkpt>
      <trkpt lat="47.41816" lon="-0.61111">
        <ele>23.69</ele>
        <time>2015-02-21T14:15:41Z</time>
      </trkpt>
      <trkpt lat="47.41778" lon="-0.6115">
        <ele>24.17</ele>
        <time>2015-02-21T14:15:49Z</time>
      </trkpt>
      <trkpt lat="47.41717" lon="-0.61227">
        <ele>24.17</ele>
        <time>2015-02-21T14:16:03Z</time>
      </trkpt>
      <trkpt lat="47.41653" lon="-0.61306">
        <ele>24.17</ele>
        <time>2015-02-21T14:16:18Z</time>
      </trkpt>
      <trkpt lat="47.41621" lon="-0.61338">
        <ele>23.69</ele>
        <time>2015-02-21T14:16:26Z</time>
      </trkpt>
      <trkpt lat="47.41607" lon="-0.61353">
        <ele>23.21</ele>
        <time>2015-02-21T14:16:30Z</time>
      </trkpt>
      <trkpt lat="47.41603" lon="-0.61355">
        <ele>23.69</ele>
        <time>2015-02-21T14:16:31Z</time>
      </trkpt>
      <trkpt lat="47.41591" lon="-0.61362">
        <ele>22.73</ele>
        <time>2015-02-21T14:16:34Z</time>
      </trkpt>
      <trkpt lat="47.41587" lon="-0.61366">
        <ele>23.21</ele>
        <time>2015-02-21T14:16:35Z</time>
      </trkpt>
      <trkpt lat="47.4158" lon="-0.61375">
        <ele>23.21</ele>
        <time>2015-02-21T14:16:37Z</time>
      </trkpt>
      <trkpt lat="47.41565" lon="-0.61395">
        <ele>24.17</ele>
        <time>2015-02-21T14:16:42Z</time>
      </trkpt>
      <trkpt lat="47.41555" lon="-0.61408">
        <ele>24.65</ele>
        <time>2015-02-21T14:16:45Z</time>
      </trkpt>
      <trkpt lat="47.41552" lon="-0.61414">
        <ele>23.69</ele>
        <time>2015-02-21T14:16:46Z</time>
      </trkpt>
      <trkpt lat="47.4154" lon="-0.6144">
        <ele>24.65</ele>
        <time>2015-02-21T14:16:51Z</time>
      </trkpt>
      <trkpt lat="47.41533" lon="-0.61449">
        <ele>25.13</ele>
        <time>2015-02-21T14:16:53Z</time>
      </trkpt>
      <trkpt lat="47.41531" lon="-0.61453">
        <ele>24.65</ele>
        <time>2015-02-21T14:16:54Z</time>
      </trkpt>
      <trkpt lat="47.41528" lon="-0.61456">
        <ele>25.13</ele>
        <time>2015-02-21T14:16:55Z</time>
      </trkpt>
      <trkpt lat="47.41524" lon="-0.61459">
        <ele>25.13</ele>
        <time>2015-02-21T14:16:56Z</time>
      </trkpt>
      <trkpt lat="47.41521" lon="-0.61461">
        <ele>24.65</ele>
        <time>2015-02-21T14:16:57Z</time>
      </trkpt>
      <trkpt lat="47.41508" lon="-0.6147">
        <ele>24.17</ele>
        <time>2015-02-21T14:17:00Z</time>
      </trkpt>
      <trkpt lat="47.41499" lon="-0.61477">
        <ele>24.17</ele>
        <time>2015-02-21T14:17:02Z</time>
      </trkpt>
      <trkpt lat="47.41421" lon="-0.61523">
        <ele>24.17</ele>
        <time>2015-02-21T14:17:18Z</time>
      </trkpt>
      <trkpt lat="47.41366" lon="-0.61564">
        <ele>24.17</ele>
        <time>2015-02-21T14:17:29Z</time>
      </trkpt>
      <trkpt lat="47.41362" lon="-0.61568">
        <ele>24.65</ele>
        <time>2015-02-21T14:17:30Z</time>
      </trkpt>
      <trkpt lat="47.41326" lon="-0.61598">
        <ele>24.17</ele>
        <time>2015-02-21T14:17:38Z</time>
      </trkpt>
      <trkpt lat="47.41285" lon="-0.61642">
        <ele>24.65</ele>
        <time>2015-02-21T14:17:48Z</time>
      </trkpt>
      <trkpt lat="47.41281" lon="-0.61645">
        <ele>24.65</ele>
        <time>2015-02-21T14:17:49Z</time>
      </trkpt>
      <trkpt lat="47.41273" lon="-0.6165">
        <ele>24.17</ele>
        <time>2015-02-21T14:17:51Z</time>
      </trkpt>
      <trkpt lat="47.41268" lon="-0.61652">
        <ele>23.69</ele>
        <time>2015-02-21T14:17:52Z</time>
      </trkpt>
      <trkpt lat="47.41245" lon="-0.61658">
        <ele>24.17</ele>
        <time>2015-02-21T14:17:57Z</time>
      </trkpt>
      <trkpt lat="47.4124" lon="-0.6166">
        <ele>24.17</ele>
        <time>2015-02-21T14:17:58Z</time>
      </trkpt>
      <trkpt lat="47.41179" lon="-0.61679">
        <ele>23.69</ele>
        <time>2015-02-21T14:18:10Z</time>
      </trkpt>
      <trkpt lat="47.41137" lon="-0.61695">
        <ele>23.69</ele>
        <time>2015-02-21T14:18:18Z</time>
      </trkpt>
      <trkpt lat="47.41063" lon="-0.61713">
        <ele>23.69</ele>
        <time>2015-02-21T14:18:32Z</time>
      </trkpt>
      <trkpt lat="47.41" lon="-0.61724">
        <ele>22.73</ele>
        <time>2015-02-21T14:18:43Z</time>
      </trkpt>
      <trkpt lat="47.40995" lon="-0.61726">
        <ele>22.73</ele>
        <time>2015-02-21T14:18:44Z</time>
      </trkpt>
      <trkpt lat="47.40989" lon="-0.61729">
        <ele>22.73</ele>
        <time>2015-02-21T14:18:45Z</time>
      </trkpt>
      <trkpt lat="47.40984" lon="-0.61732">
        <ele>22.73</ele>
        <time>2015-02-21T14:18:46Z</time>
      </trkpt>
      <trkpt lat="47.40979" lon="-0.61736">
        <ele>22.25</ele>
        <time>2015-02-21T14:18:47Z</time>
      </trkpt>
      <trkpt lat="47.40974" lon="-0.6174">
        <ele>22.73</ele>
        <time>2015-02-21T14:18:48Z</time>
      </trkpt>
      <trkpt lat="47.40969" lon="-0.61744">
        <ele>23.21</ele>
        <time>2015-02-21T14:18:49Z</time>
      </trkpt>
      <trkpt lat="47.40963" lon="-0.61747">
        <ele>22.73</ele>
        <time>2015-02-21T14:18:50Z</time>
      </trkpt>
      <trkpt lat="47.40946" lon="-0.61757">
        <ele>24.65</ele>
        <time>2015-02-21T14:18:54Z</time>
      </trkpt>
      <trkpt lat="47.40918" lon="-0.61758">
        <ele>23.69</ele>
        <time>2015-02-21T14:19:02Z</time>
      </trkpt>
      <trkpt lat="47.40902" lon="-0.61762">
        <ele>23.21</ele>
        <time>2015-02-21T14:19:06Z</time>
      </trkpt>
      <trkpt lat="47.40873" lon="-0.61787">
        <ele>24.65</ele>
        <time>2015-02-21T14:19:17Z</time>
      </trkpt>
      <trkpt lat="47.40869" lon="-0.61791">
        <ele>24.65</ele>
        <time>2015-02-21T14:19:20Z</time>
      </trkpt>
      <trkpt lat="47.40858" lon="-0.61794">
        <ele>24.65</ele>
        <time>2015-02-21T14:19:24Z</time>
      </trkpt>
      <trkpt lat="47.40841" lon="-0.61814">
        <ele>24.65</ele>
        <time>2015-02-21T14:19:35Z</time>
      </trkpt>
      <trkpt lat="47.40843" lon="-0.61824">
        <ele>25.13</ele>
        <time>2015-02-21T14:19:41Z</time>
      </trkpt>
      <trkpt lat="47.40845" lon="-0.61838">
        <ele>25.13</ele>
        <time>2015-02-21T14:19:50Z</time>
      </trkpt>
      <trkpt lat="47.40853" lon="-0.61868">
        <ele>26.09</ele>
        <time>2015-02-21T14:20:02Z</time>
      </trkpt>
      <trkpt lat="47.40867" lon="-0.6193">
        <ele>27.53</ele>
        <time>2015-02-21T14:20:18Z</time>
      </trkpt>
      <trkpt lat="47.40872" lon="-0.61962">
        <ele>30.42</ele>
        <time>2015-02-21T14:20:27Z</time>
      </trkpt>
      <trkpt lat="47.40873" lon="-0.61968">
        <ele>31.38</ele>
        <time>2015-02-21T14:20:29Z</time>
      </trkpt>
      <trkpt lat="47.40874" lon="-0.61976">
        <ele>31.86</ele>
        <time>2015-02-21T14:20:32Z</time>
      </trkpt>
      <trkpt lat="47.40867" lon="-0.61987">
        <ele>31.86</ele>
        <time>2015-02-21T14:20:37Z</time>
      </trkpt>
      <trkpt lat="47.40841" lon="-0.61999">
        <ele>30.42</ele>
        <time>2015-02-21T14:20:45Z</time>
      </trkpt>
      <trkpt lat="47.40837" lon="-0.62001">
        <ele>29.94</ele>
        <time>2015-02-21T14:20:46Z</time>
      </trkpt>
      <trkpt lat="47.40774" lon="-0.62027">
        <ele>29.46</ele>
        <time>2015-02-21T14:21:00Z</time>
      </trkpt>
      <trkpt lat="47.40755" lon="-0.62043">
        <ele>29.46</ele>
        <time>2015-02-21T14:21:05Z</time>
      </trkpt>
      <trkpt lat="47.40751" lon="-0.62045">
        <ele>29.94</ele>
        <time>2015-02-21T14:21:06Z</time>
      </trkpt>
      <trkpt lat="47.407" lon="-0.62065">
        <ele>28.98</ele>
        <time>2015-02-21T14:21:18Z</time>
      </trkpt>
      <trkpt lat="47.40696" lon="-0.62068">
        <ele>28.98</ele>
        <time>2015-02-21T14:21:19Z</time>
      </trkpt>
      <trkpt lat="47.40692" lon="-0.62071">
        <ele>28.5</ele>
        <time>2015-02-21T14:21:20Z</time>
      </trkpt>
      <trkpt lat="47.4066" lon="-0.62098">
        <ele>28.02</ele>
        <time>2015-02-21T14:21:27Z</time>
      </trkpt>
      <trkpt lat="47.40655" lon="-0.62104">
        <ele>27.05</ele>
        <time>2015-02-21T14:21:28Z</time>
      </trkpt>
      <trkpt lat="47.40652" lon="-0.6211">
        <ele>27.05</ele>
        <time>2015-02-21T14:21:29Z</time>
      </trkpt>
      <trkpt lat="47.4063" lon="-0.62151">
        <ele>26.09</ele>
        <time>2015-02-21T14:21:36Z</time>
      </trkpt>
      <trkpt lat="47.40628" lon="-0.62157">
        <ele>26.09</ele>
        <time>2015-02-21T14:21:37Z</time>
      </trkpt>
      <trkpt lat="47.40619" lon="-0.62222">
        <ele>26.57</ele>
        <time>2015-02-21T14:21:49Z</time>
      </trkpt>
      <trkpt lat="47.40617" lon="-0.62229">
        <ele>26.09</ele>
        <time>2015-02-21T14:21:57Z</time>
      </trkpt>
      <trkpt lat="47.40617" lon="-0.62232">
        <ele>22.73</ele>
        <time>2015-02-21T14:22:03Z</time>
      </trkpt>
      <trkpt lat="47.40617" lon="-0.62232">
        <ele>28.5</ele>
        <time>2015-02-21T14:22:04Z</time>
      </trkpt>
      <trkpt lat="47.40617" lon="-0.62231">
        <ele>23.21</ele>
        <time>2015-02-21T14:22:05Z</time>
      </trkpt>
      <trkpt lat="47.40617" lon="-0.62231">
        <ele>27.53</ele>
        <time>2015-02-21T14:22:06Z</time>
      </trkpt>
      <trkpt lat="47.40617" lon="-0.62231">
        <ele>23.69</ele>
        <time>2015-02-21T14:22:09Z</time>
      </trkpt>
      <trkpt lat="47.40617" lon="-0.62231">
        <ele>26.09</ele>
        <time>2015-02-21T14:22:10Z</time>
      </trkpt>
      <trkpt lat="47.40617" lon="-0.62231">
        <ele>20.81</ele>
        <time>2015-02-21T14:22:11Z</time>
      </trkpt>
      <trkpt lat="47.40617" lon="-0.6223">
        <ele>33.78</ele>
        <time>2015-02-21T14:22:12Z</time>
      </trkpt>
      <trkpt lat="47.40617" lon="-0.6223">
        <ele>25.61</ele>
        <time>2015-02-21T14:22:13Z</time>
      </trkpt>
      <trkpt lat="47.40615" lon="-0.6223">
        <ele>26.09</ele>
        <time>2015-02-21T14:22:44Z</time>
      </trkpt>
      <trkpt lat="47.40615" lon="-0.6223">
        <ele>26.57</ele>
        <time>2015-02-21T14:22:49Z</time>
      </trkpt>
      <trkpt lat="47.40615" lon="-0.62232">
        <ele>26.57</ele>
        <time>2015-02-21T14:23:12Z</time>
      </trkpt>
      <trkpt lat="47.40613" lon="-0.62231">
        <ele>26.09</ele>
        <time>2015-02-21T14:23:27Z</time>
      </trkpt>
      <trkpt lat="47.40613" lon="-0.6223">
        <ele>26.57</ele>
        <time>2015-02-21T14:23:47Z</time>
      </trkpt>
      <trkpt lat="47.40614" lon="-0.6223">
        <ele>26.57</ele>
        <time>2015-02-21T14:24:07Z</time>
      </trkpt>
      <trkpt lat="47.40615" lon="-0.62226">
        <ele>26.09</ele>
        <time>2015-02-21T14:24:39Z</time>
      </trkpt>
      <trkpt lat="47.40615" lon="-0.62227">
        <ele>26.09</ele>
        <time>2015-02-21T14:25:12Z</time>
      </trkpt>
      <trkpt lat="47.40613" lon="-0.62225">
        <ele>25.61</ele>
        <time>2015-02-21T14:25:39Z</time>
      </trkpt>
      <trkpt lat="47.40616" lon="-0.62223">
        <ele>25.13</ele>
        <time>2015-02-21T14:25:48Z</time>
      </trkpt>
      <trkpt lat="47.40619" lon="-0.6223">
        <ele>25.61</ele>
        <time>2015-02-21T14:25:52Z</time>
      </trkpt>
      <trkpt lat="47.40619" lon="-0.62233">
        <ele>25.13</ele>
        <time>2015-02-21T14:25:53Z</time>
      </trkpt>
      <trkpt lat="47.40619" lon="-0.62236">
        <ele>25.61</ele>
        <time>2015-02-21T14:25:54Z</time>
      </trkpt>
      <trkpt lat="47.40619" lon="-0.6224">
        <ele>25.61</ele>
        <time>2015-02-21T14:25:55Z</time>
      </trkpt>
      <trkpt lat="47.40619" lon="-0.62243">
        <ele>25.61</ele>
        <time>2015-02-21T14:25:56Z</time>
      </trkpt>
      <trkpt lat="47.40617" lon="-0.62281">
        <ele>26.57</ele>
        <time>2015-02-21T14:26:04Z</time>
      </trkpt>
      <trkpt lat="47.40619" lon="-0.62284">
        <ele>26.09</ele>
        <time>2015-02-21T14:26:05Z</time>
      </trkpt>
      <trkpt lat="47.40622" lon="-0.62285">
        <ele>27.05</ele>
        <time>2015-02-21T14:26:06Z</time>
      </trkpt>
      <trkpt lat="47.40625" lon="-0.62286">
        <ele>27.53</ele>
        <time>2015-02-21T14:26:07Z</time>
      </trkpt>
      <trkpt lat="47.40627" lon="-0.62285">
        <ele>27.53</ele>
        <time>2015-02-21T14:26:08Z</time>
      </trkpt>
      <trkpt lat="47.40629" lon="-0.62283">
        <ele>27.53</ele>
        <time>2015-02-21T14:26:09Z</time>
      </trkpt>
      <trkpt lat="47.4063" lon="-0.6228">
        <ele>28.02</ele>
        <time>2015-02-21T14:26:10Z</time>
      </trkpt>
      <trkpt lat="47.40632" lon="-0.62276">
        <ele>28.02</ele>
        <time>2015-02-21T14:26:11Z</time>
      </trkpt>
      <trkpt lat="47.40634" lon="-0.62272">
        <ele>28.5</ele>
        <time>2015-02-21T14:26:12Z</time>
      </trkpt>
      <trkpt lat="47.40641" lon="-0.62261">
        <ele>30.9</ele>
        <time>2015-02-21T14:26:16Z</time>
      </trkpt>
      <trkpt lat="47.4067" lon="-0.62241">
        <ele>33.3</ele>
        <time>2015-02-21T14:26:29Z</time>
      </trkpt>
      <trkpt lat="47.40709" lon="-0.62225">
        <ele>36.67</ele>
        <time>2015-02-21T14:26:45Z</time>
      </trkpt>
      <trkpt lat="47.40751" lon="-0.6221">
        <ele>39.07</ele>
        <time>2015-02-21T14:27:03Z</time>
      </trkpt>
      <trkpt lat="47.40794" lon="-0.62193">
        <ele>41.95</ele>
        <time>2015-02-21T14:27:22Z</time>
      </trkpt>
      <trkpt lat="47.4083" lon="-0.6218">
        <ele>43.4</ele>
        <time>2015-02-21T14:27:37Z</time>
      </trkpt>
      <trkpt lat="47.40869" lon="-0.62182">
        <ele>44.84</ele>
        <time>2015-02-21T14:27:51Z</time>
      </trkpt>
      <trkpt lat="47.40913" lon="-0.62204">
        <ele>46.76</ele>
        <time>2015-02-21T14:28:08Z</time>
      </trkpt>
      <trkpt lat="47.40951" lon="-0.62196">
        <ele>47.24</ele>
        <time>2015-02-21T14:28:21Z</time>
      </trkpt>
      <trkpt lat="47.40979" lon="-0.62188">
        <ele>47.24</ele>
        <time>2015-02-21T14:28:36Z</time>
      </trkpt>
      <trkpt lat="47.40979" lon="-0.62189">
        <ele>47.72</ele>
        <time>2015-02-21T14:29:01Z</time>
      </trkpt>
      <trkpt lat="47.40981" lon="-0.62188">
        <ele>47.72</ele>
        <time>2015-02-21T14:29:03Z</time>
      </trkpt>
      <trkpt lat="47.40983" lon="-0.62189">
        <ele>47.72</ele>
        <time>2015-02-21T14:29:04Z</time>
      </trkpt>
      <trkpt lat="47.40984" lon="-0.62191">
        <ele>47.24</ele>
        <time>2015-02-21T14:29:05Z</time>
      </trkpt>
      <trkpt lat="47.41014" lon="-0.62268">
        <ele>48.68</ele>
        <time>2015-02-21T14:29:22Z</time>
      </trkpt>
      <trkpt lat="47.41035" lon="-0.62353">
        <ele>48.68</ele>
        <time>2015-02-21T14:29:39Z</time>
      </trkpt>
      <trkpt lat="47.41041" lon="-0.62368">
        <ele>48.2</ele>
        <time>2015-02-21T14:29:49Z</time>
      </trkpt>
      <trkpt lat="47.41043" lon="-0.62367">
        <ele>47.72</ele>
        <time>2015-02-21T14:30:23Z</time>
      </trkpt>
      <trkpt lat="47.41041" lon="-0.6237">
        <ele>47.24</ele>
        <time>2015-02-21T14:30:35Z</time>
      </trkpt>
      <trkpt lat="47.41037" lon="-0.62379">
        <ele>48.2</ele>
        <time>2015-02-21T14:30:39Z</time>
      </trkpt>
      <trkpt lat="47.41036" lon="-0.62383">
        <ele>48.68</ele>
        <time>2015-02-21T14:30:40Z</time>
      </trkpt>
      <trkpt lat="47.41028" lon="-0.62463">
        <ele>48.2</ele>
        <time>2015-02-21T14:30:53Z</time>
      </trkpt>
      <trkpt lat="47.41013" lon="-0.62513">
        <ele>48.2</ele>
        <time>2015-02-21T14:31:01Z</time>
      </trkpt>
      <trkpt lat="47.41011" lon="-0.62518">
        <ele>48.2</ele>
        <time>2015-02-21T14:31:02Z</time>
      </trkpt>
      <trkpt lat="47.40957" lon="-0.62608">
        <ele>49.16</ele>
        <time>2015-02-21T14:31:19Z</time>
      </trkpt>
      <trkpt lat="47.40954" lon="-0.62613">
        <ele>49.65</ele>
        <time>2015-02-21T14:31:20Z</time>
      </trkpt>
      <trkpt lat="47.40952" lon="-0.62618">
        <ele>49.16</ele>
        <time>2015-02-21T14:31:21Z</time>
      </trkpt>
      <trkpt lat="47.4095" lon="-0.62625">
        <ele>49.16</ele>
        <time>2015-02-21T14:31:22Z</time>
      </trkpt>
      <trkpt lat="47.40949" lon="-0.62631">
        <ele>49.65</ele>
        <time>2015-02-21T14:31:23Z</time>
      </trkpt>
      <trkpt lat="47.4095" lon="-0.62638">
        <ele>49.65</ele>
        <time>2015-02-21T14:31:24Z</time>
      </trkpt>
      <trkpt lat="47.40951" lon="-0.62644">
        <ele>49.65</ele>
        <time>2015-02-21T14:31:25Z</time>
      </trkpt>
      <trkpt lat="47.40952" lon="-0.6265">
        <ele>50.13</ele>
        <time>2015-02-21T14:31:26Z</time>
      </trkpt>
      <trkpt lat="47.40954" lon="-0.62669">
        <ele>50.13</ele>
        <time>2015-02-21T14:31:29Z</time>
      </trkpt>
      <trkpt lat="47.40956" lon="-0.62675">
        <ele>50.13</ele>
        <time>2015-02-21T14:31:30Z</time>
      </trkpt>
      <trkpt lat="47.40959" lon="-0.6268">
        <ele>50.13</ele>
        <time>2015-02-21T14:31:31Z</time>
      </trkpt>
      <trkpt lat="47.40972" lon="-0.62699">
        <ele>51.09</ele>
        <time>2015-02-21T14:31:35Z</time>
      </trkpt>
      <trkpt lat="47.40974" lon="-0.62704">
        <ele>50.61</ele>
        <time>2015-02-21T14:31:36Z</time>
      </trkpt>
      <trkpt lat="47.40976" lon="-0.62709">
        <ele>50.61</ele>
        <time>2015-02-21T14:31:37Z</time>
      </trkpt>
      <trkpt lat="47.40981" lon="-0.62735">
        <ele>50.61</ele>
        <time>2015-02-21T14:31:42Z</time>
      </trkpt>
      <trkpt lat="47.40981" lon="-0.62747">
        <ele>50.61</ele>
        <time>2015-02-21T14:31:44Z</time>
      </trkpt>
      <trkpt lat="47.40981" lon="-0.62753">
        <ele>50.13</ele>
        <time>2015-02-21T14:31:45Z</time>
      </trkpt>
      <trkpt lat="47.4098" lon="-0.6276">
        <ele>50.13</ele>
        <time>2015-02-21T14:31:46Z</time>
      </trkpt>
      <trkpt lat="47.40967" lon="-0.62887">
        <ele>50.61</ele>
        <time>2015-02-21T14:32:04Z</time>
      </trkpt>
      <trkpt lat="47.40959" lon="-0.62988">
        <ele>51.09</ele>
        <time>2015-02-21T14:32:18Z</time>
      </trkpt>
      <trkpt lat="47.4096" lon="-0.62995">
        <ele>51.09</ele>
        <time>2015-02-21T14:32:19Z</time>
      </trkpt>
      <trkpt lat="47.40993" lon="-0.63109">
        <ele>51.57</ele>
        <time>2015-02-21T14:32:35Z</time>
      </trkpt>
      <trkpt lat="47.41004" lon="-0.63168">
        <ele>50.61</ele>
        <time>2015-02-21T14:32:42Z</time>
      </trkpt>
      <trkpt lat="47.41034" lon="-0.63324">
        <ele>50.61</ele>
        <time>2015-02-21T14:33:01Z</time>
      </trkpt>
      <trkpt lat="47.41061" lon="-0.63414">
        <ele>53.97</ele>
        <time>2015-02-21T14:33:16Z</time>
      </trkpt>
      <trkpt lat="47.41076" lon="-0.63463">
        <ele>55.41</ele>
        <time>2015-02-21T14:33:26Z</time>
      </trkpt>
      <trkpt lat="47.41098" lon="-0.63539">
        <ele>57.34</ele>
        <time>2015-02-21T14:33:43Z</time>
      </trkpt>
      <trkpt lat="47.41126" lon="-0.63608">
        <ele>59.74</ele>
        <time>2015-02-21T14:34:00Z</time>
      </trkpt>
      <trkpt lat="47.4117" lon="-0.63701">
        <ele>58.78</ele>
        <time>2015-02-21T14:34:19Z</time>
      </trkpt>
      <trkpt lat="47.4122" lon="-0.63767">
        <ele>55.41</ele>
        <time>2015-02-21T14:34:30Z</time>
      </trkpt>
      <trkpt lat="47.41225" lon="-0.63773">
        <ele>54.93</ele>
        <time>2015-02-21T14:34:31Z</time>
      </trkpt>
      <trkpt lat="47.41296" lon="-0.63871">
        <ele>54.93</ele>
        <time>2015-02-21T14:34:46Z</time>
      </trkpt>
      <trkpt lat="47.41331" lon="-0.63971">
        <ele>54.93</ele>
        <time>2015-02-21T14:35:02Z</time>
      </trkpt>
      <trkpt lat="47.41329" lon="-0.64042">
        <ele>54.93</ele>
        <time>2015-02-21T14:35:15Z</time>
      </trkpt>
      <trkpt lat="47.4133" lon="-0.64072">
        <ele>54.45</ele>
        <time>2015-02-21T14:35:20Z</time>
      </trkpt>
      <trkpt lat="47.4133" lon="-0.64079">
        <ele>54.93</ele>
        <time>2015-02-21T14:35:21Z</time>
      </trkpt>
      <trkpt lat="47.41331" lon="-0.64085">
        <ele>54.45</ele>
        <time>2015-02-21T14:35:22Z</time>
      </trkpt>
      <trkpt lat="47.41333" lon="-0.64092">
        <ele>54.45</ele>
        <time>2015-02-21T14:35:23Z</time>
      </trkpt>
      <trkpt lat="47.41335" lon="-0.64098">
        <ele>54.93</ele>
        <time>2015-02-21T14:35:24Z</time>
      </trkpt>
      <trkpt lat="47.41337" lon="-0.64104">
        <ele>54.93</ele>
        <time>2015-02-21T14:35:25Z</time>
      </trkpt>
      <trkpt lat="47.4134" lon="-0.64109">
        <ele>54.45</ele>
        <time>2015-02-21T14:35:26Z</time>
      </trkpt>
      <trkpt lat="47.41344" lon="-0.64115">
        <ele>54.93</ele>
        <time>2015-02-21T14:35:27Z</time>
      </trkpt>
      <trkpt lat="47.41347" lon="-0.6412">
        <ele>54.45</ele>
        <time>2015-02-21T14:35:28Z</time>
      </trkpt>
      <trkpt lat="47.41351" lon="-0.64125">
        <ele>54.45</ele>
        <time>2015-02-21T14:35:29Z</time>
      </trkpt>
      <trkpt lat="47.41424" lon="-0.64212">
        <ele>53.01</ele>
        <time>2015-02-21T14:35:45Z</time>
      </trkpt>
      <trkpt lat="47.4149" lon="-0.64321">
        <ele>51.09</ele>
        <time>2015-02-21T14:36:02Z</time>
      </trkpt>
      <trkpt lat="47.41494" lon="-0.64328">
        <ele>51.09</ele>
        <time>2015-02-21T14:36:03Z</time>
      </trkpt>
      <trkpt lat="47.41501" lon="-0.64348">
        <ele>52.05</ele>
        <time>2015-02-21T14:36:06Z</time>
      </trkpt>
      <trkpt lat="47.41502" lon="-0.64356">
        <ele>51.57</ele>
        <time>2015-02-21T14:36:07Z</time>
      </trkpt>
      <trkpt lat="47.41504" lon="-0.64363">
        <ele>51.57</ele>
        <time>2015-02-21T14:36:08Z</time>
      </trkpt>
      <trkpt lat="47.41514" lon="-0.6445">
        <ele>52.53</ele>
        <time>2015-02-21T14:36:20Z</time>
      </trkpt>
      <trkpt lat="47.41515" lon="-0.64457">
        <ele>52.05</ele>
        <time>2015-02-21T14:36:21Z</time>
      </trkpt>
      <trkpt lat="47.41525" lon="-0.6457">
        <ele>52.53</ele>
        <time>2015-02-21T14:36:37Z</time>
      </trkpt>
      <trkpt lat="47.41527" lon="-0.64576">
        <ele>52.53</ele>
        <time>2015-02-21T14:36:38Z</time>
      </trkpt>
      <trkpt lat="47.41531" lon="-0.64578">
        <ele>52.05</ele>
        <time>2015-02-21T14:36:39Z</time>
      </trkpt>
      <trkpt lat="47.41536" lon="-0.64576">
        <ele>52.05</ele>
        <time>2015-02-21T14:36:40Z</time>
      </trkpt>
      <trkpt lat="47.41541" lon="-0.64572">
        <ele>52.05</ele>
        <time>2015-02-21T14:36:41Z</time>
      </trkpt>
      <trkpt lat="47.41546" lon="-0.64566">
        <ele>51.57</ele>
        <time>2015-02-21T14:36:42Z</time>
      </trkpt>
      <trkpt lat="47.41551" lon="-0.64562">
        <ele>52.05</ele>
        <time>2015-02-21T14:36:43Z</time>
      </trkpt>
      <trkpt lat="47.41556" lon="-0.64557">
        <ele>51.09</ele>
        <time>2015-02-21T14:36:44Z</time>
      </trkpt>
      <trkpt lat="47.41649" lon="-0.64476">
        <ele>50.61</ele>
        <time>2015-02-21T14:37:01Z</time>
      </trkpt>
      <trkpt lat="47.41737" lon="-0.64409">
        <ele>48.68</ele>
        <time>2015-02-21T14:37:16Z</time>
      </trkpt>
      <trkpt lat="47.41823" lon="-0.64381">
        <ele>49.65</ele>
        <time>2015-02-21T14:37:31Z</time>
      </trkpt>
      <trkpt lat="47.41881" lon="-0.64356">
        <ele>49.16</ele>
        <time>2015-02-21T14:37:41Z</time>
      </trkpt>
      <trkpt lat="47.41936" lon="-0.643">
        <ele>45.8</ele>
        <time>2015-02-21T14:37:51Z</time>
      </trkpt>
      <trkpt lat="47.4197" lon="-0.6426">
        <ele>43.4</ele>
        <time>2015-02-21T14:37:56Z</time>
      </trkpt>
      <trkpt lat="47.4205" lon="-0.64188">
        <ele>42.44</ele>
        <time>2015-02-21T14:38:08Z</time>
      </trkpt>
      <trkpt lat="47.42118" lon="-0.64135">
        <ele>45.8</ele>
        <time>2015-02-21T14:38:22Z</time>
      </trkpt>
      <trkpt lat="47.42162" lon="-0.64091">
        <ele>48.68</ele>
        <time>2015-02-21T14:38:36Z</time>
      </trkpt>
      <trkpt lat="47.42204" lon="-0.64044">
        <ele>50.61</ele>
        <time>2015-02-21T14:38:52Z</time>
      </trkpt>
      <trkpt lat="47.42245" lon="-0.63997">
        <ele>52.53</ele>
        <time>2015-02-21T14:39:07Z</time>
      </trkpt>
      <trkpt lat="47.42305" lon="-0.63931">
        <ele>54.93</ele>
        <time>2015-02-21T14:39:28Z</time>
      </trkpt>
      <trkpt lat="47.42348" lon="-0.63884">
        <ele>56.37</ele>
        <time>2015-02-21T14:39:43Z</time>
      </trkpt>
      <trkpt lat="47.42388" lon="-0.63842">
        <ele>58.3</ele>
        <time>2015-02-21T14:39:57Z</time>
      </trkpt>
      <trkpt lat="47.4243" lon="-0.63796">
        <ele>60.22</ele>
        <time>2015-02-21T14:40:13Z</time>
      </trkpt>
      <trkpt lat="47.42485" lon="-0.63743">
        <ele>61.18</ele>
        <time>2015-02-21T14:40:32Z</time>
      </trkpt>
      <trkpt lat="47.42529" lon="-0.63695">
        <ele>61.66</ele>
        <time>2015-02-21T14:40:48Z</time>
      </trkpt>
      <trkpt lat="47.42556" lon="-0.63675">
        <ele>61.18</ele>
        <time>2015-02-21T14:40:56Z</time>
      </trkpt>
      <trkpt lat="47.4256" lon="-0.63673">
        <ele>61.18</ele>
        <time>2015-02-21T14:40:57Z</time>
      </trkpt>
      <trkpt lat="47.42587" lon="-0.63654">
        <ele>60.22</ele>
        <time>2015-02-21T14:41:04Z</time>
      </trkpt>
      <trkpt lat="47.42591" lon="-0.6365">
        <ele>59.74</ele>
        <time>2015-02-21T14:41:05Z</time>
      </trkpt>
      <trkpt lat="47.42599" lon="-0.63643">
        <ele>58.78</ele>
        <time>2015-02-21T14:41:07Z</time>
      </trkpt>
      <trkpt lat="47.42607" lon="-0.63634">
        <ele>57.82</ele>
        <time>2015-02-21T14:41:09Z</time>
      </trkpt>
      <trkpt lat="47.4262" lon="-0.63623">
        <ele>58.3</ele>
        <time>2015-02-21T14:41:12Z</time>
      </trkpt>
      <trkpt lat="47.42631" lon="-0.63611">
        <ele>56.86</ele>
        <time>2015-02-21T14:41:15Z</time>
      </trkpt>
      <trkpt lat="47.42635" lon="-0.63607">
        <ele>56.86</ele>
        <time>2015-02-21T14:41:16Z</time>
      </trkpt>
      <trkpt lat="47.42638" lon="-0.63604">
        <ele>56.86</ele>
        <time>2015-02-21T14:41:17Z</time>
      </trkpt>
      <trkpt lat="47.42654" lon="-0.63586">
        <ele>55.89</ele>
        <time>2015-02-21T14:41:22Z</time>
      </trkpt>
      <trkpt lat="47.42688" lon="-0.63551">
        <ele>53.01</ele>
        <time>2015-02-21T14:41:33Z</time>
      </trkpt>
      <trkpt lat="47.42733" lon="-0.6352">
        <ele>49.16</ele>
        <time>2015-02-21T14:41:46Z</time>
      </trkpt>
      <trkpt lat="47.42779" lon="-0.6349">
        <ele>47.24</ele>
        <time>2015-02-21T14:41:59Z</time>
      </trkpt>
      <trkpt lat="47.42796" lon="-0.63477">
        <ele>47.72</ele>
        <time>2015-02-21T14:42:08Z</time>
      </trkpt>
      <trkpt lat="47.42796" lon="-0.63478">
        <ele>48.2</ele>
        <time>2015-02-21T14:42:17Z</time>
      </trkpt>
      <trkpt lat="47.42812" lon="-0.63509">
        <ele>47.72</ele>
        <time>2015-02-21T14:42:27Z</time>
      </trkpt>
      <trkpt lat="47.42838" lon="-0.63577">
        <ele>45.8</ele>
        <time>2015-02-21T14:42:40Z</time>
      </trkpt>
      <trkpt lat="47.42852" lon="-0.63683">
        <ele>43.4</ele>
        <time>2015-02-21T14:42:55Z</time>
      </trkpt>
      <trkpt lat="47.42864" lon="-0.63758">
        <ele>42.92</ele>
        <time>2015-02-21T14:43:07Z</time>
      </trkpt>
      <trkpt lat="47.42883" lon="-0.63903">
        <ele>41.47</ele>
        <time>2015-02-21T14:43:25Z</time>
      </trkpt>
      <trkpt lat="47.42887" lon="-0.63933">
        <ele>41.47</ele>
        <time>2015-02-21T14:43:29Z</time>
      </trkpt>
      <trkpt lat="47.42912" lon="-0.64042">
        <ele>43.4</ele>
        <time>2015-02-21T14:43:46Z</time>
      </trkpt>
      <trkpt lat="47.42939" lon="-0.64117">
        <ele>45.32</ele>
        <time>2015-02-21T14:44:03Z</time>
      </trkpt>
      <trkpt lat="47.4296" lon="-0.64167">
        <ele>45.8</ele>
        <time>2015-02-21T14:44:15Z</time>
      </trkpt>
      <trkpt lat="47.42992" lon="-0.64248">
        <ele>45.8</ele>
        <time>2015-02-21T14:44:30Z</time>
      </trkpt>
      <trkpt lat="47.42996" lon="-0.64252">
        <ele>45.32</ele>
        <time>2015-02-21T14:44:31Z</time>
      </trkpt>
      <trkpt lat="47.43" lon="-0.64254">
        <ele>44.84</ele>
        <time>2015-02-21T14:44:32Z</time>
      </trkpt>
      <trkpt lat="47.43004" lon="-0.64254">
        <ele>44.84</ele>
        <time>2015-02-21T14:44:33Z</time>
      </trkpt>
      <trkpt lat="47.43009" lon="-0.64251">
        <ele>44.84</ele>
        <time>2015-02-21T14:44:34Z</time>
      </trkpt>
      <trkpt lat="47.43014" lon="-0.64247">
        <ele>44.84</ele>
        <time>2015-02-21T14:44:35Z</time>
      </trkpt>
      <trkpt lat="47.43032" lon="-0.64233">
        <ele>44.84</ele>
        <time>2015-02-21T14:44:39Z</time>
      </trkpt>
      <trkpt lat="47.43036" lon="-0.6423">
        <ele>45.32</ele>
        <time>2015-02-21T14:44:40Z</time>
      </trkpt>
      <trkpt lat="47.43116" lon="-0.64176">
        <ele>45.8</ele>
        <time>2015-02-21T14:44:59Z</time>
      </trkpt>
      <trkpt lat="47.4317" lon="-0.64145">
        <ele>46.28</ele>
        <time>2015-02-21T14:45:11Z</time>
      </trkpt>
      <trkpt lat="47.43175" lon="-0.64145">
        <ele>45.8</ele>
        <time>2015-02-21T14:45:12Z</time>
      </trkpt>
      <trkpt lat="47.4318" lon="-0.64144">
        <ele>46.28</ele>
        <time>2015-02-21T14:45:13Z</time>
      </trkpt>
      <trkpt lat="47.43184" lon="-0.64144">
        <ele>46.28</ele>
        <time>2015-02-21T14:45:14Z</time>
      </trkpt>
      <trkpt lat="47.43189" lon="-0.64144">
        <ele>46.28</ele>
        <time>2015-02-21T14:45:15Z</time>
      </trkpt>
      <trkpt lat="47.43193" lon="-0.64145">
        <ele>46.28</ele>
        <time>2015-02-21T14:45:16Z</time>
      </trkpt>
      <trkpt lat="47.43198" lon="-0.64146">
        <ele>46.28</ele>
        <time>2015-02-21T14:45:17Z</time>
      </trkpt>
      <trkpt lat="47.43202" lon="-0.64146">
        <ele>45.8</ele>
        <time>2015-02-21T14:45:18Z</time>
      </trkpt>
      <trkpt lat="47.43206" lon="-0.64147">
        <ele>45.8</ele>
        <time>2015-02-21T14:45:19Z</time>
      </trkpt>
      <trkpt lat="47.43251" lon="-0.64165">
        <ele>44.36</ele>
        <time>2015-02-21T14:45:28Z</time>
      </trkpt>
      <trkpt lat="47.43257" lon="-0.6417">
        <ele>42.92</ele>
        <time>2015-02-21T14:45:29Z</time>
      </trkpt>
      <trkpt lat="47.43262" lon="-0.64176">
        <ele>42.92</ele>
        <time>2015-02-21T14:45:30Z</time>
      </trkpt>
      <trkpt lat="47.43295" lon="-0.64215">
        <ele>39.55</ele>
        <time>2015-02-21T14:45:35Z</time>
      </trkpt>
      <trkpt lat="47.4331" lon="-0.64232">
        <ele>36.67</ele>
        <time>2015-02-21T14:45:37Z</time>
      </trkpt>
      <trkpt lat="47.43319" lon="-0.64239">
        <ele>35.71</ele>
        <time>2015-02-21T14:45:38Z</time>
      </trkpt>
      <trkpt lat="47.43328" lon="-0.64243">
        <ele>34.74</ele>
        <time>2015-02-21T14:45:39Z</time>
      </trkpt>
      <trkpt lat="47.43338" lon="-0.64246">
        <ele>33.78</ele>
        <time>2015-02-21T14:45:40Z</time>
      </trkpt>
      <trkpt lat="47.43349" lon="-0.64245">
        <ele>31.86</ele>
        <time>2015-02-21T14:45:41Z</time>
      </trkpt>
      <trkpt lat="47.43359" lon="-0.64245">
        <ele>32.82</ele>
        <time>2015-02-21T14:45:42Z</time>
      </trkpt>
      <trkpt lat="47.43433" lon="-0.6423">
        <ele>34.74</ele>
        <time>2015-02-21T14:45:51Z</time>
      </trkpt>
      <trkpt lat="47.43454" lon="-0.64224">
        <ele>37.15</ele>
        <time>2015-02-21T14:45:56Z</time>
      </trkpt>
      <trkpt lat="47.43462" lon="-0.64222">
        <ele>38.11</ele>
        <time>2015-02-21T14:45:58Z</time>
      </trkpt>
      <trkpt lat="47.43467" lon="-0.64222">
        <ele>38.59</ele>
        <time>2015-02-21T14:45:59Z</time>
      </trkpt>
      <trkpt lat="47.43472" lon="-0.64221">
        <ele>39.07</ele>
        <time>2015-02-21T14:46:00Z</time>
      </trkpt>
      <trkpt lat="47.43494" lon="-0.64218">
        <ele>41.95</ele>
        <time>2015-02-21T14:46:08Z</time>
      </trkpt>
      <trkpt lat="47.43521" lon="-0.64213">
        <ele>45.32</ele>
        <time>2015-02-21T14:46:23Z</time>
      </trkpt>
      <trkpt lat="47.43534" lon="-0.64212">
        <ele>46.76</ele>
        <time>2015-02-21T14:46:30Z</time>
      </trkpt>
      <trkpt lat="47.43559" lon="-0.64205">
        <ele>49.16</ele>
        <time>2015-02-21T14:46:43Z</time>
      </trkpt>
      <trkpt lat="47.43591" lon="-0.64197">
        <ele>51.09</ele>
        <time>2015-02-21T14:47:00Z</time>
      </trkpt>
      <trkpt lat="47.43612" lon="-0.64186">
        <ele>53.97</ele>
        <time>2015-02-21T14:47:15Z</time>
      </trkpt>
      <trkpt lat="47.43618" lon="-0.64184">
        <ele>54.45</ele>
        <time>2015-02-21T14:47:19Z</time>
      </trkpt>
      <trkpt lat="47.43639" lon="-0.64158">
        <ele>56.37</ele>
        <time>2015-02-21T14:47:34Z</time>
      </trkpt>
      <trkpt lat="47.43668" lon="-0.64102">
        <ele>59.26</ele>
        <time>2015-02-21T14:47:51Z</time>
      </trkpt>
      <trkpt lat="47.43693" lon="-0.64054">
        <ele>62.14</ele>
        <time>2015-02-21T14:48:05Z</time>
      </trkpt>
      <trkpt lat="47.43726" lon="-0.63999">
        <ele>65.03</ele>
        <time>2015-02-21T14:48:21Z</time>
      </trkpt>
      <trkpt lat="47.43763" lon="-0.63965">
        <ele>66.47</ele>
        <time>2015-02-21T14:48:37Z</time>
      </trkpt>
      <trkpt lat="47.43812" lon="-0.63926">
        <ele>65.99</ele>
        <time>2015-02-21T14:48:53Z</time>
      </trkpt>
      <trkpt lat="47.4387" lon="-0.63876">
        <ele>65.03</ele>
        <time>2015-02-21T14:49:08Z</time>
      </trkpt>
      <trkpt lat="47.43912" lon="-0.63845">
        <ele>64.55</ele>
        <time>2015-02-21T14:49:17Z</time>
      </trkpt>
      <trkpt lat="47.43974" lon="-0.6381">
        <ele>65.51</ele>
        <time>2015-02-21T14:49:31Z</time>
      </trkpt>
      <trkpt lat="47.44023" lon="-0.63777">
        <ele>68.39</ele>
        <time>2015-02-21T14:49:45Z</time>
      </trkpt>
      <trkpt lat="47.44076" lon="-0.63739">
        <ele>70.79</ele>
        <time>2015-02-21T14:50:00Z</time>
      </trkpt>
      <trkpt lat="47.44104" lon="-0.63719">
        <ele>72.72</ele>
        <time>2015-02-21T14:50:10Z</time>
      </trkpt>
      <trkpt lat="47.4412" lon="-0.63705">
        <ele>73.68</ele>
        <time>2015-02-21T14:50:22Z</time>
      </trkpt>
      <trkpt lat="47.4412" lon="-0.63704">
        <ele>73.68</ele>
        <time>2015-02-21T14:50:30Z</time>
      </trkpt>
      <trkpt lat="47.4412" lon="-0.63702">
        <ele>73.68</ele>
        <time>2015-02-21T14:50:31Z</time>
      </trkpt>
      <trkpt lat="47.4412" lon="-0.637">
        <ele>73.2</ele>
        <time>2015-02-21T14:50:32Z</time>
      </trkpt>
      <trkpt lat="47.4412" lon="-0.63697">
        <ele>73.68</ele>
        <time>2015-02-21T14:50:33Z</time>
      </trkpt>
      <trkpt lat="47.4412" lon="-0.63692">
        <ele>72.72</ele>
        <time>2015-02-21T14:50:34Z</time>
      </trkpt>
      <trkpt lat="47.4412" lon="-0.63688">
        <ele>72.72</ele>
        <time>2015-02-21T14:50:35Z</time>
      </trkpt>
      <trkpt lat="47.44114" lon="-0.63602">
        <ele>74.64</ele>
        <time>2015-02-21T14:50:54Z</time>
      </trkpt>
      <trkpt lat="47.44091" lon="-0.63517">
        <ele>75.6</ele>
        <time>2015-02-21T14:51:10Z</time>
      </trkpt>
      <trkpt lat="47.44081" lon="-0.63473">
        <ele>76.56</ele>
        <time>2015-02-21T14:51:20Z</time>
      </trkpt>
      <trkpt lat="47.44082" lon="-0.63471">
        <ele>76.56</ele>
        <time>2015-02-21T14:51:21Z</time>
      </trkpt>
      <trkpt lat="47.44111" lon="-0.63442">
        <ele>76.08</ele>
        <time>2015-02-21T14:51:34Z</time>
      </trkpt>
      <trkpt lat="47.44141" lon="-0.6341">
        <ele>74.64</ele>
        <time>2015-02-21T14:51:46Z</time>
      </trkpt>
      <trkpt lat="47.44155" lon="-0.634">
        <ele>71.76</ele>
        <time>2015-02-21T14:51:51Z</time>
      </trkpt>
      <trkpt lat="47.4417" lon="-0.63392">
        <ele>70.79</ele>
        <time>2015-02-21T14:51:55Z</time>
      </trkpt>
      <trkpt lat="47.44176" lon="-0.63389">
        <ele>70.79</ele>
        <time>2015-02-21T14:51:56Z</time>
      </trkpt>
      <trkpt lat="47.44242" lon="-0.6336">
        <ele>69.35</ele>
        <time>2015-02-21T14:52:08Z</time>
      </trkpt>
      <trkpt lat="47.4427" lon="-0.63333">
        <ele>70.31</ele>
        <time>2015-02-21T14:52:19Z</time>
      </trkpt>
      <trkpt lat="47.44305" lon="-0.63306">
        <ele>73.2</ele>
        <time>2015-02-21T14:52:33Z</time>
      </trkpt>
      <trkpt lat="47.44332" lon="-0.63287">
        <ele>74.16</ele>
        <time>2015-02-21T14:52:45Z</time>
      </trkpt>
      <trkpt lat="47.44358" lon="-0.63268">
        <ele>75.6</ele>
        <time>2015-02-21T14:52:57Z</time>
      </trkpt>
      <trkpt lat="47.4437" lon="-0.63252">
        <ele>76.08</ele>
        <time>2015-02-21T14:53:04Z</time>
      </trkpt>
      <trkpt lat="47.44371" lon="-0.63251">
        <ele>76.56</ele>
        <time>2015-02-21T14:53:05Z</time>
      </trkpt>
      <trkpt lat="47.44373" lon="-0.63251">
        <ele>76.56</ele>
        <time>2015-02-21T14:53:06Z</time>
      </trkpt>
      <trkpt lat="47.44375" lon="-0.63251">
        <ele>76.56</ele>
        <time>2015-02-21T14:53:07Z</time>
      </trkpt>
      <trkpt lat="47.44378" lon="-0.63252">
        <ele>76.56</ele>
        <time>2015-02-21T14:53:08Z</time>
      </trkpt>
      <trkpt lat="47.44381" lon="-0.63254">
        <ele>76.56</ele>
        <time>2015-02-21T14:53:09Z</time>
      </trkpt>
      <trkpt lat="47.44384" lon="-0.63255">
        <ele>76.56</ele>
        <time>2015-02-21T14:53:10Z</time>
      </trkpt>
      <trkpt lat="47.44428" lon="-0.63261">
        <ele>77.52</ele>
        <time>2015-02-21T14:53:25Z</time>
      </trkpt>
      <trkpt lat="47.44464" lon="-0.63234">
        <ele>78.97</ele>
        <time>2015-02-21T14:53:40Z</time>
      </trkpt>
      <trkpt lat="47.44503" lon="-0.63197">
        <ele>79.93</ele>
        <time>2015-02-21T14:53:55Z</time>
      </trkpt>
      <trkpt lat="47.44548" lon="-0.63155">
        <ele>80.41</ele>
        <time>2015-02-21T14:54:09Z</time>
      </trkpt>
      <trkpt lat="47.44596" lon="-0.63109">
        <ele>80.41</ele>
        <time>2015-02-21T14:54:23Z</time>
      </trkpt>
      <trkpt lat="47.44606" lon="-0.63096">
        <ele>80.41</ele>
        <time>2015-02-21T14:54:26Z</time>
      </trkpt>
      <trkpt lat="47.4464" lon="-0.63071">
        <ele>79.93</ele>
        <time>2015-02-21T14:54:36Z</time>
      </trkpt>
      <trkpt lat="47.44644" lon="-0.63073">
        <ele>79.93</ele>
        <time>2015-02-21T14:54:37Z</time>
      </trkpt>
      <trkpt lat="47.44647" lon="-0.63076">
        <ele>79.93</ele>
        <time>2015-02-21T14:54:38Z</time>
      </trkpt>
      <trkpt lat="47.4465" lon="-0.63081">
        <ele>79.93</ele>
        <time>2015-02-21T14:54:39Z</time>
      </trkpt>
      <trkpt lat="47.44653" lon="-0.63086">
        <ele>79.93</ele>
        <time>2015-02-21T14:54:40Z</time>
      </trkpt>
      <trkpt lat="47.44699" lon="-0.6318">
        <ele>79.93</ele>
        <time>2015-02-21T14:54:57Z</time>
      </trkpt>
      <trkpt lat="47.44742" lon="-0.63272">
        <ele>79.93</ele>
        <time>2015-02-21T14:55:12Z</time>
      </trkpt>
      <trkpt lat="47.44745" lon="-0.63278">
        <ele>79.93</ele>
        <time>2015-02-21T14:55:13Z</time>
      </trkpt>
      <trkpt lat="47.44748" lon="-0.63285">
        <ele>79.93</ele>
        <time>2015-02-21T14:55:14Z</time>
      </trkpt>
      <trkpt lat="47.4475" lon="-0.63292">
        <ele>79.93</ele>
        <time>2015-02-21T14:55:15Z</time>
      </trkpt>
      <trkpt lat="47.44753" lon="-0.63299">
        <ele>79.93</ele>
        <time>2015-02-21T14:55:16Z</time>
      </trkpt>
      <trkpt lat="47.44755" lon="-0.63307">
        <ele>79.45</ele>
        <time>2015-02-21T14:55:17Z</time>
      </trkpt>
      <trkpt lat="47.44765" lon="-0.63363">
        <ele>79.45</ele>
        <time>2015-02-21T14:55:24Z</time>
      </trkpt>
      <trkpt lat="47.44776" lon="-0.63487">
        <ele>78.97</ele>
        <time>2015-02-21T14:55:38Z</time>
      </trkpt>
      <trkpt lat="47.44795" lon="-0.63624">
        <ele>78.97</ele>
        <time>2015-02-21T14:55:54Z</time>
      </trkpt>
      <trkpt lat="47.44819" lon="-0.63778">
        <ele>78.48</ele>
        <time>2015-02-21T14:56:14Z</time>
      </trkpt>
      <trkpt lat="47.44841" lon="-0.63914">
        <ele>79.45</ele>
        <time>2015-02-21T14:56:34Z</time>
      </trkpt>
      <trkpt lat="47.44857" lon="-0.64018">
        <ele>80.41</ele>
        <time>2015-02-21T14:56:50Z</time>
      </trkpt>
      <trkpt lat="47.44873" lon="-0.64115">
        <ele>80.89</ele>
        <time>2015-02-21T14:57:05Z</time>
      </trkpt>
      <trkpt lat="47.44878" lon="-0.64128">
        <ele>81.37</ele>
        <time>2015-02-21T14:57:07Z</time>
      </trkpt>
      <trkpt lat="47.44892" lon="-0.64155">
        <ele>81.85</ele>
        <time>2015-02-21T14:57:12Z</time>
      </trkpt>
      <trkpt lat="47.4494" lon="-0.64214">
        <ele>82.33</ele>
        <time>2015-02-21T14:57:26Z</time>
      </trkpt>
      <trkpt lat="47.44985" lon="-0.64318">
        <ele>82.81</ele>
        <time>2015-02-21T14:57:43Z</time>
      </trkpt>
      <trkpt lat="47.44992" lon="-0.64329">
        <ele>82.33</ele>
        <time>2015-02-21T14:57:45Z</time>
      </trkpt>
      <trkpt lat="47.45047" lon="-0.64403">
        <ele>82.81</ele>
        <time>2015-02-21T14:58:00Z</time>
      </trkpt>
      <trkpt lat="47.45118" lon="-0.64505">
        <ele>81.85</ele>
        <time>2015-02-21T14:58:19Z</time>
      </trkpt>
      <trkpt lat="47.4517" lon="-0.64571">
        <ele>80.89</ele>
        <time>2015-02-21T14:58:33Z</time>
      </trkpt>
      <trkpt lat="47.45246" lon="-0.64645">
        <ele>78.97</ele>
        <time>2015-02-21T14:58:51Z</time>
      </trkpt>
      <trkpt lat="47.45256" lon="-0.64658">
        <ele>78.97</ele>
        <time>2015-02-21T14:58:54Z</time>
      </trkpt>
      <trkpt lat="47.45302" lon="-0.64748">
        <ele>78.97</ele>
        <time>2015-02-21T14:59:08Z</time>
      </trkpt>
      <trkpt lat="47.45344" lon="-0.64845">
        <ele>78.97</ele>
        <time>2015-02-21T14:59:23Z</time>
      </trkpt>
      <trkpt lat="47.4538" lon="-0.64925">
        <ele>79.45</ele>
        <time>2015-02-21T14:59:37Z</time>
      </trkpt>
      <trkpt lat="47.45415" lon="-0.65005">
        <ele>79.93</ele>
        <time>2015-02-21T14:59:50Z</time>
      </trkpt>
      <trkpt lat="47.45438" lon="-0.6506">
        <ele>76.56</ele>
        <time>2015-02-21T14:59:59Z</time>
      </trkpt>
      <trkpt lat="47.45441" lon="-0.65067">
        <ele>84.25</ele>
        <time>2015-02-21T15:00:00Z</time>
      </trkpt>
      <trkpt lat="47.45444" lon="-0.65074">
        <ele>79.93</ele>
        <time>2015-02-21T15:00:01Z</time>
      </trkpt>
      <trkpt lat="47.45472" lon="-0.65155">
        <ele>80.89</ele>
        <time>2015-02-21T15:00:15Z</time>
      </trkpt>
      <trkpt lat="47.45474" lon="-0.65168">
        <ele>81.37</ele>
        <time>2015-02-21T15:00:17Z</time>
      </trkpt>
      <trkpt lat="47.45474" lon="-0.65174">
        <ele>80.89</ele>
        <time>2015-02-21T15:00:18Z</time>
      </trkpt>
      <trkpt lat="47.45474" lon="-0.6518">
        <ele>81.37</ele>
        <time>2015-02-21T15:00:19Z</time>
      </trkpt>
      <trkpt lat="47.45484" lon="-0.65264">
        <ele>82.33</ele>
        <time>2015-02-21T15:00:32Z</time>
      </trkpt>
      <trkpt lat="47.45486" lon="-0.65276">
        <ele>82.33</ele>
        <time>2015-02-21T15:00:34Z</time>
      </trkpt>
      <trkpt lat="47.45489" lon="-0.65296">
        <ele>81.85</ele>
        <time>2015-02-21T15:00:37Z</time>
      </trkpt>
      <trkpt lat="47.45494" lon="-0.65321">
        <ele>82.33</ele>
        <time>2015-02-21T15:00:41Z</time>
      </trkpt>
      <trkpt lat="47.45496" lon="-0.65328">
        <ele>82.33</ele>
        <time>2015-02-21T15:00:42Z</time>
      </trkpt>
      <trkpt lat="47.45522" lon="-0.65414">
        <ele>82.81</ele>
        <time>2015-02-21T15:00:56Z</time>
      </trkpt>
      <trkpt lat="47.45535" lon="-0.6551">
        <ele>83.29</ele>
        <time>2015-02-21T15:01:10Z</time>
      </trkpt>
      <trkpt lat="47.45537" lon="-0.65518">
        <ele>83.29</ele>
        <time>2015-02-21T15:01:11Z</time>
      </trkpt>
      <trkpt lat="47.45547" lon="-0.6554">
        <ele>83.29</ele>
        <time>2015-02-21T15:01:15Z</time>
      </trkpt>
      <trkpt lat="47.45611" lon="-0.65595">
        <ele>83.29</ele>
        <time>2015-02-21T15:01:31Z</time>
      </trkpt>
      <trkpt lat="47.45701" lon="-0.6568">
        <ele>83.77</ele>
        <time>2015-02-21T15:01:53Z</time>
      </trkpt>
      <trkpt lat="47.45765" lon="-0.65771">
        <ele>82.33</ele>
        <time>2015-02-21T15:02:12Z</time>
      </trkpt>
      <trkpt lat="47.45791" lon="-0.65793">
        <ele>81.85</ele>
        <time>2015-02-21T15:02:22Z</time>
      </trkpt>
      <trkpt lat="47.45791" lon="-0.65799">
        <ele>82.33</ele>
        <time>2015-02-21T15:02:23Z</time>
      </trkpt>
      <trkpt lat="47.45792" lon="-0.65805">
        <ele>82.33</ele>
        <time>2015-02-21T15:02:24Z</time>
      </trkpt>
      <trkpt lat="47.45792" lon="-0.65811">
        <ele>81.85</ele>
        <time>2015-02-21T15:02:25Z</time>
      </trkpt>
      <trkpt lat="47.45794" lon="-0.65817">
        <ele>81.37</ele>
        <time>2015-02-21T15:02:26Z</time>
      </trkpt>
      <trkpt lat="47.45798" lon="-0.65823">
        <ele>81.85</ele>
        <time>2015-02-21T15:02:27Z</time>
      </trkpt>
      <trkpt lat="47.45824" lon="-0.65857">
        <ele>81.37</ele>
        <time>2015-02-21T15:02:34Z</time>
      </trkpt>
      <trkpt lat="47.45827" lon="-0.65862">
        <ele>81.37</ele>
        <time>2015-02-21T15:02:35Z</time>
      </trkpt>
      <trkpt lat="47.45831" lon="-0.65867">
        <ele>81.37</ele>
        <time>2015-02-21T15:02:36Z</time>
      </trkpt>
      <trkpt lat="47.45835" lon="-0.65871">
        <ele>81.85</ele>
        <time>2015-02-21T15:02:37Z</time>
      </trkpt>
      <trkpt lat="47.45839" lon="-0.65875">
        <ele>81.37</ele>
        <time>2015-02-21T15:02:38Z</time>
      </trkpt>
      <trkpt lat="47.45854" lon="-0.6589">
        <ele>80.89</ele>
        <time>2015-02-21T15:02:42Z</time>
      </trkpt>
      <trkpt lat="47.45858" lon="-0.65893">
        <ele>81.37</ele>
        <time>2015-02-21T15:02:43Z</time>
      </trkpt>
      <trkpt lat="47.4586" lon="-0.65895">
        <ele>79.93</ele>
        <time>2015-02-21T15:02:50Z</time>
      </trkpt>
      <trkpt lat="47.4586" lon="-0.65892">
        <ele>79.93</ele>
        <time>2015-02-21T15:03:25Z</time>
      </trkpt>
      <trkpt lat="47.45859" lon="-0.65893">
        <ele>79.45</ele>
        <time>2015-02-21T15:04:04Z</time>
      </trkpt>
      <trkpt lat="47.45867" lon="-0.65903">
        <ele>80.41</ele>
        <time>2015-02-21T15:04:27Z</time>
      </trkpt>
      <trkpt lat="47.45897" lon="-0.65949">
        <ele>79.93</ele>
        <time>2015-02-21T15:04:40Z</time>
      </trkpt>
      <trkpt lat="47.45912" lon="-0.65978">
        <ele>79.45</ele>
        <time>2015-02-21T15:04:46Z</time>
      </trkpt>
      <trkpt lat="47.45915" lon="-0.6598">
        <ele>79.45</ele>
        <time>2015-02-21T15:04:47Z</time>
      </trkpt>
      <trkpt lat="47.45919" lon="-0.65981">
        <ele>78.97</ele>
        <time>2015-02-21T15:04:48Z</time>
      </trkpt>
      <trkpt lat="47.45923" lon="-0.65982">
        <ele>79.45</ele>
        <time>2015-02-21T15:04:49Z</time>
      </trkpt>
      <trkpt lat="47.45927" lon="-0.65981">
        <ele>78.97</ele>
        <time>2015-02-21T15:04:50Z</time>
      </trkpt>
      <trkpt lat="47.45932" lon="-0.65981">
        <ele>78.97</ele>
        <time>2015-02-21T15:04:51Z</time>
      </trkpt>
      <trkpt lat="47.45936" lon="-0.65981">
        <ele>78.48</ele>
        <time>2015-02-21T15:04:52Z</time>
      </trkpt>
      <trkpt lat="47.4597" lon="-0.65993">
        <ele>78</ele>
        <time>2015-02-21T15:04:59Z</time>
      </trkpt>
      <trkpt lat="47.45984" lon="-0.66002">
        <ele>77.52</ele>
        <time>2015-02-21T15:05:02Z</time>
      </trkpt>
      <trkpt lat="47.46005" lon="-0.66022">
        <ele>77.52</ele>
        <time>2015-02-21T15:05:07Z</time>
      </trkpt>
      <trkpt lat="47.4601" lon="-0.66025">
        <ele>77.04</ele>
        <time>2015-02-21T15:05:08Z</time>
      </trkpt>
      <trkpt lat="47.46065" lon="-0.66073">
        <ele>76.08</ele>
        <time>2015-02-21T15:05:21Z</time>
      </trkpt>
      <trkpt lat="47.46073" lon="-0.66082">
        <ele>76.08</ele>
        <time>2015-02-21T15:05:23Z</time>
      </trkpt>
      <trkpt lat="47.46085" lon="-0.66093">
        <ele>75.6</ele>
        <time>2015-02-21T15:05:26Z</time>
      </trkpt>
      <trkpt lat="47.46089" lon="-0.66098">
        <ele>76.08</ele>
        <time>2015-02-21T15:05:27Z</time>
      </trkpt>
      <trkpt lat="47.46149" lon="-0.66171">
        <ele>74.64</ele>
        <time>2015-02-21T15:05:43Z</time>
      </trkpt>
      <trkpt lat="47.46175" lon="-0.66175">
        <ele>73.2</ele>
        <time>2015-02-21T15:05:51Z</time>
      </trkpt>
      <trkpt lat="47.46178" lon="-0.66178">
        <ele>73.68</ele>
        <time>2015-02-21T15:05:52Z</time>
      </trkpt>
      <trkpt lat="47.46181" lon="-0.66183">
        <ele>73.68</ele>
        <time>2015-02-21T15:05:53Z</time>
      </trkpt>
      <trkpt lat="47.46183" lon="-0.66188">
        <ele>73.2</ele>
        <time>2015-02-21T15:05:54Z</time>
      </trkpt>
      <trkpt lat="47.46185" lon="-0.66194">
        <ele>73.68</ele>
        <time>2015-02-21T15:05:55Z</time>
      </trkpt>
      <trkpt lat="47.46187" lon="-0.662">
        <ele>73.68</ele>
        <time>2015-02-21T15:05:56Z</time>
      </trkpt>
      <trkpt lat="47.46216" lon="-0.66293">
        <ele>73.68</ele>
        <time>2015-02-21T15:06:11Z</time>
      </trkpt>
      <trkpt lat="47.4622" lon="-0.66306">
        <ele>73.2</ele>
        <time>2015-02-21T15:06:13Z</time>
      </trkpt>
      <trkpt lat="47.4625" lon="-0.66401">
        <ele>73.68</ele>
        <time>2015-02-21T15:06:27Z</time>
      </trkpt>
      <trkpt lat="47.46265" lon="-0.66447">
        <ele>73.2</ele>
        <time>2015-02-21T15:06:34Z</time>
      </trkpt>
      <trkpt lat="47.46302" lon="-0.66572">
        <ele>74.16</ele>
        <time>2015-02-21T15:06:54Z</time>
      </trkpt>
      <trkpt lat="47.46319" lon="-0.66626">
        <ele>74.16</ele>
        <time>2015-02-21T15:07:03Z</time>
      </trkpt>
      <trkpt lat="47.46324" lon="-0.66635">
        <ele>74.64</ele>
        <time>2015-02-21T15:07:05Z</time>
      </trkpt>
      <trkpt lat="47.46327" lon="-0.6664">
        <ele>74.64</ele>
        <time>2015-02-21T15:07:06Z</time>
      </trkpt>
      <trkpt lat="47.4633" lon="-0.66642">
        <ele>74.64</ele>
        <time>2015-02-21T15:07:07Z</time>
      </trkpt>
      <trkpt lat="47.46335" lon="-0.66641">
        <ele>74.64</ele>
        <time>2015-02-21T15:07:08Z</time>
      </trkpt>
      <trkpt lat="47.46339" lon="-0.66639">
        <ele>74.16</ele>
        <time>2015-02-21T15:07:09Z</time>
      </trkpt>
      <trkpt lat="47.46343" lon="-0.66635">
        <ele>74.16</ele>
        <time>2015-02-21T15:07:10Z</time>
      </trkpt>
      <trkpt lat="47.46347" lon="-0.66631">
        <ele>73.68</ele>
        <time>2015-02-21T15:07:11Z</time>
      </trkpt>
      <trkpt lat="47.46421" lon="-0.66561">
        <ele>73.2</ele>
        <time>2015-02-21T15:07:26Z</time>
      </trkpt>
      <trkpt lat="47.46488" lon="-0.665">
        <ele>75.12</ele>
        <time>2015-02-21T15:07:41Z</time>
      </trkpt>
      <trkpt lat="47.46568" lon="-0.66452">
        <ele>75.12</ele>
        <time>2015-02-21T15:08:00Z</time>
      </trkpt>
      <trkpt lat="47.46573" lon="-0.66451">
        <ele>75.12</ele>
        <time>2015-02-21T15:08:01Z</time>
      </trkpt>
      <trkpt lat="47.46577" lon="-0.66448">
        <ele>75.12</ele>
        <time>2015-02-21T15:08:02Z</time>
      </trkpt>
      <trkpt lat="47.46581" lon="-0.66446">
        <ele>75.12</ele>
        <time>2015-02-21T15:08:03Z</time>
      </trkpt>
      <trkpt lat="47.46589" lon="-0.6644">
        <ele>74.64</ele>
        <time>2015-02-21T15:08:05Z</time>
      </trkpt>
      <trkpt lat="47.46593" lon="-0.66438">
        <ele>74.64</ele>
        <time>2015-02-21T15:08:06Z</time>
      </trkpt>
      <trkpt lat="47.46643" lon="-0.66411">
        <ele>71.76</ele>
        <time>2015-02-21T15:08:15Z</time>
      </trkpt>
      <trkpt lat="47.46656" lon="-0.66402">
        <ele>70.31</ele>
        <time>2015-02-21T15:08:17Z</time>
      </trkpt>
      <trkpt lat="47.46661" lon="-0.66394">
        <ele>69.35</ele>
        <time>2015-02-21T15:08:18Z</time>
      </trkpt>
      <trkpt lat="47.46665" lon="-0.66384">
        <ele>69.35</ele>
        <time>2015-02-21T15:08:19Z</time>
      </trkpt>
      <trkpt lat="47.46671" lon="-0.66365">
        <ele>68.87</ele>
        <time>2015-02-21T15:08:21Z</time>
      </trkpt>
      <trkpt lat="47.46675" lon="-0.66356">
        <ele>68.87</ele>
        <time>2015-02-21T15:08:22Z</time>
      </trkpt>
      <trkpt lat="47.4668" lon="-0.66349">
        <ele>68.87</ele>
        <time>2015-02-21T15:08:23Z</time>
      </trkpt>
      <trkpt lat="47.46751" lon="-0.66255">
        <ele>67.91</ele>
        <time>2015-02-21T15:08:37Z</time>
      </trkpt>
      <trkpt lat="47.46765" lon="-0.6624">
        <ele>67.43</ele>
        <time>2015-02-21T15:08:40Z</time>
      </trkpt>
      <trkpt lat="47.46768" lon="-0.66237">
        <ele>67.43</ele>
        <time>2015-02-21T15:08:41Z</time>
      </trkpt>
      <trkpt lat="47.4677" lon="-0.66235">
        <ele>67.43</ele>
        <time>2015-02-21T15:08:42Z</time>
      </trkpt>
      <trkpt lat="47.46771" lon="-0.66235">
        <ele>66.95</ele>
        <time>2015-02-21T15:08:43Z</time>
      </trkpt>
      <trkpt lat="47.46773" lon="-0.66235">
        <ele>66.95</ele>
        <time>2015-02-21T15:08:44Z</time>
      </trkpt>
      <trkpt lat="47.46775" lon="-0.66236">
        <ele>66.47</ele>
        <time>2015-02-21T15:08:45Z</time>
      </trkpt>
      <trkpt lat="47.46776" lon="-0.66237">
        <ele>66.95</ele>
        <time>2015-02-21T15:08:46Z</time>
      </trkpt>
      <trkpt lat="47.46777" lon="-0.66239">
        <ele>66.47</ele>
        <time>2015-02-21T15:08:47Z</time>
      </trkpt>
      <trkpt lat="47.46775" lon="-0.66243">
        <ele>66.95</ele>
        <time>2015-02-21T15:08:56Z</time>
      </trkpt>
      <trkpt lat="47.46774" lon="-0.66243">
        <ele>66.47</ele>
        <time>2015-02-21T15:08:57Z</time>
      </trkpt>
      <trkpt lat="47.46773" lon="-0.66242">
        <ele>66.95</ele>
        <time>2015-02-21T15:08:58Z</time>
      </trkpt>
      <trkpt lat="47.46776" lon="-0.6624">
        <ele>66.47</ele>
        <time>2015-02-21T15:09:12Z</time>
      </trkpt>
      <trkpt lat="47.46773" lon="-0.66243">
        <ele>66.47</ele>
        <time>2015-02-21T15:09:26Z</time>
      </trkpt>
      <trkpt lat="47.46772" lon="-0.66243">
        <ele>66.95</ele>
        <time>2015-02-21T15:09:27Z</time>
      </trkpt>
      <trkpt lat="47.4677" lon="-0.66242">
        <ele>66.47</ele>
        <time>2015-02-21T15:09:28Z</time>
      </trkpt>
      <trkpt lat="47.46768" lon="-0.66241">
        <ele>66.47</ele>
        <time>2015-02-21T15:09:29Z</time>
      </trkpt>
      <trkpt lat="47.46765" lon="-0.66241">
        <ele>66.95</ele>
        <time>2015-02-21T15:09:30Z</time>
      </trkpt>
      <trkpt lat="47.46763" lon="-0.66242">
        <ele>66.95</ele>
        <time>2015-02-21T15:09:31Z</time>
      </trkpt>
      <trkpt lat="47.46761" lon="-0.66243">
        <ele>66.95</ele>
        <time>2015-02-21T15:09:32Z</time>
      </trkpt>
      <trkpt lat="47.46756" lon="-0.66247">
        <ele>66.95</ele>
        <time>2015-02-21T15:09:35Z</time>
      </trkpt>
      <trkpt lat="47.46751" lon="-0.66253">
        <ele>66.95</ele>
        <time>2015-02-21T15:09:39Z</time>
      </trkpt>
      <trkpt lat="47.46749" lon="-0.66254">
        <ele>66.95</ele>
        <time>2015-02-21T15:09:40Z</time>
      </trkpt>
      <trkpt lat="47.46749" lon="-0.66254">
        <ele>66.95</ele>
        <time>2015-02-21T15:09:41Z</time>
      </trkpt>
      <trkpt lat="47.4675" lon="-0.66251">
        <ele>67.43</ele>
        <time>2015-02-21T15:09:43Z</time>
      </trkpt>
      <trkpt lat="47.46751" lon="-0.66249">
        <ele>67.43</ele>
        <time>2015-02-21T15:09:44Z</time>
      </trkpt>
      <trkpt lat="47.46753" lon="-0.66247">
        <ele>66.95</ele>
        <time>2015-02-21T15:09:45Z</time>
      </trkpt>
      <trkpt lat="47.46756" lon="-0.66245">
        <ele>67.43</ele>
        <time>2015-02-21T15:09:46Z</time>
      </trkpt>
      <trkpt lat="47.46758" lon="-0.66243">
        <ele>66.95</ele>
        <time>2015-02-21T15:09:47Z</time>
      </trkpt>
      <trkpt lat="47.46768" lon="-0.6624">
        <ele>66.47</ele>
        <time>2015-02-21T15:09:50Z</time>
      </trkpt>
      <trkpt lat="47.46772" lon="-0.66242">
        <ele>66.47</ele>
        <time>2015-02-21T15:09:51Z</time>
      </trkpt>
      <trkpt lat="47.46774" lon="-0.66245">
        <ele>67.43</ele>
        <time>2015-02-21T15:09:52Z</time>
      </trkpt>
      <trkpt lat="47.46776" lon="-0.66249">
        <ele>67.43</ele>
        <time>2015-02-21T15:09:53Z</time>
      </trkpt>
      <trkpt lat="47.46776" lon="-0.66255">
        <ele>66.95</ele>
        <time>2015-02-21T15:09:54Z</time>
      </trkpt>
      <trkpt lat="47.46777" lon="-0.66261">
        <ele>66.95</ele>
        <time>2015-02-21T15:09:55Z</time>
      </trkpt>
      <trkpt lat="47.46777" lon="-0.66267">
        <ele>66.95</ele>
        <time>2015-02-21T15:09:56Z</time>
      </trkpt>
      <trkpt lat="47.46778" lon="-0.66317">
        <ele>66.47</ele>
        <time>2015-02-21T15:10:04Z</time>
      </trkpt>
      <trkpt lat="47.46778" lon="-0.66337">
        <ele>66.47</ele>
        <time>2015-02-21T15:10:07Z</time>
      </trkpt>
      <trkpt lat="47.46778" lon="-0.66376">
        <ele>66.95</ele>
        <time>2015-02-21T15:10:13Z</time>
      </trkpt>
      <trkpt lat="47.46784" lon="-0.66419">
        <ele>66.95</ele>
        <time>2015-02-21T15:10:20Z</time>
      </trkpt>
      <trkpt lat="47.46817" lon="-0.66465">
        <ele>66.47</ele>
        <time>2015-02-21T15:10:33Z</time>
      </trkpt>
      <trkpt lat="47.46819" lon="-0.66467">
        <ele>65.99</ele>
        <time>2015-02-21T15:10:43Z</time>
      </trkpt>
      <trkpt lat="47.46819" lon="-0.66466">
        <ele>66.47</ele>
        <time>2015-02-21T15:10:44Z</time>
      </trkpt>
      <trkpt lat="47.468" lon="-0.66444">
        <ele>65.51</ele>
        <time>2015-02-21T15:10:56Z</time>
      </trkpt>
      <trkpt lat="47.46785" lon="-0.66417">
        <ele>65.99</ele>
        <time>2015-02-21T15:11:02Z</time>
      </trkpt>
      <trkpt lat="47.46783" lon="-0.66411">
        <ele>65.99</ele>
        <time>2015-02-21T15:11:03Z</time>
      </trkpt>
      <trkpt lat="47.46781" lon="-0.66405">
        <ele>65.99</ele>
        <time>2015-02-21T15:11:04Z</time>
      </trkpt>
      <trkpt lat="47.4678" lon="-0.66398">
        <ele>65.99</ele>
        <time>2015-02-21T15:11:05Z</time>
      </trkpt>
      <trkpt lat="47.46779" lon="-0.66392">
        <ele>65.99</ele>
        <time>2015-02-21T15:11:06Z</time>
      </trkpt>
      <trkpt lat="47.46779" lon="-0.66385">
        <ele>65.99</ele>
        <time>2015-02-21T15:11:07Z</time>
      </trkpt>
      <trkpt lat="47.46778" lon="-0.66378">
        <ele>65.99</ele>
        <time>2015-02-21T15:11:08Z</time>
      </trkpt>
      <trkpt lat="47.46777" lon="-0.66273">
        <ele>66.47</ele>
        <time>2015-02-21T15:11:23Z</time>
      </trkpt>
      <trkpt lat="47.46777" lon="-0.66247">
        <ele>66.47</ele>
        <time>2015-02-21T15:11:27Z</time>
      </trkpt>
      <trkpt lat="47.46775" lon="-0.66242">
        <ele>66.95</ele>
        <time>2015-02-21T15:11:28Z</time>
      </trkpt>
      <trkpt lat="47.46772" lon="-0.66238">
        <ele>66.47</ele>
        <time>2015-02-21T15:11:29Z</time>
      </trkpt>
      <trkpt lat="47.46769" lon="-0.66237">
        <ele>66.47</ele>
        <time>2015-02-21T15:11:30Z</time>
      </trkpt>
      <trkpt lat="47.46765" lon="-0.66237">
        <ele>66.95</ele>
        <time>2015-02-21T15:11:31Z</time>
      </trkpt>
      <trkpt lat="47.46761" lon="-0.6624">
        <ele>66.95</ele>
        <time>2015-02-21T15:11:32Z</time>
      </trkpt>
      <trkpt lat="47.46757" lon="-0.66244">
        <ele>66.95</ele>
        <time>2015-02-21T15:11:33Z</time>
      </trkpt>
      <trkpt lat="47.46754" lon="-0.66248">
        <ele>66.95</ele>
        <time>2015-02-21T15:11:34Z</time>
      </trkpt>
      <trkpt lat="47.46699" lon="-0.66322">
        <ele>67.43</ele>
        <time>2015-02-21T15:11:50Z</time>
      </trkpt>
      <trkpt lat="47.46667" lon="-0.66356">
        <ele>68.39</ele>
        <time>2015-02-21T15:12:00Z</time>
      </trkpt>
      <trkpt lat="47.46665" lon="-0.66353">
        <ele>67.91</ele>
        <time>2015-02-21T15:12:01Z</time>
      </trkpt>
      <trkpt lat="47.46664" lon="-0.66348">
        <ele>67.91</ele>
        <time>2015-02-21T15:12:02Z</time>
      </trkpt>
      <trkpt lat="47.46663" lon="-0.66342">
        <ele>68.87</ele>
        <time>2015-02-21T15:12:03Z</time>
      </trkpt>
      <trkpt lat="47.46663" lon="-0.66336">
        <ele>68.39</ele>
        <time>2015-02-21T15:12:04Z</time>
      </trkpt>
      <trkpt lat="47.46663" lon="-0.66267">
        <ele>68.87</ele>
        <time>2015-02-21T15:12:14Z</time>
      </trkpt>
      <trkpt lat="47.46664" lon="-0.6626">
        <ele>68.87</ele>
        <time>2015-02-21T15:12:15Z</time>
      </trkpt>
      <trkpt lat="47.46699" lon="-0.66161">
        <ele>68.39</ele>
        <time>2015-02-21T15:12:30Z</time>
      </trkpt>
      <trkpt lat="47.46704" lon="-0.66147">
        <ele>67.91</ele>
        <time>2015-02-21T15:12:32Z</time>
      </trkpt>
      <trkpt lat="47.46738" lon="-0.66053">
        <ele>68.39</ele>
        <time>2015-02-21T15:12:46Z</time>
      </trkpt>
      <trkpt lat="47.46739" lon="-0.66046">
        <ele>68.39</ele>
        <time>2015-02-21T15:12:47Z</time>
      </trkpt>
      <trkpt lat="47.46739" lon="-0.66039">
        <ele>68.39</ele>
        <time>2015-02-21T15:12:48Z</time>
      </trkpt>
      <trkpt lat="47.46738" lon="-0.66032">
        <ele>68.87</ele>
        <time>2015-02-21T15:12:49Z</time>
      </trkpt>
      <trkpt lat="47.46736" lon="-0.66025">
        <ele>68.87</ele>
        <time>2015-02-21T15:12:50Z</time>
      </trkpt>
      <trkpt lat="47.46734" lon="-0.66019">
        <ele>68.87</ele>
        <time>2015-02-21T15:12:51Z</time>
      </trkpt>
      <trkpt lat="47.46732" lon="-0.66012">
        <ele>68.87</ele>
        <time>2015-02-21T15:12:52Z</time>
      </trkpt>
      <trkpt lat="47.46729" lon="-0.66006">
        <ele>68.87</ele>
        <time>2015-02-21T15:12:53Z</time>
      </trkpt>
      <trkpt lat="47.46726" lon="-0.65999">
        <ele>68.39</ele>
        <time>2015-02-21T15:12:54Z</time>
      </trkpt>
      <trkpt lat="47.46698" lon="-0.65899">
        <ele>67.91</ele>
        <time>2015-02-21T15:13:08Z</time>
      </trkpt>
      <trkpt lat="47.46696" lon="-0.65892">
        <ele>67.43</ele>
        <time>2015-02-21T15:13:09Z</time>
      </trkpt>
      <trkpt lat="47.46692" lon="-0.65885">
        <ele>66.95</ele>
        <time>2015-02-21T15:13:10Z</time>
      </trkpt>
      <trkpt lat="47.46689" lon="-0.6588">
        <ele>66.95</ele>
        <time>2015-02-21T15:13:11Z</time>
      </trkpt>
      <trkpt lat="47.46685" lon="-0.65874">
        <ele>66.95</ele>
        <time>2015-02-21T15:13:12Z</time>
      </trkpt>
      <trkpt lat="47.46682" lon="-0.65868">
        <ele>66.95</ele>
        <time>2015-02-21T15:13:13Z</time>
      </trkpt>
      <trkpt lat="47.46681" lon="-0.6586">
        <ele>66.95</ele>
        <time>2015-02-21T15:13:14Z</time>
      </trkpt>
      <trkpt lat="47.46683" lon="-0.65853">
        <ele>66.95</ele>
        <time>2015-02-21T15:13:15Z</time>
      </trkpt>
      <trkpt lat="47.46686" lon="-0.65848">
        <ele>66.47</ele>
        <time>2015-02-21T15:13:16Z</time>
      </trkpt>
      <trkpt lat="47.46691" lon="-0.65844">
        <ele>66.47</ele>
        <time>2015-02-21T15:13:17Z</time>
      </trkpt>
      <trkpt lat="47.46696" lon="-0.65842">
        <ele>66.47</ele>
        <time>2015-02-21T15:13:18Z</time>
      </trkpt>
      <trkpt lat="47.46701" lon="-0.6584">
        <ele>66.47</ele>
        <time>2015-02-21T15:13:19Z</time>
      </trkpt>
      <trkpt lat="47.46705" lon="-0.65838">
        <ele>66.47</ele>
        <time>2015-02-21T15:13:20Z</time>
      </trkpt>
      <trkpt lat="47.46711" lon="-0.65835">
        <ele>66.47</ele>
        <time>2015-02-21T15:13:21Z</time>
      </trkpt>
      <trkpt lat="47.46747" lon="-0.6581">
        <ele>65.99</ele>
        <time>2015-02-21T15:13:29Z</time>
      </trkpt>
      <trkpt lat="47.46752" lon="-0.65808">
        <ele>66.47</ele>
        <time>2015-02-21T15:13:30Z</time>
      </trkpt>
      <trkpt lat="47.4682" lon="-0.65768">
        <ele>64.55</ele>
        <time>2015-02-21T15:13:44Z</time>
      </trkpt>
      <trkpt lat="47.46887" lon="-0.65751">
        <ele>62.62</ele>
        <time>2015-02-21T15:13:55Z</time>
      </trkpt>
      <trkpt lat="47.46899" lon="-0.65754">
        <ele>62.14</ele>
        <time>2015-02-21T15:13:57Z</time>
      </trkpt>
      <trkpt lat="47.46929" lon="-0.65763">
        <ele>61.66</ele>
        <time>2015-02-21T15:14:02Z</time>
      </trkpt>
      <trkpt lat="47.46934" lon="-0.65763">
        <ele>61.66</ele>
        <time>2015-02-21T15:14:03Z</time>
      </trkpt>
      <trkpt lat="47.46939" lon="-0.65761">
        <ele>61.66</ele>
        <time>2015-02-21T15:14:04Z</time>
      </trkpt>
      <trkpt lat="47.46954" lon="-0.65754">
        <ele>62.14</ele>
        <time>2015-02-21T15:14:07Z</time>
      </trkpt>
      <trkpt lat="47.46958" lon="-0.6575">
        <ele>62.62</ele>
        <time>2015-02-21T15:14:08Z</time>
      </trkpt>
      <trkpt lat="47.46963" lon="-0.65747">
        <ele>62.62</ele>
        <time>2015-02-21T15:14:09Z</time>
      </trkpt>
      <trkpt lat="47.46967" lon="-0.65743">
        <ele>62.62</ele>
        <time>2015-02-21T15:14:10Z</time>
      </trkpt>
      <trkpt lat="47.46971" lon="-0.6574">
        <ele>62.62</ele>
        <time>2015-02-21T15:14:11Z</time>
      </trkpt>
      <trkpt lat="47.47013" lon="-0.65719">
        <ele>65.51</ele>
        <time>2015-02-21T15:14:24Z</time>
      </trkpt>
      <trkpt lat="47.47045" lon="-0.657">
        <ele>68.39</ele>
        <time>2015-02-21T15:14:36Z</time>
      </trkpt>
      <trkpt lat="47.47083" lon="-0.65684">
        <ele>70.79</ele>
        <time>2015-02-21T15:14:51Z</time>
      </trkpt>
      <trkpt lat="47.47115" lon="-0.65671">
        <ele>74.16</ele>
        <time>2015-02-21T15:15:05Z</time>
      </trkpt>
      <trkpt lat="47.47133" lon="-0.65635">
        <ele>77.04</ele>
        <time>2015-02-21T15:15:19Z</time>
      </trkpt>
      <trkpt lat="47.47154" lon="-0.65615">
        <ele>78</ele>
        <time>2015-02-21T15:15:32Z</time>
      </trkpt>
      <trkpt lat="47.47185" lon="-0.65591">
        <ele>77.52</ele>
        <time>2015-02-21T15:15:46Z</time>
      </trkpt>
      <trkpt lat="47.47194" lon="-0.65577">
        <ele>78</ele>
        <time>2015-02-21T15:15:51Z</time>
      </trkpt>
      <trkpt lat="47.47194" lon="-0.65573">
        <ele>77.04</ele>
        <time>2015-02-21T15:15:52Z</time>
      </trkpt>
      <trkpt lat="47.47193" lon="-0.65571">
        <ele>77.04</ele>
        <time>2015-02-21T15:15:53Z</time>
      </trkpt>
      <trkpt lat="47.47188" lon="-0.65569">
        <ele>77.04</ele>
        <time>2015-02-21T15:15:55Z</time>
      </trkpt>
      <trkpt lat="47.47187" lon="-0.65571">
        <ele>76.56</ele>
        <time>2015-02-21T15:15:56Z</time>
      </trkpt>
      <trkpt lat="47.47186" lon="-0.65574">
        <ele>77.04</ele>
        <time>2015-02-21T15:15:57Z</time>
      </trkpt>
      <trkpt lat="47.47186" lon="-0.65578">
        <ele>77.52</ele>
        <time>2015-02-21T15:15:58Z</time>
      </trkpt>
      <trkpt lat="47.47186" lon="-0.65582">
        <ele>77.04</ele>
        <time>2015-02-21T15:15:59Z</time>
      </trkpt>
      <trkpt lat="47.47184" lon="-0.65591">
        <ele>78.48</ele>
        <time>2015-02-21T15:16:02Z</time>
      </trkpt>
      <trkpt lat="47.47182" lon="-0.65593">
        <ele>78.48</ele>
        <time>2015-02-21T15:16:03Z</time>
      </trkpt>
      <trkpt lat="47.4716" lon="-0.65646">
        <ele>77.52</ele>
        <time>2015-02-21T15:16:17Z</time>
      </trkpt>
      <trkpt lat="47.47168" lon="-0.65676">
        <ele>76.08</ele>
        <time>2015-02-21T15:16:22Z</time>
      </trkpt>
      <trkpt lat="47.4717" lon="-0.65682">
        <ele>77.04</ele>
        <time>2015-02-21T15:16:23Z</time>
      </trkpt>
      <trkpt lat="47.47172" lon="-0.65688">
        <ele>77.04</ele>
        <time>2015-02-21T15:16:24Z</time>
      </trkpt>
      <trkpt lat="47.47175" lon="-0.65692">
        <ele>76.56</ele>
        <time>2015-02-21T15:16:25Z</time>
      </trkpt>
      <trkpt lat="47.47178" lon="-0.65697">
        <ele>76.56</ele>
        <time>2015-02-21T15:16:26Z</time>
      </trkpt>
      <trkpt lat="47.47181" lon="-0.65701">
        <ele>76.56</ele>
        <time>2015-02-21T15:16:27Z</time>
      </trkpt>
      <trkpt lat="47.47184" lon="-0.65705">
        <ele>76.56</ele>
        <time>2015-02-21T15:16:28Z</time>
      </trkpt>
      <trkpt lat="47.47235" lon="-0.65753">
        <ele>73.2</ele>
        <time>2015-02-21T15:16:39Z</time>
      </trkpt>
      <trkpt lat="47.47305" lon="-0.65783">
        <ele>71.76</ele>
        <time>2015-02-21T15:16:52Z</time>
      </trkpt>
      <trkpt lat="47.47357" lon="-0.65796">
        <ele>69.83</ele>
        <time>2015-02-21T15:17:00Z</time>
      </trkpt>
      <trkpt lat="47.47402" lon="-0.65828">
        <ele>66.47</ele>
        <time>2015-02-21T15:17:06Z</time>
      </trkpt>
      <trkpt lat="47.47416" lon="-0.65839">
        <ele>65.03</ele>
        <time>2015-02-21T15:17:08Z</time>
      </trkpt>
      <trkpt lat="47.47423" lon="-0.65843">
        <ele>63.58</ele>
        <time>2015-02-21T15:17:09Z</time>
      </trkpt>
      <trkpt lat="47.47429" lon="-0.65844">
        <ele>62.62</ele>
        <time>2015-02-21T15:17:10Z</time>
      </trkpt>
      <trkpt lat="47.47434" lon="-0.65845">
        <ele>62.14</ele>
        <time>2015-02-21T15:17:11Z</time>
      </trkpt>
      <trkpt lat="47.47437" lon="-0.65844">
        <ele>61.18</ele>
        <time>2015-02-21T15:17:12Z</time>
      </trkpt>
      <trkpt lat="47.47439" lon="-0.65843">
        <ele>60.7</ele>
        <time>2015-02-21T15:17:13Z</time>
      </trkpt>
      <trkpt lat="47.47441" lon="-0.65841">
        <ele>60.7</ele>
        <time>2015-02-21T15:17:14Z</time>
      </trkpt>
      <trkpt lat="47.47445" lon="-0.65837">
        <ele>60.7</ele>
        <time>2015-02-21T15:17:27Z</time>
      </trkpt>
      <trkpt lat="47.47447" lon="-0.65835">
        <ele>60.7</ele>
        <time>2015-02-21T15:17:37Z</time>
      </trkpt>
      <trkpt lat="47.47447" lon="-0.65832">
        <ele>60.7</ele>
        <time>2015-02-21T15:17:38Z</time>
      </trkpt>
      <trkpt lat="47.47449" lon="-0.65829">
        <ele>60.7</ele>
        <time>2015-02-21T15:17:39Z</time>
      </trkpt>
      <trkpt lat="47.4745" lon="-0.65828">
        <ele>60.7</ele>
        <time>2015-02-21T15:17:40Z</time>
      </trkpt>
      <trkpt lat="47.47452" lon="-0.65826">
        <ele>61.18</ele>
        <time>2015-02-21T15:17:41Z</time>
      </trkpt>
      <trkpt lat="47.47459" lon="-0.65821">
        <ele>60.22</ele>
        <time>2015-02-21T15:17:43Z</time>
      </trkpt>
      <trkpt lat="47.47463" lon="-0.65818">
        <ele>59.74</ele>
        <time>2015-02-21T15:17:44Z</time>
      </trkpt>
      <trkpt lat="47.47476" lon="-0.6581">
        <ele>55.89</ele>
        <time>2015-02-21T15:17:47Z</time>
      </trkpt>
      <trkpt lat="47.4748" lon="-0.6581">
        <ele>55.89</ele>
        <time>2015-02-21T15:17:48Z</time>
      </trkpt>
      <trkpt lat="47.47483" lon="-0.6581">
        <ele>55.41</ele>
        <time>2015-02-21T15:17:49Z</time>
      </trkpt>
      <trkpt lat="47.47486" lon="-0.65809">
        <ele>55.41</ele>
        <time>2015-02-21T15:17:50Z</time>
      </trkpt>
      <trkpt lat="47.47488" lon="-0.65804">
        <ele>54.45</ele>
        <time>2015-02-21T15:17:51Z</time>
      </trkpt>
      <trkpt lat="47.47491" lon="-0.65787">
        <ele>53.97</ele>
        <time>2015-02-21T15:17:54Z</time>
      </trkpt>
      <trkpt lat="47.47492" lon="-0.6578">
        <ele>53.49</ele>
        <time>2015-02-21T15:17:55Z</time>
      </trkpt>
      <trkpt lat="47.47493" lon="-0.65765">
        <ele>53.49</ele>
        <time>2015-02-21T15:17:57Z</time>
      </trkpt>
      <trkpt lat="47.47496" lon="-0.65743">
        <ele>53.01</ele>
        <time>2015-02-21T15:18:00Z</time>
      </trkpt>
      <trkpt lat="47.47497" lon="-0.65736">
        <ele>53.01</ele>
        <time>2015-02-21T15:18:01Z</time>
      </trkpt>
      <trkpt lat="47.47501" lon="-0.65722">
        <ele>52.53</ele>
        <time>2015-02-21T15:18:03Z</time>
      </trkpt>
      <trkpt lat="47.47503" lon="-0.65716">
        <ele>52.53</ele>
        <time>2015-02-21T15:18:04Z</time>
      </trkpt>
      <trkpt lat="47.47513" lon="-0.65674">
        <ele>52.05</ele>
        <time>2015-02-21T15:18:11Z</time>
      </trkpt>
      <trkpt lat="47.47515" lon="-0.65668">
        <ele>52.05</ele>
        <time>2015-02-21T15:18:12Z</time>
      </trkpt>
      <trkpt lat="47.47517" lon="-0.65663">
        <ele>52.53</ele>
        <time>2015-02-21T15:18:13Z</time>
      </trkpt>
      <trkpt lat="47.47529" lon="-0.65624">
        <ele>52.05</ele>
        <time>2015-02-21T15:18:19Z</time>
      </trkpt>
      <trkpt lat="47.47552" lon="-0.65524">
        <ele>52.05</ele>
        <time>2015-02-21T15:18:33Z</time>
      </trkpt>
      <trkpt lat="47.47569" lon="-0.65459">
        <ele>51.57</ele>
        <time>2015-02-21T15:18:42Z</time>
      </trkpt>
      <trkpt lat="47.47571" lon="-0.65452">
        <ele>51.57</ele>
        <time>2015-02-21T15:18:43Z</time>
      </trkpt>
      <trkpt lat="47.47578" lon="-0.6543">
        <ele>51.09</ele>
        <time>2015-02-21T15:18:46Z</time>
      </trkpt>
      <trkpt lat="47.47581" lon="-0.65423">
        <ele>51.09</ele>
        <time>2015-02-21T15:18:47Z</time>
      </trkpt>
      <trkpt lat="47.47584" lon="-0.65418">
        <ele>51.09</ele>
        <time>2015-02-21T15:18:48Z</time>
      </trkpt>
      <trkpt lat="47.47587" lon="-0.65413">
        <ele>51.09</ele>
        <time>2015-02-21T15:18:49Z</time>
      </trkpt>
      <trkpt lat="47.4759" lon="-0.65408">
        <ele>50.61</ele>
        <time>2015-02-21T15:18:50Z</time>
      </trkpt>
      <trkpt lat="47.47592" lon="-0.65403">
        <ele>50.61</ele>
        <time>2015-02-21T15:18:51Z</time>
      </trkpt>
      <trkpt lat="47.47594" lon="-0.65397">
        <ele>50.13</ele>
        <time>2015-02-21T15:18:52Z</time>
      </trkpt>
      <trkpt lat="47.47595" lon="-0.6539">
        <ele>50.61</ele>
        <time>2015-02-21T15:18:53Z</time>
      </trkpt>
      <trkpt lat="47.47608" lon="-0.65354">
        <ele>50.61</ele>
        <time>2015-02-21T15:19:02Z</time>
      </trkpt>
      <trkpt lat="47.47612" lon="-0.6535">
        <ele>50.61</ele>
        <time>2015-02-21T15:19:03Z</time>
      </trkpt>
      <trkpt lat="47.4767" lon="-0.65289">
        <ele>49.65</ele>
        <time>2015-02-21T15:19:18Z</time>
      </trkpt>
      <trkpt lat="47.47724" lon="-0.65224">
        <ele>49.65</ele>
        <time>2015-02-21T15:19:32Z</time>
      </trkpt>
      <trkpt lat="47.47759" lon="-0.65141">
        <ele>48.68</ele>
        <time>2015-02-21T15:19:44Z</time>
      </trkpt>
      <trkpt lat="47.47762" lon="-0.65135">
        <ele>48.68</ele>
        <time>2015-02-21T15:19:45Z</time>
      </trkpt>
      <trkpt lat="47.47766" lon="-0.65129">
        <ele>49.16</ele>
        <time>2015-02-21T15:19:46Z</time>
      </trkpt>
      <trkpt lat="47.47782" lon="-0.65107">
        <ele>48.68</ele>
        <time>2015-02-21T15:19:50Z</time>
      </trkpt>
      <trkpt lat="47.47787" lon="-0.65104">
        <ele>48.68</ele>
        <time>2015-02-21T15:19:51Z</time>
      </trkpt>
      <trkpt lat="47.47792" lon="-0.65102">
        <ele>49.16</ele>
        <time>2015-02-21T15:19:52Z</time>
      </trkpt>
      <trkpt lat="47.47796" lon="-0.65101">
        <ele>49.16</ele>
        <time>2015-02-21T15:19:53Z</time>
      </trkpt>
      <trkpt lat="47.47801" lon="-0.65098">
        <ele>49.16</ele>
        <time>2015-02-21T15:19:54Z</time>
      </trkpt>
      <trkpt lat="47.47805" lon="-0.65094">
        <ele>49.16</ele>
        <time>2015-02-21T15:19:55Z</time>
      </trkpt>
      <trkpt lat="47.47809" lon="-0.65089">
        <ele>49.16</ele>
        <time>2015-02-21T15:19:56Z</time>
      </trkpt>
      <trkpt lat="47.47873" lon="-0.6503">
        <ele>49.65</ele>
        <time>2015-02-21T15:20:11Z</time>
      </trkpt>
      <trkpt lat="47.4789" lon="-0.65018">
        <ele>50.13</ele>
        <time>2015-02-21T15:20:15Z</time>
      </trkpt>
      <trkpt lat="47.47904" lon="-0.65008">
        <ele>50.13</ele>
        <time>2015-02-21T15:20:18Z</time>
      </trkpt>
      <trkpt lat="47.47925" lon="-0.64987">
        <ele>49.16</ele>
        <time>2015-02-21T15:20:23Z</time>
      </trkpt>
      <trkpt lat="47.47929" lon="-0.64983">
        <ele>49.65</ele>
        <time>2015-02-21T15:20:24Z</time>
      </trkpt>
      <trkpt lat="47.47961" lon="-0.64943">
        <ele>48.68</ele>
        <time>2015-02-21T15:20:32Z</time>
      </trkpt>
      <trkpt lat="47.47983" lon="-0.64907">
        <ele>48.2</ele>
        <time>2015-02-21T15:20:38Z</time>
      </trkpt>
      <trkpt lat="47.48002" lon="-0.64879">
        <ele>47.72</ele>
        <time>2015-02-21T15:20:43Z</time>
      </trkpt>
      <trkpt lat="47.48006" lon="-0.64875">
        <ele>47.24</ele>
        <time>2015-02-21T15:20:44Z</time>
      </trkpt>
      <trkpt lat="47.4801" lon="-0.64872">
        <ele>46.76</ele>
        <time>2015-02-21T15:20:45Z</time>
      </trkpt>
      <trkpt lat="47.48013" lon="-0.6487">
        <ele>47.24</ele>
        <time>2015-02-21T15:20:46Z</time>
      </trkpt>
      <trkpt lat="47.48016" lon="-0.64869">
        <ele>46.76</ele>
        <time>2015-02-21T15:20:47Z</time>
      </trkpt>
      <trkpt lat="47.48019" lon="-0.64869">
        <ele>46.76</ele>
        <time>2015-02-21T15:20:48Z</time>
      </trkpt>
      <trkpt lat="47.48021" lon="-0.64869">
        <ele>45.8</ele>
        <time>2015-02-21T15:20:49Z</time>
      </trkpt>
      <trkpt lat="47.48023" lon="-0.64867">
        <ele>46.76</ele>
        <time>2015-02-21T15:20:50Z</time>
      </trkpt>
      <trkpt lat="47.48026" lon="-0.64863">
        <ele>47.24</ele>
        <time>2015-02-21T15:20:51Z</time>
      </trkpt>
      <trkpt lat="47.48027" lon="-0.64857">
        <ele>46.28</ele>
        <time>2015-02-21T15:20:52Z</time>
      </trkpt>
      <trkpt lat="47.48029" lon="-0.64851">
        <ele>45.8</ele>
        <time>2015-02-21T15:20:53Z</time>
      </trkpt>
      <trkpt lat="47.48029" lon="-0.64843">
        <ele>45.8</ele>
        <time>2015-02-21T15:20:54Z</time>
      </trkpt>
      <trkpt lat="47.48028" lon="-0.64836">
        <ele>45.32</ele>
        <time>2015-02-21T15:20:55Z</time>
      </trkpt>
      <trkpt lat="47.48026" lon="-0.64829">
        <ele>45.32</ele>
        <time>2015-02-21T15:20:56Z</time>
      </trkpt>
      <trkpt lat="47.48024" lon="-0.64823">
        <ele>44.84</ele>
        <time>2015-02-21T15:20:57Z</time>
      </trkpt>
      <trkpt lat="47.48022" lon="-0.64817">
        <ele>45.32</ele>
        <time>2015-02-21T15:20:58Z</time>
      </trkpt>
      <trkpt lat="47.48015" lon="-0.64799">
        <ele>45.8</ele>
        <time>2015-02-21T15:21:01Z</time>
      </trkpt>
      <trkpt lat="47.4801" lon="-0.64787">
        <ele>46.76</ele>
        <time>2015-02-21T15:21:03Z</time>
      </trkpt>
      <trkpt lat="47.48007" lon="-0.64781">
        <ele>46.76</ele>
        <time>2015-02-21T15:21:04Z</time>
      </trkpt>
      <trkpt lat="47.48005" lon="-0.64776">
        <ele>47.72</ele>
        <time>2015-02-21T15:21:05Z</time>
      </trkpt>
      <trkpt lat="47.48002" lon="-0.64771">
        <ele>48.2</ele>
        <time>2015-02-21T15:21:06Z</time>
      </trkpt>
      <trkpt lat="47.48" lon="-0.64767">
        <ele>48.2</ele>
        <time>2015-02-21T15:21:07Z</time>
      </trkpt>
      <trkpt lat="47.47998" lon="-0.64762">
        <ele>48.68</ele>
        <time>2015-02-21T15:21:08Z</time>
      </trkpt>
      <trkpt lat="47.47995" lon="-0.64759">
        <ele>48.68</ele>
        <time>2015-02-21T15:21:09Z</time>
      </trkpt>
      <trkpt lat="47.47972" lon="-0.64712">
        <ele>52.05</ele>
        <time>2015-02-21T15:21:21Z</time>
      </trkpt>
      <trkpt lat="47.4796" lon="-0.64665">
        <ele>53.01</ele>
        <time>2015-02-21T15:21:34Z</time>
      </trkpt>
      <trkpt lat="47.47951" lon="-0.64611">
        <ele>54.93</ele>
        <time>2015-02-21T15:21:48Z</time>
      </trkpt>
      <trkpt lat="47.47935" lon="-0.64562">
        <ele>56.86</ele>
        <time>2015-02-21T15:22:03Z</time>
      </trkpt>
      <trkpt lat="47.47918" lon="-0.64527">
        <ele>60.22</ele>
        <time>2015-02-21T15:22:17Z</time>
      </trkpt>
      <trkpt lat="47.47904" lon="-0.64483">
        <ele>62.62</ele>
        <time>2015-02-21T15:22:33Z</time>
      </trkpt>
      <trkpt lat="47.47888" lon="-0.64445">
        <ele>63.58</ele>
        <time>2015-02-21T15:22:46Z</time>
      </trkpt>
      <trkpt lat="47.47862" lon="-0.64395">
        <ele>64.07</ele>
        <time>2015-02-21T15:23:01Z</time>
      </trkpt>
      <trkpt lat="47.47841" lon="-0.64342">
        <ele>65.03</ele>
        <time>2015-02-21T15:23:14Z</time>
      </trkpt>
      <trkpt lat="47.47824" lon="-0.64272">
        <ele>66.47</ele>
        <time>2015-02-21T15:23:28Z</time>
      </trkpt>
      <trkpt lat="47.47818" lon="-0.64242">
        <ele>67.91</ele>
        <time>2015-02-21T15:23:35Z</time>
      </trkpt>
      <trkpt lat="47.47819" lon="-0.64238">
        <ele>67.91</ele>
        <time>2015-02-21T15:23:36Z</time>
      </trkpt>
      <trkpt lat="47.47822" lon="-0.64234">
        <ele>67.43</ele>
        <time>2015-02-21T15:23:37Z</time>
      </trkpt>
      <trkpt lat="47.47857" lon="-0.64175">
        <ele>64.55</ele>
        <time>2015-02-21T15:23:49Z</time>
      </trkpt>
      <trkpt lat="47.47863" lon="-0.64169">
        <ele>64.07</ele>
        <time>2015-02-21T15:23:50Z</time>
      </trkpt>
      <trkpt lat="47.47919" lon="-0.6413">
        <ele>60.7</ele>
        <time>2015-02-21T15:23:58Z</time>
      </trkpt>
      <trkpt lat="47.47946" lon="-0.64099">
        <ele>60.22</ele>
        <time>2015-02-21T15:24:03Z</time>
      </trkpt>
      <trkpt lat="47.47948" lon="-0.64092">
        <ele>60.22</ele>
        <time>2015-02-21T15:24:04Z</time>
      </trkpt>
      <trkpt lat="47.4795" lon="-0.64087">
        <ele>59.74</ele>
        <time>2015-02-21T15:24:05Z</time>
      </trkpt>
      <trkpt lat="47.47951" lon="-0.64083">
        <ele>59.74</ele>
        <time>2015-02-21T15:24:06Z</time>
      </trkpt>
      <trkpt lat="47.47953" lon="-0.64081">
        <ele>60.22</ele>
        <time>2015-02-21T15:24:17Z</time>
      </trkpt>
      <trkpt lat="47.47953" lon="-0.6408">
        <ele>60.7</ele>
        <time>2015-02-21T15:24:19Z</time>
      </trkpt>
      <trkpt lat="47.47955" lon="-0.64079">
        <ele>60.22</ele>
        <time>2015-02-21T15:24:20Z</time>
      </trkpt>
      <trkpt lat="47.4796" lon="-0.64079">
        <ele>59.74</ele>
        <time>2015-02-21T15:24:22Z</time>
      </trkpt>
      <trkpt lat="47.47997" lon="-0.64099">
        <ele>58.78</ele>
        <time>2015-02-21T15:24:33Z</time>
      </trkpt>
      <trkpt lat="47.48" lon="-0.64101">
        <ele>58.78</ele>
        <time>2015-02-21T15:24:34Z</time>
      </trkpt>
      <trkpt lat="47.48035" lon="-0.64119">
        <ele>57.34</ele>
        <time>2015-02-21T15:24:44Z</time>
      </trkpt>
      <trkpt lat="47.48054" lon="-0.64128">
        <ele>56.86</ele>
        <time>2015-02-21T15:24:48Z</time>
      </trkpt>
      <trkpt lat="47.48107" lon="-0.64153">
        <ele>53.49</ele>
        <time>2015-02-21T15:24:57Z</time>
      </trkpt>
      <trkpt lat="47.48181" lon="-0.64195">
        <ele>50.61</ele>
        <time>2015-02-21T15:25:08Z</time>
      </trkpt>
      <trkpt lat="47.4827" lon="-0.6424">
        <ele>47.72</ele>
        <time>2015-02-21T15:25:20Z</time>
      </trkpt>
      <trkpt lat="47.48353" lon="-0.64282">
        <ele>44.36</ele>
        <time>2015-02-21T15:25:34Z</time>
      </trkpt>
      <trkpt lat="47.48394" lon="-0.64304">
        <ele>44.36</ele>
        <time>2015-02-21T15:25:42Z</time>
      </trkpt>
      <trkpt lat="47.48428" lon="-0.64317">
        <ele>44.36</ele>
        <time>2015-02-21T15:25:54Z</time>
      </trkpt>
      <trkpt lat="47.48446" lon="-0.6433">
        <ele>44.84</ele>
        <time>2015-02-21T15:26:05Z</time>
      </trkpt>
      <trkpt lat="47.4849" lon="-0.64352">
        <ele>44.84</ele>
        <time>2015-02-21T15:26:17Z</time>
      </trkpt>
      <trkpt lat="47.48494" lon="-0.64355">
        <ele>44.36</ele>
        <time>2015-02-21T15:26:18Z</time>
      </trkpt>
      <trkpt lat="47.48574" lon="-0.64397">
        <ele>45.8</ele>
        <time>2015-02-21T15:26:37Z</time>
      </trkpt>
      <trkpt lat="47.48604" lon="-0.64399">
        <ele>45.8</ele>
        <time>2015-02-21T15:26:47Z</time>
      </trkpt>
      <trkpt lat="47.48656" lon="-0.64374">
        <ele>47.24</ele>
        <time>2015-02-21T15:27:03Z</time>
      </trkpt>
      <trkpt lat="47.48708" lon="-0.64357">
        <ele>49.65</ele>
        <time>2015-02-21T15:27:16Z</time>
      </trkpt>
      <trkpt lat="47.4873" lon="-0.64351">
        <ele>50.13</ele>
        <time>2015-02-21T15:27:22Z</time>
      </trkpt>
      <trkpt lat="47.48795" lon="-0.64325">
        <ele>52.05</ele>
        <time>2015-02-21T15:27:38Z</time>
      </trkpt>
      <trkpt lat="47.48866" lon="-0.64272">
        <ele>51.09</ele>
        <time>2015-02-21T15:27:55Z</time>
      </trkpt>
      <trkpt lat="47.48908" lon="-0.64233">
        <ele>49.65</ele>
        <time>2015-02-21T15:28:04Z</time>
      </trkpt>
      <trkpt lat="47.48913" lon="-0.6423">
        <ele>50.13</ele>
        <time>2015-02-21T15:28:05Z</time>
      </trkpt>
      <trkpt lat="47.48923" lon="-0.64225">
        <ele>49.65</ele>
        <time>2015-02-21T15:28:07Z</time>
      </trkpt>
      <trkpt lat="47.48928" lon="-0.64223">
        <ele>49.65</ele>
        <time>2015-02-21T15:28:08Z</time>
      </trkpt>
      <trkpt lat="47.49028" lon="-0.64202">
        <ele>49.65</ele>
        <time>2015-02-21T15:28:25Z</time>
      </trkpt>
      <trkpt lat="47.49073" lon="-0.6419">
        <ele>48.2</ele>
        <time>2015-02-21T15:28:33Z</time>
      </trkpt>
      <trkpt lat="47.49077" lon="-0.64185">
        <ele>47.72</ele>
        <time>2015-02-21T15:28:34Z</time>
      </trkpt>
      <trkpt lat="47.49079" lon="-0.64179">
        <ele>48.2</ele>
        <time>2015-02-21T15:28:35Z</time>
      </trkpt>
      <trkpt lat="47.49079" lon="-0.64172">
        <ele>48.2</ele>
        <time>2015-02-21T15:28:36Z</time>
      </trkpt>
      <trkpt lat="47.49078" lon="-0.64166">
        <ele>48.68</ele>
        <time>2015-02-21T15:28:37Z</time>
      </trkpt>
      <trkpt lat="47.49075" lon="-0.6416">
        <ele>48.2</ele>
        <time>2015-02-21T15:28:38Z</time>
      </trkpt>
      <trkpt lat="47.49072" lon="-0.64154">
        <ele>48.2</ele>
        <time>2015-02-21T15:28:39Z</time>
      </trkpt>
      <trkpt lat="47.4907" lon="-0.64147">
        <ele>47.72</ele>
        <time>2015-02-21T15:28:40Z</time>
      </trkpt>
      <trkpt lat="47.4904" lon="-0.6405">
        <ele>46.76</ele>
        <time>2015-02-21T15:28:55Z</time>
      </trkpt>
      <trkpt lat="47.49039" lon="-0.64029">
        <ele>46.76</ele>
        <time>2015-02-21T15:29:01Z</time>
      </trkpt>
      <trkpt lat="47.4904" lon="-0.64028">
        <ele>46.28</ele>
        <time>2015-02-21T15:29:11Z</time>
      </trkpt>
      <trkpt lat="47.49041" lon="-0.64027">
        <ele>46.76</ele>
        <time>2015-02-21T15:29:28Z</time>
      </trkpt>
      <trkpt lat="47.49042" lon="-0.64031">
        <ele>46.28</ele>
        <time>2015-02-21T15:29:43Z</time>
      </trkpt>
      <trkpt lat="47.49043" lon="-0.64039">
        <ele>46.28</ele>
        <time>2015-02-21T15:29:48Z</time>
      </trkpt>
      <trkpt lat="47.49042" lon="-0.64041">
        <ele>46.28</ele>
        <time>2015-02-21T15:29:49Z</time>
      </trkpt>
      <trkpt lat="47.49042" lon="-0.64044">
        <ele>46.76</ele>
        <time>2015-02-21T15:29:50Z</time>
      </trkpt>
      <trkpt lat="47.49049" lon="-0.6409">
        <ele>47.24</ele>
        <time>2015-02-21T15:29:59Z</time>
      </trkpt>
      <trkpt lat="47.49051" lon="-0.64096">
        <ele>47.72</ele>
        <time>2015-02-21T15:30:00Z</time>
      </trkpt>
      <trkpt lat="47.49078" lon="-0.64183">
        <ele>48.68</ele>
        <time>2015-02-21T15:30:17Z</time>
      </trkpt>
      <trkpt lat="47.49076" lon="-0.64187">
        <ele>48.2</ele>
        <time>2015-02-21T15:30:18Z</time>
      </trkpt>
      <trkpt lat="47.49074" lon="-0.6419">
        <ele>47.72</ele>
        <time>2015-02-21T15:30:19Z</time>
      </trkpt>
      <trkpt lat="47.49071" lon="-0.64192">
        <ele>47.24</ele>
        <time>2015-02-21T15:30:20Z</time>
      </trkpt>
      <trkpt lat="47.49068" lon="-0.64194">
        <ele>47.72</ele>
        <time>2015-02-21T15:30:21Z</time>
      </trkpt>
      <trkpt lat="47.49064" lon="-0.64194">
        <ele>47.72</ele>
        <time>2015-02-21T15:30:22Z</time>
      </trkpt>
      <trkpt lat="47.4906" lon="-0.64194">
        <ele>47.72</ele>
        <time>2015-02-21T15:30:23Z</time>
      </trkpt>
      <trkpt lat="47.49056" lon="-0.64194">
        <ele>47.24</ele>
        <time>2015-02-21T15:30:24Z</time>
      </trkpt>
      <trkpt lat="47.49051" lon="-0.64195">
        <ele>48.2</ele>
        <time>2015-02-21T15:30:25Z</time>
      </trkpt>
      <trkpt lat="47.48963" lon="-0.64214">
        <ele>48.68</ele>
        <time>2015-02-21T15:30:44Z</time>
      </trkpt>
      <trkpt lat="47.48926" lon="-0.64223">
        <ele>48.68</ele>
        <time>2015-02-21T15:30:52Z</time>
      </trkpt>
      <trkpt lat="47.48921" lon="-0.64225">
        <ele>48.68</ele>
        <time>2015-02-21T15:30:53Z</time>
      </trkpt>
      <trkpt lat="47.48916" lon="-0.64228">
        <ele>48.2</ele>
        <time>2015-02-21T15:30:54Z</time>
      </trkpt>
      <trkpt lat="47.48912" lon="-0.64231">
        <ele>48.2</ele>
        <time>2015-02-21T15:30:55Z</time>
      </trkpt>
      <trkpt lat="47.48908" lon="-0.64234">
        <ele>48.68</ele>
        <time>2015-02-21T15:30:56Z</time>
      </trkpt>
      <trkpt lat="47.48844" lon="-0.64293">
        <ele>50.61</ele>
        <time>2015-02-21T15:31:13Z</time>
      </trkpt>
      <trkpt lat="47.48814" lon="-0.64316">
        <ele>51.09</ele>
        <time>2015-02-21T15:31:21Z</time>
      </trkpt>
      <trkpt lat="47.48802" lon="-0.64323">
        <ele>50.61</ele>
        <time>2015-02-21T15:31:24Z</time>
      </trkpt>
      <trkpt lat="47.48798" lon="-0.64326">
        <ele>51.09</ele>
        <time>2015-02-21T15:31:25Z</time>
      </trkpt>
      <trkpt lat="47.48794" lon="-0.64329">
        <ele>50.61</ele>
        <time>2015-02-21T15:31:26Z</time>
      </trkpt>
      <trkpt lat="47.4879" lon="-0.64331">
        <ele>51.09</ele>
        <time>2015-02-21T15:31:27Z</time>
      </trkpt>
      <trkpt lat="47.48785" lon="-0.64334">
        <ele>51.09</ele>
        <time>2015-02-21T15:31:28Z</time>
      </trkpt>
      <trkpt lat="47.48697" lon="-0.64364">
        <ele>48.68</ele>
        <time>2015-02-21T15:31:44Z</time>
      </trkpt>
      <trkpt lat="47.48608" lon="-0.64392">
        <ele>45.32</ele>
        <time>2015-02-21T15:31:57Z</time>
      </trkpt>
      <trkpt lat="47.48602" lon="-0.64394">
        <ele>45.32</ele>
        <time>2015-02-21T15:31:58Z</time>
      </trkpt>
      <trkpt lat="47.48598" lon="-0.64399">
        <ele>45.32</ele>
        <time>2015-02-21T15:31:59Z</time>
      </trkpt>
      <trkpt lat="47.48595" lon="-0.64405">
        <ele>44.36</ele>
        <time>2015-02-21T15:32:00Z</time>
      </trkpt>
      <trkpt lat="47.48594" lon="-0.64412">
        <ele>45.32</ele>
        <time>2015-02-21T15:32:01Z</time>
      </trkpt>
      <trkpt lat="47.48596" lon="-0.6442">
        <ele>45.32</ele>
        <time>2015-02-21T15:32:02Z</time>
      </trkpt>
      <trkpt lat="47.48599" lon="-0.64425">
        <ele>45.32</ele>
        <time>2015-02-21T15:32:03Z</time>
      </trkpt>
      <trkpt lat="47.48604" lon="-0.64429">
        <ele>45.32</ele>
        <time>2015-02-21T15:32:04Z</time>
      </trkpt>
      <trkpt lat="47.48609" lon="-0.64432">
        <ele>44.84</ele>
        <time>2015-02-21T15:32:05Z</time>
      </trkpt>
      <trkpt lat="47.4864" lon="-0.6446">
        <ele>45.8</ele>
        <time>2015-02-21T15:32:11Z</time>
      </trkpt>
      <trkpt lat="47.48686" lon="-0.64497">
        <ele>48.2</ele>
        <time>2015-02-21T15:32:20Z</time>
      </trkpt>
      <trkpt lat="47.48691" lon="-0.645">
        <ele>48.2</ele>
        <time>2015-02-21T15:32:21Z</time>
      </trkpt>
      <trkpt lat="47.487" lon="-0.64503">
        <ele>48.2</ele>
        <time>2015-02-21T15:32:23Z</time>
      </trkpt>
      <trkpt lat="47.48705" lon="-0.64506">
        <ele>48.68</ele>
        <time>2015-02-21T15:32:24Z</time>
      </trkpt>
      <trkpt lat="47.48745" lon="-0.64535">
        <ele>49.65</ele>
        <time>2015-02-21T15:32:36Z</time>
      </trkpt>
      <trkpt lat="47.48795" lon="-0.64567">
        <ele>52.05</ele>
        <time>2015-02-21T15:32:50Z</time>
      </trkpt>
      <trkpt lat="47.4885" lon="-0.64596">
        <ele>53.01</ele>
        <time>2015-02-21T15:33:06Z</time>
      </trkpt>
      <trkpt lat="47.48886" lon="-0.64612">
        <ele>53.49</ele>
        <time>2015-02-21T15:33:16Z</time>
      </trkpt>
      <trkpt lat="47.48894" lon="-0.64617">
        <ele>53.49</ele>
        <time>2015-02-21T15:33:18Z</time>
      </trkpt>
      <trkpt lat="47.48975" lon="-0.64654">
        <ele>52.53</ele>
        <time>2015-02-21T15:33:35Z</time>
      </trkpt>
      <trkpt lat="47.49066" lon="-0.64694">
        <ele>52.53</ele>
        <time>2015-02-21T15:33:53Z</time>
      </trkpt>
      <trkpt lat="47.4909" lon="-0.64701">
        <ele>53.01</ele>
        <time>2015-02-21T15:33:58Z</time>
      </trkpt>
      <trkpt lat="47.49109" lon="-0.64703">
        <ele>53.01</ele>
        <time>2015-02-21T15:34:02Z</time>
      </trkpt>
      <trkpt lat="47.49114" lon="-0.64705">
        <ele>53.01</ele>
        <time>2015-02-21T15:34:03Z</time>
      </trkpt>
      <trkpt lat="47.49119" lon="-0.64707">
        <ele>52.53</ele>
        <time>2015-02-21T15:34:04Z</time>
      </trkpt>
      <trkpt lat="47.49194" lon="-0.64719">
        <ele>52.53</ele>
        <time>2015-02-21T15:34:19Z</time>
      </trkpt>
      <trkpt lat="47.49277" lon="-0.64724">
        <ele>53.97</ele>
        <time>2015-02-21T15:34:36Z</time>
      </trkpt>
      <trkpt lat="47.49356" lon="-0.6471">
        <ele>54.45</ele>
        <time>2015-02-21T15:34:53Z</time>
      </trkpt>
      <trkpt lat="47.49446" lon="-0.64718">
        <ele>53.49</ele>
        <time>2015-02-21T15:35:10Z</time>
      </trkpt>
      <trkpt lat="47.4951" lon="-0.64708">
        <ele>50.13</ele>
        <time>2015-02-21T15:35:19Z</time>
      </trkpt>
      <trkpt lat="47.49543" lon="-0.64709">
        <ele>49.16</ele>
        <time>2015-02-21T15:35:23Z</time>
      </trkpt>
      <trkpt lat="47.4955" lon="-0.64712">
        <ele>48.68</ele>
        <time>2015-02-21T15:35:24Z</time>
      </trkpt>
      <trkpt lat="47.49627" lon="-0.64739">
        <ele>47.24</ele>
        <time>2015-02-21T15:35:35Z</time>
      </trkpt>
      <trkpt lat="47.49633" lon="-0.64743">
        <ele>46.76</ele>
        <time>2015-02-21T15:35:36Z</time>
      </trkpt>
      <trkpt lat="47.49639" lon="-0.64748">
        <ele>46.76</ele>
        <time>2015-02-21T15:35:37Z</time>
      </trkpt>
      <trkpt lat="47.49644" lon="-0.64753">
        <ele>46.76</ele>
        <time>2015-02-21T15:35:38Z</time>
      </trkpt>
      <trkpt lat="47.49649" lon="-0.64759">
        <ele>46.76</ele>
        <time>2015-02-21T15:35:39Z</time>
      </trkpt>
      <trkpt lat="47.49653" lon="-0.64766">
        <ele>46.76</ele>
        <time>2015-02-21T15:35:40Z</time>
      </trkpt>
      <trkpt lat="47.49686" lon="-0.64823">
        <ele>45.8</ele>
        <time>2015-02-21T15:35:48Z</time>
      </trkpt>
      <trkpt lat="47.49691" lon="-0.6483">
        <ele>44.84</ele>
        <time>2015-02-21T15:35:49Z</time>
      </trkpt>
      <trkpt lat="47.49706" lon="-0.64854">
        <ele>44.84</ele>
        <time>2015-02-21T15:35:52Z</time>
      </trkpt>
      <trkpt lat="47.49721" lon="-0.6489">
        <ele>42.92</ele>
        <time>2015-02-21T15:35:56Z</time>
      </trkpt>
      <trkpt lat="47.49738" lon="-0.64939">
        <ele>40.51</ele>
        <time>2015-02-21T15:36:01Z</time>
      </trkpt>
      <trkpt lat="47.49799" lon="-0.65075">
        <ele>40.03</ele>
        <time>2015-02-21T15:36:16Z</time>
      </trkpt>
      <trkpt lat="47.49823" lon="-0.65127">
        <ele>41.95</ele>
        <time>2015-02-21T15:36:22Z</time>
      </trkpt>
      <trkpt lat="47.49853" lon="-0.65183">
        <ele>44.84</ele>
        <time>2015-02-21T15:36:29Z</time>
      </trkpt>
      <trkpt lat="47.49882" lon="-0.6525">
        <ele>47.24</ele>
        <time>2015-02-21T15:36:41Z</time>
      </trkpt>
      <trkpt lat="47.49887" lon="-0.6526">
        <ele>47.24</ele>
        <time>2015-02-21T15:36:43Z</time>
      </trkpt>
      <trkpt lat="47.49889" lon="-0.65266">
        <ele>46.76</ele>
        <time>2015-02-21T15:36:44Z</time>
      </trkpt>
      <trkpt lat="47.49925" lon="-0.65367">
        <ele>46.76</ele>
        <time>2015-02-21T15:37:01Z</time>
      </trkpt>
      <trkpt lat="47.49963" lon="-0.65471">
        <ele>47.24</ele>
        <time>2015-02-21T15:37:18Z</time>
      </trkpt>
      <trkpt lat="47.50012" lon="-0.65593">
        <ele>49.16</ele>
        <time>2015-02-21T15:37:37Z</time>
      </trkpt>
      <trkpt lat="47.5005" lon="-0.65706">
        <ele>51.57</ele>
        <time>2015-02-21T15:37:55Z</time>
      </trkpt>
      <trkpt lat="47.50089" lon="-0.65835">
        <ele>53.49</ele>
        <time>2015-02-21T15:38:17Z</time>
      </trkpt>
      <trkpt lat="47.50095" lon="-0.65867">
        <ele>53.49</ele>
        <time>2015-02-21T15:38:22Z</time>
      </trkpt>
      <trkpt lat="47.50101" lon="-0.65942">
        <ele>53.01</ele>
        <time>2015-02-21T15:38:33Z</time>
      </trkpt>
      <trkpt lat="47.50102" lon="-0.65949">
        <ele>53.49</ele>
        <time>2015-02-21T15:38:34Z</time>
      </trkpt>
      <trkpt lat="47.50105" lon="-0.65955">
        <ele>53.49</ele>
        <time>2015-02-21T15:38:35Z</time>
      </trkpt>
      <trkpt lat="47.50108" lon="-0.65961">
        <ele>53.01</ele>
        <time>2015-02-21T15:38:36Z</time>
      </trkpt>
      <trkpt lat="47.50112" lon="-0.65966">
        <ele>53.01</ele>
        <time>2015-02-21T15:38:37Z</time>
      </trkpt>
      <trkpt lat="47.50116" lon="-0.6597">
        <ele>53.49</ele>
        <time>2015-02-21T15:38:38Z</time>
      </trkpt>
      <trkpt lat="47.5012" lon="-0.65973">
        <ele>53.49</ele>
        <time>2015-02-21T15:38:39Z</time>
      </trkpt>
      <trkpt lat="47.50124" lon="-0.65975">
        <ele>53.01</ele>
        <time>2015-02-21T15:38:40Z</time>
      </trkpt>
      <trkpt lat="47.50147" lon="-0.65986">
        <ele>52.05</ele>
        <time>2015-02-21T15:38:45Z</time>
      </trkpt>
      <trkpt lat="47.50152" lon="-0.65988">
        <ele>51.57</ele>
        <time>2015-02-21T15:38:46Z</time>
      </trkpt>
      <trkpt lat="47.5024" lon="-0.66029">
        <ele>49.65</ele>
        <time>2015-02-21T15:39:02Z</time>
      </trkpt>
      <trkpt lat="47.50256" lon="-0.66037">
        <ele>49.65</ele>
        <time>2015-02-21T15:39:05Z</time>
      </trkpt>
      <trkpt lat="47.50311" lon="-0.66053">
        <ele>46.28</ele>
        <time>2015-02-21T15:39:14Z</time>
      </trkpt>
      <trkpt lat="47.50318" lon="-0.66055">
        <ele>46.28</ele>
        <time>2015-02-21T15:39:15Z</time>
      </trkpt>
      <trkpt lat="47.50358" lon="-0.66065">
        <ele>43.88</ele>
        <time>2015-02-21T15:39:20Z</time>
      </trkpt>
      <trkpt lat="47.50366" lon="-0.66064">
        <ele>43.88</ele>
        <time>2015-02-21T15:39:21Z</time>
      </trkpt>
      <trkpt lat="47.50374" lon="-0.66062">
        <ele>43.88</ele>
        <time>2015-02-21T15:39:22Z</time>
      </trkpt>
      <trkpt lat="47.50425" lon="-0.66044">
        <ele>43.4</ele>
        <time>2015-02-21T15:39:29Z</time>
      </trkpt>
      <trkpt lat="47.50459" lon="-0.66028">
        <ele>43.4</ele>
        <time>2015-02-21T15:39:34Z</time>
      </trkpt>
      <trkpt lat="47.50465" lon="-0.66028">
        <ele>42.92</ele>
        <time>2015-02-21T15:39:35Z</time>
      </trkpt>
      <trkpt lat="47.50472" lon="-0.66028">
        <ele>42.92</ele>
        <time>2015-02-21T15:39:36Z</time>
      </trkpt>
      <trkpt lat="47.50479" lon="-0.66029">
        <ele>42.92</ele>
        <time>2015-02-21T15:39:37Z</time>
      </trkpt>
      <trkpt lat="47.50485" lon="-0.6603">
        <ele>43.4</ele>
        <time>2015-02-21T15:39:38Z</time>
      </trkpt>
      <trkpt lat="47.50491" lon="-0.66032">
        <ele>42.92</ele>
        <time>2015-02-21T15:39:39Z</time>
      </trkpt>
      <trkpt lat="47.50584" lon="-0.66069">
        <ele>43.4</ele>
        <time>2015-02-21T15:39:55Z</time>
      </trkpt>
      <trkpt lat="47.50677" lon="-0.66117">
        <ele>43.88</ele>
        <time>2015-02-21T15:40:13Z</time>
      </trkpt>
      <trkpt lat="47.50739" lon="-0.66168">
        <ele>40.51</ele>
        <time>2015-02-21T15:40:24Z</time>
      </trkpt>
      <trkpt lat="47.50745" lon="-0.66174">
        <ele>40.51</ele>
        <time>2015-02-21T15:40:25Z</time>
      </trkpt>
      <trkpt lat="47.50834" lon="-0.66267">
        <ele>38.11</ele>
        <time>2015-02-21T15:40:41Z</time>
      </trkpt>
      <trkpt lat="47.50839" lon="-0.66272">
        <ele>38.11</ele>
        <time>2015-02-21T15:40:42Z</time>
      </trkpt>
      <trkpt lat="47.50845" lon="-0.66276">
        <ele>38.11</ele>
        <time>2015-02-21T15:40:43Z</time>
      </trkpt>
      <trkpt lat="47.5085" lon="-0.6628">
        <ele>37.63</ele>
        <time>2015-02-21T15:40:44Z</time>
      </trkpt>
      <trkpt lat="47.50856" lon="-0.66282">
        <ele>37.63</ele>
        <time>2015-02-21T15:40:45Z</time>
      </trkpt>
      <trkpt lat="47.50862" lon="-0.66284">
        <ele>37.63</ele>
        <time>2015-02-21T15:40:46Z</time>
      </trkpt>
      <trkpt lat="47.50943" lon="-0.66333">
        <ele>40.03</ele>
        <time>2015-02-21T15:41:02Z</time>
      </trkpt>
      <trkpt lat="47.50978" lon="-0.66364">
        <ele>41.95</ele>
        <time>2015-02-21T15:41:10Z</time>
      </trkpt>
      <trkpt lat="47.51057" lon="-0.6644">
        <ele>40.51</ele>
        <time>2015-02-21T15:41:27Z</time>
      </trkpt>
      <trkpt lat="47.51149" lon="-0.6651">
        <ele>38.11</ele>
        <time>2015-02-21T15:41:44Z</time>
      </trkpt>
      <trkpt lat="47.51242" lon="-0.66557">
        <ele>37.15</ele>
        <time>2015-02-21T15:41:59Z</time>
      </trkpt>
      <trkpt lat="47.513" lon="-0.66607">
        <ele>40.03</ele>
        <time>2015-02-21T15:42:13Z</time>
      </trkpt>
      <trkpt lat="47.51364" lon="-0.66645">
        <ele>41.95</ele>
        <time>2015-02-21T15:42:29Z</time>
      </trkpt>
      <trkpt lat="47.51389" lon="-0.66656">
        <ele>42.44</ele>
        <time>2015-02-21T15:42:35Z</time>
      </trkpt>
      <trkpt lat="47.51393" lon="-0.66658">
        <ele>42.92</ele>
        <time>2015-02-21T15:42:36Z</time>
      </trkpt>
      <trkpt lat="47.51415" lon="-0.66671">
        <ele>42.92</ele>
        <time>2015-02-21T15:42:41Z</time>
      </trkpt>
      <trkpt lat="47.51488" lon="-0.66741">
        <ele>42.92</ele>
        <time>2015-02-21T15:42:59Z</time>
      </trkpt>
      <trkpt lat="47.51508" lon="-0.6676">
        <ele>42.44</ele>
        <time>2015-02-21T15:43:04Z</time>
      </trkpt>
      <trkpt lat="47.51519" lon="-0.66774">
        <ele>42.92</ele>
        <time>2015-02-21T15:43:07Z</time>
      </trkpt>
      <trkpt lat="47.51522" lon="-0.66779">
        <ele>42.44</ele>
        <time>2015-02-21T15:43:08Z</time>
      </trkpt>
      <trkpt lat="47.51525" lon="-0.66783">
        <ele>42.44</ele>
        <time>2015-02-21T15:43:09Z</time>
      </trkpt>
      <trkpt lat="47.51529" lon="-0.66785">
        <ele>41.95</ele>
        <time>2015-02-21T15:43:10Z</time>
      </trkpt>
      <trkpt lat="47.51534" lon="-0.66786">
        <ele>42.44</ele>
        <time>2015-02-21T15:43:11Z</time>
      </trkpt>
      <trkpt lat="47.51538" lon="-0.66784">
        <ele>41.95</ele>
        <time>2015-02-21T15:43:12Z</time>
      </trkpt>
      <trkpt lat="47.51543" lon="-0.66783">
        <ele>41.95</ele>
        <time>2015-02-21T15:43:13Z</time>
      </trkpt>
      <trkpt lat="47.51548" lon="-0.66783">
        <ele>42.44</ele>
        <time>2015-02-21T15:43:14Z</time>
      </trkpt>
      <trkpt lat="47.51552" lon="-0.66783">
        <ele>42.44</ele>
        <time>2015-02-21T15:43:15Z</time>
      </trkpt>
      <trkpt lat="47.51571" lon="-0.6678">
        <ele>41.95</ele>
        <time>2015-02-21T15:43:19Z</time>
      </trkpt>
      <trkpt lat="47.51576" lon="-0.66781">
        <ele>41.95</ele>
        <time>2015-02-21T15:43:20Z</time>
      </trkpt>
      <trkpt lat="47.51586" lon="-0.66785">
        <ele>41.95</ele>
        <time>2015-02-21T15:43:22Z</time>
      </trkpt>
      <trkpt lat="47.51641" lon="-0.66798">
        <ele>42.44</ele>
        <time>2015-02-21T15:43:33Z</time>
      </trkpt>
      <trkpt lat="47.51654" lon="-0.66802">
        <ele>40.99</ele>
        <time>2015-02-21T15:43:36Z</time>
      </trkpt>
      <trkpt lat="47.51735" lon="-0.66804">
        <ele>39.07</ele>
        <time>2015-02-21T15:43:52Z</time>
      </trkpt>
      <trkpt lat="47.51771" lon="-0.66795">
        <ele>38.59</ele>
        <time>2015-02-21T15:43:58Z</time>
      </trkpt>
      <trkpt lat="47.5186" lon="-0.66769">
        <ele>37.15</ele>
        <time>2015-02-21T15:44:13Z</time>
      </trkpt>
      <trkpt lat="47.51874" lon="-0.66765">
        <ele>37.63</ele>
        <time>2015-02-21T15:44:16Z</time>
      </trkpt>
      <trkpt lat="47.51878" lon="-0.66761">
        <ele>37.15</ele>
        <time>2015-02-21T15:44:17Z</time>
      </trkpt>
      <trkpt lat="47.51881" lon="-0.66757">
        <ele>37.15</ele>
        <time>2015-02-21T15:44:18Z</time>
      </trkpt>
      <trkpt lat="47.51884" lon="-0.66753">
        <ele>37.63</ele>
        <time>2015-02-21T15:44:19Z</time>
      </trkpt>
      <trkpt lat="47.51888" lon="-0.66752">
        <ele>37.63</ele>
        <time>2015-02-21T15:44:20Z</time>
      </trkpt>
      <trkpt lat="47.51892" lon="-0.66752">
        <ele>38.11</ele>
        <time>2015-02-21T15:44:21Z</time>
      </trkpt>
      <trkpt lat="47.51895" lon="-0.66756">
        <ele>38.11</ele>
        <time>2015-02-21T15:44:22Z</time>
      </trkpt>
      <trkpt lat="47.51897" lon="-0.6676">
        <ele>38.11</ele>
        <time>2015-02-21T15:44:23Z</time>
      </trkpt>
      <trkpt lat="47.519" lon="-0.66763">
        <ele>38.11</ele>
        <time>2015-02-21T15:44:24Z</time>
      </trkpt>
      <trkpt lat="47.51903" lon="-0.66765">
        <ele>38.11</ele>
        <time>2015-02-21T15:44:25Z</time>
      </trkpt>
      <trkpt lat="47.51906" lon="-0.66767">
        <ele>38.11</ele>
        <time>2015-02-21T15:44:26Z</time>
      </trkpt>
      <trkpt lat="47.51941" lon="-0.66772">
        <ele>39.55</ele>
        <time>2015-02-21T15:44:38Z</time>
      </trkpt>
      <trkpt lat="47.51951" lon="-0.66737">
        <ele>41.47</ele>
        <time>2015-02-21T15:44:45Z</time>
      </trkpt>
      <trkpt lat="47.51953" lon="-0.66732">
        <ele>41.95</ele>
        <time>2015-02-21T15:44:46Z</time>
      </trkpt>
      <trkpt lat="47.51956" lon="-0.66728">
        <ele>42.44</ele>
        <time>2015-02-21T15:44:47Z</time>
      </trkpt>
      <trkpt lat="47.51986" lon="-0.6667">
        <ele>44.36</ele>
        <time>2015-02-21T15:45:02Z</time>
      </trkpt>
      <trkpt lat="47.52008" lon="-0.66616">
        <ele>45.8</ele>
        <time>2015-02-21T15:45:14Z</time>
      </trkpt>
      <trkpt lat="47.52015" lon="-0.66595">
        <ele>46.28</ele>
        <time>2015-02-21T15:45:18Z</time>
      </trkpt>
      <trkpt lat="47.52016" lon="-0.6659">
        <ele>46.28</ele>
        <time>2015-02-21T15:45:19Z</time>
      </trkpt>
      <trkpt lat="47.52035" lon="-0.66484">
        <ele>46.28</ele>
        <time>2015-02-21T15:45:34Z</time>
      </trkpt>
      <trkpt lat="47.52041" lon="-0.66361">
        <ele>48.2</ele>
        <time>2015-02-21T15:45:50Z</time>
      </trkpt>
      <trkpt lat="47.52044" lon="-0.66238">
        <ele>50.13</ele>
        <time>2015-02-21T15:46:06Z</time>
      </trkpt>
      <trkpt lat="47.52047" lon="-0.6609">
        <ele>50.13</ele>
        <time>2015-02-21T15:46:24Z</time>
      </trkpt>
      <trkpt lat="47.52052" lon="-0.65921">
        <ele>48.68</ele>
        <time>2015-02-21T15:46:43Z</time>
      </trkpt>
      <trkpt lat="47.52058" lon="-0.65779">
        <ele>48.2</ele>
        <time>2015-02-21T15:46:59Z</time>
      </trkpt>
      <trkpt lat="47.52061" lon="-0.65746">
        <ele>48.68</ele>
        <time>2015-02-21T15:47:03Z</time>
      </trkpt>
      <trkpt lat="47.52063" lon="-0.65738">
        <ele>48.2</ele>
        <time>2015-02-21T15:47:04Z</time>
      </trkpt>
      <trkpt lat="47.52065" lon="-0.6573">
        <ele>48.2</ele>
        <time>2015-02-21T15:47:05Z</time>
      </trkpt>
      <trkpt lat="47.52069" lon="-0.65723">
        <ele>48.68</ele>
        <time>2015-02-21T15:47:06Z</time>
      </trkpt>
      <trkpt lat="47.52072" lon="-0.65717">
        <ele>48.2</ele>
        <time>2015-02-21T15:47:07Z</time>
      </trkpt>
      <trkpt lat="47.52076" lon="-0.65712">
        <ele>49.16</ele>
        <time>2015-02-21T15:47:08Z</time>
      </trkpt>
      <trkpt lat="47.52137" lon="-0.65642">
        <ele>50.13</ele>
        <time>2015-02-21T15:47:23Z</time>
      </trkpt>
      <trkpt lat="47.52209" lon="-0.65559">
        <ele>48.68</ele>
        <time>2015-02-21T15:47:38Z</time>
      </trkpt>
      <trkpt lat="47.52302" lon="-0.65456">
        <ele>45.8</ele>
        <time>2015-02-21T15:47:53Z</time>
      </trkpt>
      <trkpt lat="47.52381" lon="-0.65366">
        <ele>47.72</ele>
        <time>2015-02-21T15:48:08Z</time>
      </trkpt>
      <trkpt lat="47.52452" lon="-0.65287">
        <ele>47.72</ele>
        <time>2015-02-21T15:48:25Z</time>
      </trkpt>
      <trkpt lat="47.52518" lon="-0.6521">
        <ele>45.32</ele>
        <time>2015-02-21T15:48:38Z</time>
      </trkpt>
      <trkpt lat="47.52613" lon="-0.65102">
        <ele>43.88</ele>
        <time>2015-02-21T15:48:55Z</time>
      </trkpt>
      <trkpt lat="47.52695" lon="-0.65008">
        <ele>45.32</ele>
        <time>2015-02-21T15:49:12Z</time>
      </trkpt>
      <trkpt lat="47.52743" lon="-0.64953">
        <ele>47.72</ele>
        <time>2015-02-21T15:49:24Z</time>
      </trkpt>
      <trkpt lat="47.52759" lon="-0.64935">
        <ele>47.72</ele>
        <time>2015-02-21T15:49:29Z</time>
      </trkpt>
      <trkpt lat="47.52763" lon="-0.64931">
        <ele>48.2</ele>
        <time>2015-02-21T15:49:30Z</time>
      </trkpt>
      <trkpt lat="47.52767" lon="-0.64926">
        <ele>47.72</ele>
        <time>2015-02-21T15:49:31Z</time>
      </trkpt>
      <trkpt lat="47.52808" lon="-0.6488">
        <ele>50.13</ele>
        <time>2015-02-21T15:49:45Z</time>
      </trkpt>
      <trkpt lat="47.52852" lon="-0.64827">
        <ele>52.05</ele>
        <time>2015-02-21T15:50:02Z</time>
      </trkpt>
      <trkpt lat="47.52896" lon="-0.64778">
        <ele>53.97</ele>
        <time>2015-02-21T15:50:20Z</time>
      </trkpt>
      <trkpt lat="47.52941" lon="-0.6473">
        <ele>56.37</ele>
        <time>2015-02-21T15:50:37Z</time>
      </trkpt>
      <trkpt lat="47.52974" lon="-0.64689">
        <ele>59.74</ele>
        <time>2015-02-21T15:50:50Z</time>
      </trkpt>
      <trkpt lat="47.52976" lon="-0.64686">
        <ele>56.37</ele>
        <time>2015-02-21T15:50:51Z</time>
      </trkpt>
      <trkpt lat="47.52978" lon="-0.64682">
        <ele>62.14</ele>
        <time>2015-02-21T15:50:52Z</time>
      </trkpt>
      <trkpt lat="47.5298" lon="-0.64679">
        <ele>58.3</ele>
        <time>2015-02-21T15:50:53Z</time>
      </trkpt>
      <trkpt lat="47.53026" lon="-0.64612">
        <ele>60.22</ele>
        <time>2015-02-21T15:51:12Z</time>
      </trkpt>
      <trkpt lat="47.53065" lon="-0.64551">
        <ele>63.1</ele>
        <time>2015-02-21T15:51:29Z</time>
      </trkpt>
      <trkpt lat="47.53109" lon="-0.64494">
        <ele>65.51</ele>
        <time>2015-02-21T15:51:46Z</time>
      </trkpt>
      <trkpt lat="47.53173" lon="-0.64425">
        <ele>65.99</ele>
        <time>2015-02-21T15:52:06Z</time>
      </trkpt>
      <trkpt lat="47.5325" lon="-0.64337">
        <ele>65.51</ele>
        <time>2015-02-21T15:52:25Z</time>
      </trkpt>
      <trkpt lat="47.53348" lon="-0.64242">
        <ele>65.03</ele>
        <time>2015-02-21T15:52:47Z</time>
      </trkpt>
      <trkpt lat="47.53384" lon="-0.64213">
        <ele>65.51</ele>
        <time>2015-02-21T15:52:55Z</time>
      </trkpt>
      <trkpt lat="47.53462" lon="-0.6416">
        <ele>66.47</ele>
        <time>2015-02-21T15:53:14Z</time>
      </trkpt>
      <trkpt lat="47.53525" lon="-0.64123">
        <ele>69.83</ele>
        <time>2015-02-21T15:53:29Z</time>
      </trkpt>
      <trkpt lat="47.53589" lon="-0.64086">
        <ele>70.79</ele>
        <time>2015-02-21T15:53:47Z</time>
      </trkpt>
      <trkpt lat="47.53644" lon="-0.64052">
        <ele>72.24</ele>
        <time>2015-02-21T15:54:05Z</time>
      </trkpt>
      <trkpt lat="47.53689" lon="-0.64002">
        <ele>73.2</ele>
        <time>2015-02-21T15:54:21Z</time>
      </trkpt>
      <trkpt lat="47.53753" lon="-0.63929">
        <ele>71.76</ele>
        <time>2015-02-21T15:54:37Z</time>
      </trkpt>
      <trkpt lat="47.53791" lon="-0.63876">
        <ele>70.31</ele>
        <time>2015-02-21T15:54:45Z</time>
      </trkpt>
      <trkpt lat="47.53794" lon="-0.63867">
        <ele>69.35</ele>
        <time>2015-02-21T15:54:46Z</time>
      </trkpt>
      <trkpt lat="47.53797" lon="-0.63856">
        <ele>69.35</ele>
        <time>2015-02-21T15:54:47Z</time>
      </trkpt>
      <trkpt lat="47.53799" lon="-0.63845">
        <ele>68.87</ele>
        <time>2015-02-21T15:54:48Z</time>
      </trkpt>
      <trkpt lat="47.53801" lon="-0.63834">
        <ele>68.87</ele>
        <time>2015-02-21T15:54:49Z</time>
      </trkpt>
      <trkpt lat="47.53803" lon="-0.63812">
        <ele>68.39</ele>
        <time>2015-02-21T15:54:51Z</time>
      </trkpt>
      <trkpt lat="47.53802" lon="-0.63801">
        <ele>68.39</ele>
        <time>2015-02-21T15:54:52Z</time>
      </trkpt>
      <trkpt lat="47.53798" lon="-0.63792">
        <ele>68.39</ele>
        <time>2015-02-21T15:54:53Z</time>
      </trkpt>
      <trkpt lat="47.53793" lon="-0.63784">
        <ele>68.39</ele>
        <time>2015-02-21T15:54:54Z</time>
      </trkpt>
      <trkpt lat="47.53788" lon="-0.63776">
        <ele>68.87</ele>
        <time>2015-02-21T15:54:55Z</time>
      </trkpt>
      <trkpt lat="47.53714" lon="-0.63656">
        <ele>71.27</ele>
        <time>2015-02-21T15:55:12Z</time>
      </trkpt>
      <trkpt lat="47.53667" lon="-0.63579">
        <ele>71.27</ele>
        <time>2015-02-21T15:55:27Z</time>
      </trkpt>
      <trkpt lat="47.53604" lon="-0.63478">
        <ele>72.24</ele>
        <time>2015-02-21T15:55:47Z</time>
      </trkpt>
      <trkpt lat="47.53531" lon="-0.63361">
        <ele>74.16</ele>
        <time>2015-02-21T15:56:09Z</time>
      </trkpt>
      <trkpt lat="47.53521" lon="-0.63343">
        <ele>74.16</ele>
        <time>2015-02-21T15:56:12Z</time>
      </trkpt>
      <trkpt lat="47.53454" lon="-0.63237">
        <ele>73.68</ele>
        <time>2015-02-21T15:56:30Z</time>
      </trkpt>
      <trkpt lat="47.53433" lon="-0.63196">
        <ele>73.2</ele>
        <time>2015-02-21T15:56:36Z</time>
      </trkpt>
      <trkpt lat="47.53432" lon="-0.63187">
        <ele>73.2</ele>
        <time>2015-02-21T15:56:37Z</time>
      </trkpt>
      <trkpt lat="47.53453" lon="-0.63167">
        <ele>72.72</ele>
        <time>2015-02-21T15:56:42Z</time>
      </trkpt>
      <trkpt lat="47.53457" lon="-0.63162">
        <ele>72.24</ele>
        <time>2015-02-21T15:56:43Z</time>
      </trkpt>
      <trkpt lat="47.53501" lon="-0.63104">
        <ele>69.35</ele>
        <time>2015-02-21T15:56:52Z</time>
      </trkpt>
      <trkpt lat="47.53542" lon="-0.6305">
        <ele>65.51</ele>
        <time>2015-02-21T15:56:58Z</time>
      </trkpt>
      <trkpt lat="47.53576" lon="-0.63017">
        <ele>63.1</ele>
        <time>2015-02-21T15:57:02Z</time>
      </trkpt>
      <trkpt lat="47.53602" lon="-0.62994">
        <ele>61.18</ele>
        <time>2015-02-21T15:57:05Z</time>
      </trkpt>
      <trkpt lat="47.5362" lon="-0.62983">
        <ele>60.22</ele>
        <time>2015-02-21T15:57:07Z</time>
      </trkpt>
      <trkpt lat="47.53647" lon="-0.6293">
        <ele>57.82</ele>
        <time>2015-02-21T15:57:12Z</time>
      </trkpt>
      <trkpt lat="47.53643" lon="-0.62907">
        <ele>56.86</ele>
        <time>2015-02-21T15:57:14Z</time>
      </trkpt>
      <trkpt lat="47.53649" lon="-0.62826">
        <ele>54.93</ele>
        <time>2015-02-21T15:57:22Z</time>
      </trkpt>
      <trkpt lat="47.5366" lon="-0.62805">
        <ele>54.45</ele>
        <time>2015-02-21T15:57:24Z</time>
      </trkpt>
      <trkpt lat="47.53692" lon="-0.62754">
        <ele>53.01</ele>
        <time>2015-02-21T15:57:29Z</time>
      </trkpt>
      <trkpt lat="47.53702" lon="-0.62733">
        <ele>52.05</ele>
        <time>2015-02-21T15:57:31Z</time>
      </trkpt>
      <trkpt lat="47.53737" lon="-0.62638">
        <ele>48.68</ele>
        <time>2015-02-21T15:57:39Z</time>
      </trkpt>
      <trkpt lat="47.53737" lon="-0.62572">
        <ele>47.24</ele>
        <time>2015-02-21T15:57:44Z</time>
      </trkpt>
      <trkpt lat="47.53729" lon="-0.62549">
        <ele>46.76</ele>
        <time>2015-02-21T15:57:46Z</time>
      </trkpt>
      <trkpt lat="47.53687" lon="-0.62486">
        <ele>49.65</ele>
        <time>2015-02-21T15:57:55Z</time>
      </trkpt>
      <trkpt lat="47.53685" lon="-0.62479">
        <ele>49.65</ele>
        <time>2015-02-21T15:57:56Z</time>
      </trkpt>
      <trkpt lat="47.53685" lon="-0.62472">
        <ele>49.65</ele>
        <time>2015-02-21T15:57:57Z</time>
      </trkpt>
      <trkpt lat="47.53685" lon="-0.62465">
        <ele>49.65</ele>
        <time>2015-02-21T15:57:58Z</time>
      </trkpt>
      <trkpt lat="47.53687" lon="-0.62458">
        <ele>48.68</ele>
        <time>2015-02-21T15:57:59Z</time>
      </trkpt>
      <trkpt lat="47.5369" lon="-0.62452">
        <ele>48.68</ele>
        <time>2015-02-21T15:58:00Z</time>
      </trkpt>
      <trkpt lat="47.53694" lon="-0.62447">
        <ele>48.68</ele>
        <time>2015-02-21T15:58:01Z</time>
      </trkpt>
      <trkpt lat="47.53699" lon="-0.62441">
        <ele>48.68</ele>
        <time>2015-02-21T15:58:02Z</time>
      </trkpt>
      <trkpt lat="47.53702" lon="-0.62435">
        <ele>48.2</ele>
        <time>2015-02-21T15:58:03Z</time>
      </trkpt>
      <trkpt lat="47.53704" lon="-0.62427">
        <ele>47.72</ele>
        <time>2015-02-21T15:58:04Z</time>
      </trkpt>
      <trkpt lat="47.53702" lon="-0.62419">
        <ele>47.72</ele>
        <time>2015-02-21T15:58:05Z</time>
      </trkpt>
      <trkpt lat="47.53699" lon="-0.62414">
        <ele>47.72</ele>
        <time>2015-02-21T15:58:06Z</time>
      </trkpt>
      <trkpt lat="47.53694" lon="-0.62411">
        <ele>47.72</ele>
        <time>2015-02-21T15:58:07Z</time>
      </trkpt>
      <trkpt lat="47.53689" lon="-0.62409">
        <ele>48.2</ele>
        <time>2015-02-21T15:58:08Z</time>
      </trkpt>
      <trkpt lat="47.53681" lon="-0.62403">
        <ele>48.68</ele>
        <time>2015-02-21T15:58:10Z</time>
      </trkpt>
      <trkpt lat="47.53677" lon="-0.62399">
        <ele>49.65</ele>
        <time>2015-02-21T15:58:11Z</time>
      </trkpt>
      <trkpt lat="47.53673" lon="-0.62394">
        <ele>50.13</ele>
        <time>2015-02-21T15:58:12Z</time>
      </trkpt>
      <trkpt lat="47.5367" lon="-0.62388">
        <ele>50.13</ele>
        <time>2015-02-21T15:58:13Z</time>
      </trkpt>
      <trkpt lat="47.53667" lon="-0.62382">
        <ele>50.61</ele>
        <time>2015-02-21T15:58:14Z</time>
      </trkpt>
      <trkpt lat="47.53665" lon="-0.62375">
        <ele>51.09</ele>
        <time>2015-02-21T15:58:15Z</time>
      </trkpt>
      <trkpt lat="47.53663" lon="-0.62369">
        <ele>51.09</ele>
        <time>2015-02-21T15:58:16Z</time>
      </trkpt>
      <trkpt lat="47.53661" lon="-0.62362">
        <ele>51.57</ele>
        <time>2015-02-21T15:58:17Z</time>
      </trkpt>
      <trkpt lat="47.5366" lon="-0.62348">
        <ele>52.05</ele>
        <time>2015-02-21T15:58:19Z</time>
      </trkpt>
      <trkpt lat="47.53662" lon="-0.62341">
        <ele>52.53</ele>
        <time>2015-02-21T15:58:20Z</time>
      </trkpt>
      <trkpt lat="47.53665" lon="-0.62335">
        <ele>52.53</ele>
        <time>2015-02-21T15:58:21Z</time>
      </trkpt>
      <trkpt lat="47.53669" lon="-0.62329">
        <ele>53.01</ele>
        <time>2015-02-21T15:58:22Z</time>
      </trkpt>
      <trkpt lat="47.53672" lon="-0.62324">
        <ele>52.05</ele>
        <time>2015-02-21T15:58:23Z</time>
      </trkpt>
      <trkpt lat="47.53677" lon="-0.62319">
        <ele>52.53</ele>
        <time>2015-02-21T15:58:24Z</time>
      </trkpt>
      <trkpt lat="47.53726" lon="-0.62275">
        <ele>52.05</ele>
        <time>2015-02-21T15:58:34Z</time>
      </trkpt>
      <trkpt lat="47.5373" lon="-0.6227">
        <ele>52.53</ele>
        <time>2015-02-21T15:58:35Z</time>
      </trkpt>
      <trkpt lat="47.53753" lon="-0.62241">
        <ele>52.05</ele>
        <time>2015-02-21T15:58:41Z</time>
      </trkpt>
      <trkpt lat="47.53756" lon="-0.62236">
        <ele>52.05</ele>
        <time>2015-02-21T15:58:42Z</time>
      </trkpt>
      <trkpt lat="47.53757" lon="-0.62229">
        <ele>51.57</ele>
        <time>2015-02-21T15:58:43Z</time>
      </trkpt>
      <trkpt lat="47.53756" lon="-0.62222">
        <ele>52.05</ele>
        <time>2015-02-21T15:58:44Z</time>
      </trkpt>
      <trkpt lat="47.53752" lon="-0.62217">
        <ele>51.57</ele>
        <time>2015-02-21T15:58:45Z</time>
      </trkpt>
      <trkpt lat="47.53748" lon="-0.62213">
        <ele>52.05</ele>
        <time>2015-02-21T15:58:46Z</time>
      </trkpt>
      <trkpt lat="47.53744" lon="-0.62209">
        <ele>52.53</ele>
        <time>2015-02-21T15:58:47Z</time>
      </trkpt>
      <trkpt lat="47.53741" lon="-0.62204">
        <ele>53.01</ele>
        <time>2015-02-21T15:58:48Z</time>
      </trkpt>
      <trkpt lat="47.53717" lon="-0.62174">
        <ele>54.45</ele>
        <time>2015-02-21T15:58:56Z</time>
      </trkpt>
      <trkpt lat="47.53716" lon="-0.62169">
        <ele>54.45</ele>
        <time>2015-02-21T15:58:57Z</time>
      </trkpt>
      <trkpt lat="47.53717" lon="-0.62164">
        <ele>54.45</ele>
        <time>2015-02-21T15:58:58Z</time>
      </trkpt>
      <trkpt lat="47.53718" lon="-0.6216">
        <ele>54.45</ele>
        <time>2015-02-21T15:58:59Z</time>
      </trkpt>
      <trkpt lat="47.53721" lon="-0.62157">
        <ele>54.93</ele>
        <time>2015-02-21T15:59:00Z</time>
      </trkpt>
      <trkpt lat="47.53731" lon="-0.62145">
        <ele>54.93</ele>
        <time>2015-02-21T15:59:03Z</time>
      </trkpt>
      <trkpt lat="47.53754" lon="-0.62119">
        <ele>53.97</ele>
        <time>2015-02-21T15:59:10Z</time>
      </trkpt>
      <trkpt lat="47.53781" lon="-0.62156">
        <ele>52.05</ele>
        <time>2015-02-21T15:59:19Z</time>
      </trkpt>
      <trkpt lat="47.53798" lon="-0.62146">
        <ele>51.57</ele>
        <time>2015-02-21T15:59:25Z</time>
      </trkpt>
      <trkpt lat="47.53808" lon="-0.62123">
        <ele>51.09</ele>
        <time>2015-02-21T15:59:31Z</time>
      </trkpt>
      <trkpt lat="47.5381" lon="-0.62122">
        <ele>51.09</ele>
        <time>2015-02-21T15:59:32Z</time>
      </trkpt>
      <trkpt lat="47.53812" lon="-0.62122">
        <ele>50.61</ele>
        <time>2015-02-21T15:59:33Z</time>
      </trkpt>
      <trkpt lat="47.53815" lon="-0.62121">
        <ele>50.61</ele>
        <time>2015-02-21T15:59:34Z</time>
      </trkpt>
      <trkpt lat="47.53819" lon="-0.6212">
        <ele>50.13</ele>
        <time>2015-02-21T15:59:35Z</time>
      </trkpt>
      <trkpt lat="47.53823" lon="-0.62119">
        <ele>51.09</ele>
        <time>2015-02-21T15:59:36Z</time>
      </trkpt>
      <trkpt lat="47.53832" lon="-0.62114">
        <ele>50.61</ele>
        <time>2015-02-21T15:59:38Z</time>
      </trkpt>
      <trkpt lat="47.53836" lon="-0.6211">
        <ele>49.65</ele>
        <time>2015-02-21T15:59:39Z</time>
      </trkpt>
      <trkpt lat="47.53872" lon="-0.62068">
        <ele>49.16</ele>
        <time>2015-02-21T15:59:50Z</time>
      </trkpt>
      <trkpt lat="47.53875" lon="-0.62062">
        <ele>49.16</ele>
        <time>2015-02-21T15:59:52Z</time>
      </trkpt>
      <trkpt lat="47.53876" lon="-0.62058">
        <ele>49.16</ele>
        <time>2015-02-21T15:59:53Z</time>
      </trkpt>
      <trkpt lat="47.53876" lon="-0.62053">
        <ele>50.13</ele>
        <time>2015-02-21T15:59:54Z</time>
      </trkpt>
      <trkpt lat="47.53857" lon="-0.62003">
        <ele>50.13</ele>
        <time>2015-02-21T16:00:05Z</time>
      </trkpt>
      <trkpt lat="47.53851" lon="-0.61994">
        <ele>50.61</ele>
        <time>2015-02-21T16:00:08Z</time>
      </trkpt>
      <trkpt lat="47.53849" lon="-0.61993">
        <ele>50.61</ele>
        <time>2015-02-21T16:00:09Z</time>
      </trkpt>
      <trkpt lat="47.5385" lon="-0.61991">
        <ele>51.09</ele>
        <time>2015-02-21T16:00:10Z</time>
      </trkpt>
      <trkpt lat="47.53851" lon="-0.61991">
        <ele>50.61</ele>
        <time>2015-02-21T16:00:11Z</time>
      </trkpt>
      <trkpt lat="47.53852" lon="-0.61993">
        <ele>50.61</ele>
        <time>2015-02-21T16:00:12Z</time>
      </trkpt>
      <trkpt lat="47.53853" lon="-0.61996">
        <ele>50.13</ele>
        <time>2015-02-21T16:00:13Z</time>
      </trkpt>
      <trkpt lat="47.53855" lon="-0.61999">
        <ele>50.13</ele>
        <time>2015-02-21T16:00:14Z</time>
      </trkpt>
      <trkpt lat="47.53865" lon="-0.62013">
        <ele>50.13</ele>
        <time>2015-02-21T16:00:24Z</time>
      </trkpt>
      <trkpt lat="47.53865" lon="-0.62009">
        <ele>50.13</ele>
        <time>2015-02-21T16:00:27Z</time>
      </trkpt>
      <trkpt lat="47.53865" lon="-0.62007">
        <ele>50.61</ele>
        <time>2015-02-21T16:00:28Z</time>
      </trkpt>
      <trkpt lat="47.53865" lon="-0.62005">
        <ele>50.13</ele>
        <time>2015-02-21T16:00:29Z</time>
      </trkpt>
      <trkpt lat="47.53865" lon="-0.62002">
        <ele>50.13</ele>
        <time>2015-02-21T16:00:30Z</time>
      </trkpt>
      <trkpt lat="47.53865" lon="-0.61999">
        <ele>50.61</ele>
        <time>2015-02-21T16:00:31Z</time>
      </trkpt>
      <trkpt lat="47.53866" lon="-0.61997">
        <ele>49.65</ele>
        <time>2015-02-21T16:00:32Z</time>
      </trkpt>
      <trkpt lat="47.53867" lon="-0.61995">
        <ele>46.76</ele>
        <time>2015-02-21T16:00:33Z</time>
      </trkpt>
      <trkpt lat="47.53869" lon="-0.61993">
        <ele>53.01</ele>
        <time>2015-02-21T16:00:34Z</time>
      </trkpt>
      <trkpt lat="47.5387" lon="-0.6199">
        <ele>49.65</ele>
        <time>2015-02-21T16:00:35Z</time>
      </trkpt>
      <trkpt lat="47.53874" lon="-0.61981">
        <ele>49.65</ele>
        <time>2015-02-21T16:00:39Z</time>
      </trkpt>
      <trkpt lat="47.53875" lon="-0.61981">
        <ele>50.61</ele>
        <time>2015-02-21T16:00:40Z</time>
      </trkpt>
      <trkpt lat="47.53877" lon="-0.61982">
        <ele>50.61</ele>
        <time>2015-02-21T16:00:41Z</time>
      </trkpt>
      <trkpt lat="47.5388" lon="-0.61985">
        <ele>49.65</ele>
        <time>2015-02-21T16:00:53Z</time>
      </trkpt>
      <trkpt lat="47.53881" lon="-0.61985">
        <ele>49.16</ele>
        <time>2015-02-21T16:00:57Z</time>
      </trkpt>
    </trkseg>
  </trk>
</gpx>